[[{"header":{"parameterUnit":"m.s-1","parameterCategory":1,"la1":30.6,"la2":29.2853,"lo1":-89.7004,"lo2":-87.6739,"dy":0.0162,"dx":0.0183,"nx":112,"ny":82,"refTime":"2023-08-30T18:00:00:Z","depth":0,"parameterNumber":2,"parameterNumberName":"U-component_of_WINDS"},"data":[0.0,0.0,0.0,0.0,0.0,0.0,0.0,0.0,0.0,0.0,0.0,0.0,0.0,0.0,0.0,0.0,0.0,0.0,0.0,0.0,0.0,0.0,0.0,0.0,0.0,0.0,0.0,0.0,0.0,0.0,0.0,0.0,0.0,0.0,0.0,0.0,0.0,0.0,0.0,0.0,0.0,0.0,0.0,0.0,0.0,0.0,0.0,0.0,0.0,0.0,0.0,0.0,0.0,0.0,0.0,0.0,0.0,0.0,0.0,0.0,0.0,0.0,0.0,0.0,0.0,0.0,0.0,0.0,0.0,0.0,0.0,0.0,0.0,0.0,0.0,0.0,0.0,0.0,0.0,0.0,0.0,0.0,0.0,0.0,0.0,0.0,0.0,0.0,0.0,0.0,-3.3299,-3.3889,-3.3415,-3.305,-3.305,-3.2928,-3.2889,-3.2988,0.0,0.0,0.0,0.0,0.0,0.0,0.0,0.0,0.0,0.0,0.0,0.0,0.0,0.0,0.0,0.0,0.0,0.0,0.0,0.0,0.0,0.0,0.0,0.0,0.0,0.0,0.0,0.0,0.0,0.0,0.0,0.0,0.0,0.0,0.0,0.0,0.0,0.0,0.0,0.0,0.0,0.0,0.0,0.0,0.0,0.0,0.0,0.0,0.0,0.0,0.0,0.0,0.0,0.0,0.0,0.0,0.0,0.0,0.0,0.0,0.0,0.0,0.0,0.0,0.0,0.0,0.0,0.0,0.0,0.0,0.0,0.0,0.0,0.0,0.0,0.0,0.0,0.0,0.0,0.0,0.0,0.0,0.0,0.0,0.0,0.0,0.0,0.0,0.0,0.0,0.0,0.0,0.0,0.0,0.0,0.0,0.0,0.0,0.0,0.0,0.0,0.0,0.0,0.0,-3.4601,-3.4717,-3.4618,-3.4568,-3.4568,-3.3895,-3.3726,-3.4352,0.0,0.0,0.0,0.0,0.0,0.0,0.0,0.0,0.0,0.0,0.0,0.0,0.0,0.0,0.0,0.0,0.0,0.0,0.0,0.0,0.0,0.0,0.0,0.0,0.0,0.0,0.0,0.0,0.0,0.0,0.0,0.0,0.0,0.0,0.0,0.0,0.0,0.0,0.0,0.0,0.0,0.0,0.0,0.0,0.0,0.0,0.0,0.0,0.0,0.0,0.0,0.0,0.0,0.0,0.0,0.0,0.0,0.0,0.0,0.0,0.0,0.0,0.0,0.0,0.0,0.0,0.0,0.0,0.0,0.0,0.0,0.0,0.0,0.0,0.0,0.0,0.0,0.0,0.0,0.0,0.0,0.0,0.0,0.0,0.0,0.0,0.0,0.0,0.0,0.0,0.0,0.0,0.0,0.0,0.0,0.0,0.0,0.0,0.0,0.0,0.0,0.0,0.0,-3.4517,-3.4804,-3.4497,-3.4732,-3.4875,-3.4804,-3.4442,-3.4321,-3.4578,-3.3226,0.0,0.0,0.0,0.0,0.0,0.0,0.0,0.0,0.0,0.0,0.0,0.0,0.0,0.0,0.0,0.0,0.0,0.0,0.0,0.0,0.0,0.0,0.0,0.0,0.0,0.0,0.0,0.0,0.0,0.0,0.0,0.0,0.0,0.0,0.0,0.0,0.0,0.0,0.0,0.0,0.0,0.0,0.0,0.0,0.0,0.0,0.0,0.0,0.0,0.0,0.0,0.0,0.0,0.0,0.0,0.0,0.0,0.0,0.0,0.0,0.0,0.0,0.0,0.0,0.0,0.0,0.0,0.0,0.0,0.0,0.0,0.0,0.0,0.0,0.0,0.0,0.0,0.0,0.0,0.0,0.0,0.0,0.0,0.0,0.0,0.0,0.0,0.0,0.0,0.0,0.0,0.0,0.0,0.0,0.0,0.0,0.0,0.0,0.0,0.0,0.0,0.0,-3.4218,-3.4366,-3.4018,-3.4407,-3.4707,-3.4659,-3.4529,-3.4456,-3.4448,-3.3665,0.0,0.0,0.0,0.0,0.0,0.0,0.0,0.0,0.0,0.0,0.0,0.0,0.0,0.0,0.0,0.0,0.0,0.0,0.0,0.0,0.0,0.0,0.0,0.0,0.0,0.0,0.0,0.0,0.0,0.0,0.0,0.0,0.0,0.0,0.0,0.0,0.0,0.0,0.0,0.0,0.0,0.0,0.0,0.0,0.0,0.0,0.0,0.0,0.0,0.0,0.0,0.0,0.0,0.0,0.0,0.0,0.0,0.0,0.0,0.0,0.0,0.0,0.0,0.0,0.0,0.0,0.0,0.0,0.0,0.0,0.0,0.0,0.0,0.0,0.0,0.0,0.0,0.0,0.0,0.0,0.0,0.0,0.0,0.0,0.0,0.0,0.0,0.0,0.0,0.0,0.0,0.0,0.0,0.0,0.0,0.0,0.0,0.0,0.0,0.0,0.0,0.0,-3.3224,-3.3391,-3.3624,-3.3968,-3.425,-3.4497,-3.4011,-3.3843,-3.43,-3.3608,0.0,0.0,0.0,0.0,0.0,0.0,0.0,0.0,0.0,0.0,0.0,0.0,0.0,0.0,0.0,0.0,0.0,0.0,0.0,0.0,0.0,0.0,0.0,0.0,0.0,0.0,0.0,0.0,0.0,0.0,0.0,0.0,0.0,0.0,0.0,0.0,0.0,0.0,0.0,0.0,0.0,0.0,0.0,0.0,0.0,0.0,0.0,0.0,0.0,0.0,0.0,0.0,0.0,0.0,0.0,0.0,0.0,0.0,0.0,0.0,0.0,0.0,0.0,0.0,0.0,0.0,0.0,0.0,0.0,0.0,0.0,0.0,0.0,0.0,0.0,0.0,0.0,0.0,0.0,0.0,0.0,0.0,0.0,0.0,0.0,0.0,0.0,0.0,0.0,0.0,0.0,0.0,0.0,0.0,0.0,0.0,0.0,0.0,0.0,0.0,0.0,0.0,-3.2648,-3.2821,0.0,-3.2997,-3.3277,-3.3439,-3.313,-3.2971,-3.3113,0.0,0.0,0.0,0.0,0.0,0.0,0.0,0.0,0.0,0.0,0.0,0.0,0.0,0.0,0.0,0.0,0.0,0.0,0.0,0.0,0.0,0.0,0.0,0.0,0.0,0.0,0.0,0.0,0.0,0.0,0.0,0.0,0.0,0.0,0.0,0.0,0.0,0.0,0.0,0.0,0.0,0.0,0.0,0.0,0.0,0.0,0.0,0.0,0.0,0.0,0.0,0.0,0.0,0.0,0.0,0.0,0.0,0.0,0.0,0.0,0.0,0.0,0.0,0.0,0.0,0.0,0.0,0.0,0.0,0.0,0.0,0.0,0.0,0.0,0.0,0.0,0.0,0.0,0.0,0.0,0.0,0.0,0.0,0.0,0.0,0.0,0.0,0.0,0.0,0.0,0.0,0.0,0.0,0.0,0.0,0.0,0.0,0.0,0.0,0.0,0.0,0.0,-3.1622,-3.1918,-3.2114,0.0,-3.2238,-3.2513,-3.2668,-3.2419,-3.2296,-3.2382,0.0,0.0,0.0,0.0,0.0,0.0,0.0,0.0,0.0,0.0,0.0,0.0,0.0,0.0,0.0,0.0,0.0,0.0,0.0,0.0,0.0,0.0,0.0,0.0,0.0,0.0,0.0,0.0,0.0,0.0,0.0,0.0,0.0,0.0,0.0,0.0,0.0,0.0,0.0,0.0,0.0,0.0,0.0,0.0,0.0,0.0,0.0,0.0,0.0,0.0,0.0,0.0,0.0,0.0,0.0,0.0,0.0,0.0,0.0,0.0,0.0,0.0,0.0,0.0,0.0,0.0,0.0,0.0,0.0,0.0,0.0,0.0,0.0,0.0,0.0,0.0,0.0,0.0,0.0,0.0,0.0,0.0,0.0,0.0,0.0,0.0,0.0,0.0,0.0,0.0,0.0,0.0,0.0,0.0,0.0,0.0,0.0,0.0,0.0,0.0,0.0,0.0,-3.0821,-3.0984,-3.122,-3.1451,-3.1736,-3.2018,-3.2355,-3.1949,-3.1892,0.0,0.0,0.0,0.0,0.0,0.0,0.0,0.0,0.0,0.0,0.0,0.0,0.0,0.0,0.0,0.0,0.0,0.0,0.0,0.0,0.0,0.0,0.0,0.0,0.0,0.0,0.0,0.0,0.0,0.0,0.0,0.0,0.0,0.0,0.0,0.0,0.0,0.0,0.0,0.0,0.0,0.0,0.0,0.0,0.0,0.0,0.0,0.0,0.0,0.0,0.0,0.0,0.0,0.0,0.0,0.0,0.0,0.0,0.0,0.0,0.0,0.0,0.0,0.0,0.0,0.0,0.0,0.0,0.0,0.0,0.0,0.0,0.0,0.0,0.0,0.0,0.0,0.0,0.0,0.0,0.0,0.0,0.0,0.0,0.0,0.0,0.0,0.0,0.0,0.0,0.0,0.0,0.0,0.0,0.0,0.0,0.0,0.0,0.0,0.0,0.0,0.0,0.0,-3.0672,-3.0702,-3.0821,-3.0984,-3.0999,-3.1043,-3.1248,-3.1058,-3.097,-3.1117,0.0,0.0,0.0,0.0,0.0,0.0,0.0,0.0,0.0,0.0,0.0,0.0,0.0,0.0,0.0,0.0,0.0,0.0,0.0,0.0,0.0,0.0,0.0,0.0,0.0,0.0,0.0,0.0,0.0,0.0,0.0,0.0,0.0,0.0,0.0,0.0,0.0,0.0,0.0,0.0,0.0,0.0,0.0,0.0,0.0,0.0,0.0,0.0,0.0,0.0,0.0,0.0,0.0,0.0,0.0,0.0,0.0,0.0,0.0,0.0,0.0,0.0,0.0,0.0,0.0,0.0,0.0,0.0,0.0,0.0,0.0,0.0,0.0,0.0,0.0,0.0,0.0,0.0,0.0,0.0,0.0,0.0,0.0,0.0,0.0,0.0,0.0,0.0,0.0,0.0,0.0,0.0,0.0,0.0,0.0,0.0,0.0,0.0,0.0,0.0,0.0,0.0,-3.0598,-3.0598,-3.0642,-3.0702,-3.0642,-3.0642,-3.0702,-3.0642,-3.0598,-3.0598,0.0,0.0,0.0,0.0,0.0,0.0,0.0,0.0,0.0,0.0,0.0,0.0,0.0,0.0,0.0,0.0,0.0,0.0,0.0,0.0,0.0,0.0,0.0,0.0,0.0,0.0,0.0,0.0,0.0,0.0,0.0,0.0,0.0,0.0,0.0,0.0,0.0,0.0,0.0,0.0,0.0,0.0,0.0,0.0,0.0,0.0,0.0,0.0,0.0,0.0,0.0,0.0,0.0,0.0,0.0,0.0,0.0,0.0,0.0,0.0,0.0,0.0,0.0,0.0,0.0,0.0,0.0,0.0,0.0,0.0,0.0,0.0,0.0,0.0,0.0,0.0,0.0,0.0,0.0,0.0,0.0,0.0,0.0,0.0,0.0,0.0,0.0,0.0,0.0,0.0,0.0,0.0,0.0,0.0,0.0,0.0,0.0,0.0,0.0,0.0,0.0,0.0,-3.0598,-3.0598,-3.0598,-3.0598,-3.0598,-3.0598,-3.0598,-3.0598,-3.0598,-3.0598,0.0,0.0,0.0,0.0,0.0,0.0,0.0,0.0,0.0,0.0,0.0,0.0,0.0,0.0,0.0,0.0,0.0,0.0,0.0,0.0,0.0,0.0,0.0,0.0,0.0,0.0,0.0,0.0,0.0,0.0,0.0,0.0,0.0,0.0,0.0,0.0,0.0,0.0,0.0,0.0,0.0,0.0,0.0,0.0,0.0,0.0,0.0,0.0,0.0,0.0,0.0,0.0,0.0,0.0,0.0,0.0,0.0,0.0,0.0,0.0,-2.6147,0.0,0.0,0.0,0.0,0.0,0.0,0.0,0.0,0.0,0.0,0.0,0.0,0.0,0.0,0.0,0.0,0.0,0.0,0.0,0.0,0.0,0.0,0.0,0.0,0.0,0.0,0.0,0.0,0.0,0.0,0.0,0.0,0.0,0.0,0.0,0.0,0.0,0.0,0.0,0.0,0.0,-3.0598,-3.0598,-3.0598,-3.0598,-3.0598,-3.0598,-3.0598,-3.0598,-3.0598,-3.0598,-3.0598,0.0,0.0,0.0,0.0,0.0,0.0,0.0,0.0,0.0,0.0,0.0,0.0,0.0,0.0,0.0,0.0,0.0,0.0,0.0,0.0,0.0,0.0,0.0,0.0,0.0,0.0,0.0,0.0,0.0,0.0,0.0,0.0,0.0,0.0,0.0,0.0,0.0,0.0,0.0,0.0,0.0,0.0,0.0,0.0,0.0,0.0,0.0,0.0,0.0,0.0,0.0,0.0,0.0,0.0,0.0,0.0,0.0,0.0,0.0,0.0,-2.6499,0.0,0.0,0.0,0.0,0.0,0.0,0.0,0.0,0.0,0.0,0.0,0.0,0.0,0.0,0.0,0.0,0.0,0.0,0.0,0.0,0.0,0.0,0.0,0.0,0.0,0.0,0.0,0.0,0.0,0.0,0.0,0.0,0.0,0.0,0.0,0.0,0.0,0.0,0.0,0.0,-3.0598,-3.0598,-3.0598,-3.0598,-3.0598,-3.0598,-3.0598,-3.0598,-3.0598,-3.0598,-3.0598,0.0,0.0,0.0,0.0,0.0,0.0,0.0,0.0,0.0,0.0,0.0,0.0,0.0,0.0,0.0,0.0,0.0,0.0,0.0,0.0,0.0,0.0,0.0,0.0,0.0,0.0,0.0,0.0,0.0,0.0,0.0,0.0,0.0,0.0,0.0,0.0,0.0,0.0,0.0,0.0,0.0,0.0,0.0,0.0,0.0,0.0,0.0,0.0,0.0,0.0,0.0,0.0,0.0,-2.6788,-2.6788,-2.6788,-2.6788,-2.6788,-2.6788,-2.6788,-2.6675,-2.6499,-2.6499,0.0,0.0,0.0,0.0,0.0,0.0,0.0,0.0,0.0,0.0,0.0,0.0,0.0,0.0,0.0,0.0,0.0,0.0,0.0,0.0,0.0,0.0,0.0,0.0,-2.7736,-2.7484,-2.8019,0.0,0.0,0.0,0.0,0.0,0.0,0.0,0.0,0.0,0.0,0.0,-3.0598,-3.0598,-3.0598,-3.0598,-3.0598,-3.0598,-3.0598,-3.0598,-3.0598,-3.0598,-3.0477,-3.0447,0.0,0.0,0.0,0.0,0.0,0.0,0.0,0.0,0.0,0.0,0.0,0.0,0.0,0.0,0.0,0.0,0.0,0.0,0.0,0.0,0.0,0.0,0.0,0.0,0.0,0.0,0.0,0.0,0.0,0.0,0.0,0.0,-2.6015,-2.6396,0.0,0.0,0.0,0.0,0.0,0.0,0.0,0.0,0.0,0.0,0.0,0.0,0.0,-2.7406,-2.7883,-2.7896,-2.7896,-2.7896,-2.7896,-2.7896,-2.7896,-2.7896,-2.7896,-2.7896,-2.7896,0.0,-2.6499,-2.6499,0.0,0.0,0.0,0.0,0.0,0.0,0.0,0.0,0.0,0.0,0.0,0.0,0.0,0.0,0.0,0.0,0.0,0.0,0.0,0.0,0.0,0.0,-2.6521,-2.6714,-2.6679,-2.6658,0.0,-2.767,-2.8524,-2.8634,-2.8666,0.0,0.0,0.0,0.0,0.0,0.0,0.0,-3.0598,-3.0598,-3.0598,-3.0598,-3.0598,-3.0598,-3.0598,-3.0598,-3.0598,-3.0598,-3.0068,-2.9716,-2.9716,-2.9716,0.0,0.0,0.0,0.0,0.0,0.0,0.0,0.0,0.0,0.0,0.0,0.0,0.0,0.0,0.0,0.0,0.0,0.0,0.0,0.0,0.0,0.0,0.0,0.0,0.0,0.0,0.0,0.0,0.0,-2.6084,-2.628,-2.6499,-2.643,-2.6396,0.0,0.0,0.0,0.0,0.0,0.0,0.0,0.0,0.0,-2.7733,-2.7745,-2.7858,-2.8109,-2.8411,-2.8561,-2.8537,-2.89,-2.9051,-2.9051,-2.9051,-2.8875,-2.8561,-2.8561,-2.8109,-2.7381,-2.7381,-2.7381,-2.7356,0.0,0.0,0.0,0.0,-2.6499,-2.6499,-2.6499,-2.6499,-2.6499,-2.6499,0.0,0.0,0.0,0.0,0.0,0.0,0.0,-2.6499,0.0,0.0,-2.6499,-2.6499,-2.6499,-2.6499,-2.6499,-2.6973,-2.7484,0.0,-2.7953,-2.8149,-2.8857,0.0,0.0,0.0,0.0,-2.9425,-2.9425,-2.9425,-2.9563,-2.9993,-3.0038,-3.0038,-3.0038,-3.0038,-2.987,-2.9439,-2.9142,-2.8985,-2.8985,-2.8985,-2.8985,0.0,0.0,0.0,0.0,0.0,0.0,0.0,0.0,0.0,0.0,0.0,0.0,0.0,0.0,0.0,0.0,0.0,0.0,0.0,0.0,0.0,0.0,0.0,0.0,0.0,0.0,0.0,0.0,-2.5886,-2.6198,-2.6198,-2.6198,-2.6226,0.0,0.0,0.0,0.0,0.0,0.0,-2.6845,-2.7324,-2.7691,-2.7826,-2.7923,-2.8058,-2.818,-2.8584,-2.8909,-2.9167,-2.964,-2.9957,-3.0206,-3.0206,-2.9967,-2.9553,-2.9553,-2.9327,-2.89,-2.8335,-2.8109,-2.8059,-2.7657,-2.7494,-2.7444,-2.7065,-2.6914,-2.6914,-2.6914,-2.6914,-2.6914,-2.6914,-2.6914,-2.6914,-2.6914,0.0,0.0,0.0,0.0,-2.6914,-2.6914,-2.6914,-2.6914,-2.6914,-2.6914,-2.6914,-2.6914,-2.6914,-2.7,0.0,-2.7229,-2.749,-2.8317,0.0,0.0,0.0,0.0,-2.892,-2.892,-2.892,-2.9162,-2.9692,-2.9617,-2.9519,-2.9519,-2.9411,-2.9093,-2.8524,-2.833,-2.8247,-2.8247,-2.8247,-2.8247,-2.8247,0.0,0.0,0.0,0.0,0.0,0.0,0.0,0.0,0.0,0.0,0.0,0.0,0.0,0.0,0.0,0.0,0.0,0.0,0.0,0.0,0.0,0.0,0.0,0.0,0.0,0.0,0.0,0.0,0.0,-2.5382,-2.5382,0.0,0.0,0.0,0.0,-2.5532,-2.5601,-2.5601,-2.5601,-2.6055,-2.6548,-2.703,-2.747,-2.7939,-2.8471,-2.8505,-2.8997,-2.9929,-2.9953,-3.0477,-3.1311,-3.1311,-3.1298,-3.126,-3.126,-3.1248,-3.106,-2.8963,-2.8109,-2.8109,-2.8072,-2.8059,-2.8059,-2.8034,-2.8021,-2.8021,-2.8021,-2.8021,-2.8021,-2.8021,-2.8021,-2.8021,-2.8021,-2.8021,0.0,0.0,-2.8021,-2.8021,-2.8021,-2.8021,-2.8021,-2.8021,-2.8021,-2.8021,-2.8021,-2.8021,-2.7744,0.0,-2.6555,-2.6925,-2.81,0.0,-2.8718,-2.9929,-3.0112,-3.0112,-3.0112,-3.0112,-3.0126,-3.016,-2.9666,-2.93,-2.93,-2.885,-2.8524,-2.8492,-2.7887,-2.7537,-2.7537,-2.7537,-2.7537,-2.7537,-2.8182,0.0,0.0,0.0,0.0,0.0,0.0,0.0,0.0,0.0,0.0,0.0,0.0,0.0,0.0,0.0,0.0,0.0,0.0,0.0,0.0,0.0,0.0,0.0,0.0,0.0,0.0,0.0,0.0,-2.5408,-2.5408,0.0,-2.5675,-2.5421,-2.5474,-2.5898,-2.628,-2.6599,-2.6889,-2.7409,-2.7752,-2.7977,-2.8117,-2.8448,-2.8939,-2.9269,-2.978,-3.0428,-3.081,-3.1143,-3.1449,-3.1151,-3.0808,-3.0477,-3.0178,-2.9846,-2.9479,-2.8692,-2.9096,-3.0181,-2.9854,-2.9503,-2.9151,-2.8775,-2.8411,-2.8109,-2.8109,-2.8109,-2.8109,-2.8109,-2.8109,-2.8109,-2.8109,-2.8109,-2.8109,-2.8109,-2.8109,-2.8109,-2.8109,-2.8109,-2.8109,-2.8109,-2.8109,-2.8109,-2.8109,-2.8109,-2.7996,-2.7595,-2.7519,-2.7689,-2.8117,-2.8178,-2.8326,-2.8769,-2.8831,-2.8831,-2.8831,-2.8831,-2.8996,-2.9443,-2.9315,-2.9183,-2.9183,-2.8998,-2.8549,-2.7799,-2.7511,-2.722,-2.6863,-2.685,-2.685,-2.685,-2.7095,-2.7196,0.0,0.0,0.0,0.0,0.0,0.0,0.0,0.0,0.0,0.0,0.0,0.0,0.0,0.0,0.0,0.0,0.0,0.0,0.0,0.0,0.0,0.0,0.0,0.0,0.0,0.0,-2.5093,-2.5093,-2.5093,-2.5228,-2.5526,-2.5332,-2.5396,-2.6047,-2.6442,-2.6762,-2.7093,-2.7712,-2.8099,-2.8099,-2.8375,-2.8695,-2.898,-2.9347,-2.9855,-3.0474,-3.0858,-3.1196,-3.1508,-3.1165,-3.0834,-3.0502,-3.016,-2.9828,-2.952,-2.952,-3.0179,-3.112,-3.0243,-2.9683,-2.933,-2.8913,-2.856,-2.8283,-2.8628,-2.8935,-2.9176,-2.882,-2.8744,-2.8667,-2.8334,-2.8462,-2.8744,-2.8744,-2.8986,-2.9214,-2.9214,-2.9214,-2.9214,-2.9214,-2.9076,-2.895,-2.895,-2.88,-2.8674,-2.8674,-2.836,-2.816,-2.8348,-2.8386,-2.8448,-2.8649,-2.8674,-2.8674,-2.8674,-2.8674,-2.8848,-2.9301,-2.9145,-2.9029,-2.9029,-2.8862,-2.8426,-2.7618,-2.7394,-2.7153,-2.6788,-2.66,-2.6499,-2.6499,-2.6499,-2.6499,-2.6499,0.0,0.0,0.0,0.0,0.0,0.0,0.0,0.0,0.0,0.0,0.0,0.0,0.0,0.0,0.0,0.0,0.0,0.0,0.0,0.0,0.0,0.0,0.0,-2.335,-2.3868,-2.4313,-2.4313,-2.4324,-2.4704,-2.5608,-2.4977,-2.4954,-2.5834,-2.5962,-2.5927,-2.5937,-2.6853,-2.7351,-2.7351,-2.8152,-2.8618,-2.8628,-2.8628,-2.9137,-3.0084,-3.0084,-3.0588,-3.147,-3.1458,-3.1447,-3.1447,-3.1435,-3.1424,-3.1424,-3.1424,-3.1128,-3.0593,-2.9154,-2.8548,-2.8525,-2.8525,-2.8514,-2.8632,-2.9616,-3.055,-3.1169,-3.0259,-2.9966,-2.9785,-2.8815,-2.9168,-2.9966,-3.0008,-3.0633,-3.1345,-3.1386,-3.1386,-3.1386,-3.1386,-3.0997,-3.0633,-3.0633,-3.0218,-2.9842,-2.9842,-2.8963,-2.8373,-2.8838,-2.8913,-2.9151,-2.9704,-2.9792,0.0,-2.9792,-2.9792,-2.9792,-2.9792,-2.9289,-2.8913,-2.8913,-2.8461,-2.8147,-2.8134,-2.7632,-2.7318,-2.7341,-2.6813,-2.6512,-2.6499,-2.6499,-2.6499,-2.6499,0.0,0.0,0.0,0.0,0.0,0.0,0.0,0.0,0.0,0.0,0.0,0.0,0.0,0.0,0.0,0.0,0.0,0.0,0.0,0.0,0.0,0.0,-2.4414,-2.4166,-2.4325,-2.4441,-2.4441,-2.4734,-2.5038,-2.53,-2.5448,-2.5751,-2.6376,-2.6739,-2.7024,-2.7345,-2.7924,-2.8245,-2.8245,-2.8483,-2.8773,-2.9104,-2.9114,-2.9433,-3.0024,-3.0024,-3.0167,-3.0391,-3.0051,-2.9891,-2.987,-2.953,-2.9381,-2.9381,-2.9381,-2.9296,-2.9251,-2.9937,-2.9736,-2.9095,-2.9095,-2.8811,-2.8545,-2.8815,-2.906,-2.923,-2.8986,-2.89,-2.8858,-2.8589,-2.8674,-2.9071,-2.9785,-3.0175,-3.055,-3.1223,-3.1386,-3.1386,-3.1386,-3.1286,-3.1173,-3.1173,-3.106,-3.0947,-3.0947,-3.0696,-3.0281,-2.9666,-2.9553,-2.9616,-2.9767,-2.9792,0.0,-2.9792,-2.9792,-2.9792,-2.9792,-2.9654,-2.9553,-2.9553,-2.9415,-2.9151,-2.87,-2.8561,-2.8298,-2.7896,-2.7392,-2.6901,-2.6499,-2.6499,-2.6499,0.0,0.0,0.0,0.0,0.0,0.0,0.0,0.0,0.0,0.0,0.0,0.0,0.0,0.0,0.0,0.0,0.0,0.0,0.0,0.0,0.0,0.0,-2.4411,-2.4497,-2.4497,-2.4497,-2.4569,-2.4766,-2.5024,-2.5334,-2.5751,-2.6196,-2.6651,-2.7107,-2.7562,-2.7945,-2.8204,-2.8649,-2.8897,-2.8897,-2.9094,-2.9321,-2.9591,-2.9787,-3.0015,-3.0284,-3.0284,-3.0284,-3.0274,-2.9808,-2.9591,-2.958,-2.9311,-2.9197,-2.9197,-2.9197,-2.9073,0.0,0.0,0.0,0.0,0.0,-2.894,-2.8892,-2.8892,-2.9014,-2.9142,-2.87,-2.8567,-2.8533,-2.8131,-2.8578,-2.9318,-2.991,-3.0668,-3.1404,-3.1964,-3.2102,-3.2102,-3.2102,-3.1913,-3.1738,-3.1738,-3.1549,-3.1386,-3.1386,-3.1386,0.0,-3.057,-3.047,-3.047,-3.047,-3.047,-3.047,-3.047,-3.0269,-3.0143,-3.0143,-2.993,-2.9792,-2.9792,-2.9792,0.0,0.0,0.0,-2.865,-2.8134,-2.7795,0.0,0.0,0.0,-2.6725,-2.6499,-2.6499,0.0,0.0,-2.6499,-2.6499,0.0,0.0,0.0,0.0,0.0,0.0,0.0,0.0,0.0,0.0,0.0,0.0,0.0,0.0,0.0,0.0,-2.4497,-2.4518,-2.4569,-2.458,-2.4724,-2.5137,-2.5272,-2.572,-2.6604,-2.7112,-2.7521,-2.7966,-2.8431,-2.869,-2.869,0.0,0.0,0.0,0.0,-3.0098,-3.0149,-3.0563,-3.076,-3.076,-3.076,-3.076,-3.075,-3.0336,-3.0118,-3.0067,-3.0067,-3.0046,-2.9994,-2.9994,-2.9746,-2.9332,-2.8814,-2.8618,-2.8618,-2.8618,-2.8891,-2.9293,-2.9293,0.0,0.0,-2.897,-2.8657,-2.8438,-2.761,-2.8524,-2.9897,-2.9988,-3.1258,-3.2624,-3.2754,-3.2853,-3.2939,-3.2939,-3.2594,-3.2303,-3.2303,-3.1926,-3.1587,-3.1587,-3.1587,-3.1587,-3.1587,-3.1474,-3.1386,-3.1386,-3.1386,-3.1386,-3.1386,-3.0984,-3.0708,-3.0708,0.0,0.0,-2.9892,-2.988,-2.9854,-2.9792,-2.9315,-2.8775,-2.8222,-2.8197,-2.7946,-2.7394,-2.7369,-2.7165,-2.6688,-2.6612,-2.6587,-2.6587,-2.6524,-2.6499,0.0,0.0,0.0,0.0,0.0,0.0,0.0,0.0,0.0,0.0,0.0,0.0,0.0,0.0,0.0,-2.4497,-2.4497,-2.4631,-2.5003,-2.5055,-2.5086,-2.5179,-2.5865,-2.6573,-2.7123,-2.7531,-2.7986,-2.8442,-2.8907,-2.9166,-2.9166,-2.9611,-3.0036,-3.0408,-3.0501,-3.0729,-3.1112,-3.1205,-3.1247,-3.1247,0.0,0.0,-3.1236,-3.1153,-3.0905,-3.0553,-3.0553,-3.0336,-2.9994,-2.9994,-2.9942,-2.9777,-2.8938,-2.8618,-2.8618,-2.8618,-2.8655,-2.877,-2.877,-2.8806,-2.887,-2.8684,-2.8383,-2.8032,-2.7838,-2.7819,0.0,-2.8771,-2.9268,-2.9715,-3.0531,-3.1303,-3.1901,-3.1901,-3.2395,-3.2918,-3.2918,-3.2817,-3.2797,-3.2797,-3.2797,-3.2797,-3.2797,-3.2001,-3.1386,-3.1386,-3.1386,-3.1386,-3.1386,-3.1298,-3.1248,-3.1248,-3.1148,-3.0922,-3.0495,-3.0457,-3.0269,-2.9817,-2.9691,-2.9365,-2.875,-2.8737,-2.8511,-2.7959,-2.7946,-2.7896,-2.7783,-2.7379,-2.7165,-2.714,-2.67,-2.6499,0.0,0.0,0.0,0.0,0.0,0.0,0.0,0.0,0.0,0.0,0.0,-2.4325,0.0,0.0,-2.4497,-2.4497,-2.4693,-2.4921,-2.5158,-2.5616,-2.5896,-2.5896,-2.6506,-2.7143,-2.7552,-2.8214,-2.8711,-2.8938,-2.9384,-2.9653,-2.9653,-3.0087,-3.045,-3.0677,-3.0915,-3.1143,-3.1381,-3.1598,-3.1712,-3.1712,-3.1712,-3.1712,-3.1702,-3.1474,-3.1247,-3.1029,-3.1029,-3.077,-3.0325,-3.0087,-2.9994,-2.9953,-2.9487,-2.9301,-2.9301,-2.9301,-2.9156,-2.8959,-2.8959,-2.8804,-2.8618,-2.8618,-2.8452,-2.8266,-2.8266,-2.8453,-2.8796,-2.9265,-2.959,-2.9857,-3.0354,-3.0717,-3.1036,-3.1492,-3.1989,-3.2494,-3.2982,-3.3124,-3.3124,-3.3124,-3.3124,-3.3124,-3.3124,-3.2646,-3.2227,-3.2227,-3.2227,-3.2227,-3.2227,-3.1989,-3.18,-3.18,-3.1549,-3.1286,-3.1022,-3.0758,-3.0507,-3.0218,-2.9942,-2.9666,-2.9365,-2.9365,-2.9101,-2.8524,-2.8511,-2.8386,-2.8109,-2.7821,-2.7695,-2.7682,-2.7419,-2.7014,0.0,0.0,0.0,0.0,0.0,0.0,0.0,0.0,-2.4689,-2.4537,-2.4497,-2.4497,-2.4497,-2.4497,-2.4528,-2.4621,-2.4941,-2.5251,-2.5471,-2.6113,-2.6677,-2.6806,-2.7206,-2.7562,-2.8017,-2.8814,-2.9342,-2.9435,-2.9787,-3.0036,-3.0129,-3.0481,-3.077,-3.0946,-3.1309,-3.1547,-3.164,-3.1992,-3.2122,-3.2122,-3.2122,-3.2122,-3.2101,-3.1805,-3.1588,-3.1505,-3.1412,-3.1112,-3.0657,-3.0284,-3.0077,-2.9994,-2.9994,-2.9994,-2.9994,-2.9994,-2.9756,-2.9435,-2.9435,-2.9197,-2.8887,-2.8887,-2.8825,-2.8752,-2.8752,-2.9228,-2.9785,-2.9785,-3.0064,-3.0397,-3.0397,-3.0292,-3.0377,-3.1117,-3.1433,-3.1767,-3.2479,-3.2829,-3.2934,-3.2822,-3.2982,-3.3124,-3.3124,-3.3124,-3.3124,-3.3124,-3.3124,-3.3124,-3.3124,-3.2667,-3.2378,-3.2378,-3.1989,-3.1675,-3.1562,-3.1072,-3.0771,-3.0771,-3.0256,-2.9955,-2.9955,-2.9854,-2.9578,-2.9063,-2.9051,-2.8875,-2.8436,-2.8323,-2.826,-2.826,-2.816,-2.7632,-2.3797,-2.397,-2.4265,-2.4723,-2.453,-2.4278,0.0,0.0,-2.4311,-2.4464,-2.4497,-2.4497,-2.4497,-2.4497,-2.4631,-2.5044,-2.5158,-2.5513,-2.631,-2.6553,-2.6868,-2.7676,-2.7821,-2.8028,-2.8493,-2.9001,-2.9477,-2.9891,-2.9963,-3.018,-3.0584,-3.0657,-3.105,-3.1802,-3.1884,-3.2101,-3.2571,-3.2576,-3.2597,-3.2597,-3.2597,-3.2597,-3.2597,-3.2602,-3.2354,-3.1884,-3.1547,-3.1112,-3.0677,-3.0626,-3.0367,-2.9994,-2.9994,-2.9994,-2.9994,-2.9994,-2.9963,-2.9922,-2.9922,-2.988,-2.9839,-2.9839,-2.9559,-2.9228,-2.9228,-2.8989,-2.8757,-2.8757,-2.8815,-2.8872,-2.8872,-2.9471,-3.0158,-3.0255,-3.0895,-3.1422,-3.1101,-3.1766,-3.2292,-3.1854,-3.2494,-3.3124,-3.3124,-3.3124,-3.3124,-3.3124,-3.3124,-3.3124,-3.3124,-3.3061,-3.298,-3.298,-3.2973,-3.2679,-3.2164,-3.1625,-3.1298,-3.1298,-3.0821,-3.052,-3.052,-3.0055,-2.9767,-2.9691,-2.9691,-2.9666,-2.9603,-2.9089,-2.88,-2.8787,-2.8335,-2.8047,-2.4196,-2.4282,0.0,0.0,-2.4913,-2.4813,-2.49,-2.4856,-2.4741,-2.4559,-2.4497,-2.4497,-2.4497,-2.4714,-2.4962,0.0,-2.5668,-2.6144,-2.6563,-2.6853,-2.721,-2.7852,-2.8162,-2.8504,-2.897,-2.9435,-2.9787,-2.9984,-2.9994,-3.0191,-3.0657,-3.0946,-3.1381,-3.1967,-3.2246,-3.2483,-3.2669,-3.2669,-3.2669,-3.2669,-3.2669,-3.2669,-3.2669,-3.2669,-3.2566,-3.2359,-3.1961,-3.1661,-3.1433,-3.0905,-3.0574,-3.0367,-3.0098,-2.9994,-2.9994,-2.9994,-2.9994,-2.9994,-2.9994,-2.9994,-2.9994,-2.9994,-2.986,-2.9704,-2.9704,-2.957,-2.9415,-2.9415,-2.9228,-2.9021,-2.9021,-2.9115,-2.9342,-2.9981,-3.0409,-3.0767,-3.1115,-3.154,-3.1949,-3.238,-3.2798,-3.3318,-3.3934,-3.3771,-3.3558,-3.3558,-3.3282,-3.3124,-3.3124,-3.3124,-3.3124,-3.3124,-3.3124,-3.298,-3.2742,-3.2202,-3.1863,-3.1863,-3.1361,-3.1072,-3.1072,-3.0557,-3.0019,-2.9506,-2.9708,-2.9287,-2.8223,-2.8872,-2.9006,-2.8684,-2.8809,-2.8672,-2.4652,0.0,0.0,-2.5075,-2.5096,-2.5003,-2.5003,-2.5003,-2.4941,-2.4735,-2.4683,-2.4724,-2.4848,-2.5137,-2.5451,-2.5585,-2.6144,-2.6656,-2.6781,-2.7206,-2.7614,-2.8059,-2.8524,-2.899,-2.9446,-2.9798,-2.9994,-2.9994,-3.0118,-3.0387,-3.0853,-3.1309,-3.1764,-3.2163,-3.2494,-3.2669,-3.2669,-3.2669,-3.2669,-3.2669,-3.2669,-3.2669,-3.2669,-3.2669,-3.2669,-3.2659,-3.2318,-3.2101,-3.1926,-3.1195,-3.0801,-3.0636,-3.018,-2.9994,-2.9994,-2.9994,-2.9994,-2.9994,-2.9994,-2.9994,-2.9994,-2.9994,-2.9994,-2.9994,-2.9994,-2.9994,-2.9994,-2.9994,-2.9756,-2.9497,-2.9497,-2.9249,-2.9192,-2.9885,-3.0084,-3.024,-3.0754,-3.111,-3.1595,-3.2547,-3.2932,-3.3465,-3.4532,-3.4399,-3.4123,-3.4123,-3.3784,-3.342,-3.3162,-3.3124,-3.3124,-3.3124,-3.3124,-3.3124,-3.3124,-3.2692,-3.2453,-3.2453,-3.1926,-3.1625,-3.1625,-3.0854,-3.011,-2.9419,-2.9343,-2.8621,-2.7181,-2.8281,-2.8582,-2.8131,-2.8727,-2.87,-2.5044,0.0,-2.4611,-2.5075,-2.4848,-2.4518,-2.4518,-2.4518,-2.4642,-2.5075,-2.5168,-2.5303,-2.5761,-2.5889,-2.6055,-2.6501,-2.6594,-2.677,-2.7226,-2.7624,-2.8079,-2.8535,-2.9001,-2.9466,0.0,-2.9984,-2.9994,-2.9994,-3.0408,-3.0864,-3.1329,-3.1774,-3.2173,-3.2638,-3.2669,-3.2669,-3.2669,-3.2669,-3.2669,-3.2669,-3.2669,-3.2669,-3.2669,-3.2669,-3.2669,-3.2669,-3.2659,-3.2401,-3.1946,-3.1547,-3.1091,-3.0636,-3.018,-2.9994,-2.9994,-2.9994,-2.9994,-2.9994,-2.9994,-2.9994,-2.9994,-2.9994,-2.9994,-2.9994,-2.9994,-2.9994,-2.9994,-2.9994,-2.9984,-2.9973,-2.9973,-2.9963,-2.9953,-3.0005,-3.0005,-2.9881,-2.9476,-3.0112,-3.0998,-3.1634,-3.2477,-3.3465,-3.4532,-3.4713,-3.47,-3.47,-3.4675,-3.4286,-3.3219,-3.3124,-3.3124,-3.3124,-3.3124,-3.3124,-3.3124,-3.3056,-3.3056,-3.3056,-3.2503,-3.219,-3.219,-3.0765,-2.9888,-2.9599,-2.864,-2.7917,-2.7389,-2.7431,-2.736,-2.7151,-2.781,-2.7678,-2.4683,0.0,-2.4538,-2.4693,-2.4611,-2.4497,-2.4497,-2.4735,-2.5003,-2.5158,-2.5461,-2.5699,-2.5854,-2.6123,-2.6438,-2.6594,-2.6874,-2.7133,-2.7289,-2.7645,-2.809,-2.8556,-2.9021,0.0,0.0,0.0,0.0,-2.9994,-3.0419,-3.0884,-3.135,-3.1795,-3.2194,-3.2659,-3.2669,-3.2669,-3.2669,-3.2669,-3.2669,-3.2669,-3.2669,-3.2669,-3.2669,-3.2669,-3.2669,-3.2669,-3.2669,-3.2587,-3.238,-3.1692,-3.1288,-3.1071,-3.0294,-2.9994,-2.9994,-2.9994,-2.9994,-2.9994,-2.9994,-2.9994,-2.9994,-2.9994,-2.9994,-2.9994,-2.9994,-2.9994,-2.9994,-2.9994,-2.9994,-2.9994,-2.9994,-2.9994,-2.9994,-2.9994,-2.9994,-2.9953,-2.9798,-3.0005,-3.0559,-3.1478,-3.1883,-3.2476,-3.3524,-3.4005,-3.4333,-3.464,-3.4412,-3.4035,-3.3671,-3.3307,-3.3124,-3.3124,-3.3124,-3.3124,-3.3124,-3.3124,-3.281,-3.2176,-3.2537,-3.2198,-3.0941,-3.0671,-2.9812,-2.8288,-2.8151,-2.7382,-2.5884,-2.6922,-2.7017,-2.6235,-2.6934,-2.6671,-2.4497,-2.4497,-2.4497,-2.4497,-2.4497,-2.4497,-2.4497,-2.4859,-2.523,-2.543,-2.5813,-2.6221,-2.6387,-2.6656,-2.6864,-2.6864,-2.7112,-2.7309,-2.7309,-2.7779,-2.8276,-2.8576,-2.9166,-2.9673,0.0,0.0,0.0,-2.9994,-3.0584,-3.106,-3.136,-3.1961,-3.237,-3.2669,-3.2669,-3.2669,-3.2669,-3.2669,-3.2669,-3.2669,-3.2669,-3.2669,-3.2669,-3.2669,-3.2669,-3.2669,-3.2669,-3.2669,-3.2607,-3.1754,-3.1381,-3.1288,-3.0356,-2.9994,-2.9994,-2.9994,-2.9994,-2.9994,-2.9994,-2.9994,-2.9994,-2.9994,-2.9994,-2.9994,-2.9994,-2.9994,-2.9994,-2.9994,-2.9994,-2.9994,-2.9994,-2.9994,-2.9994,-2.9994,-2.9994,-2.9994,-2.9994,-2.9994,-3.0339,-3.1381,-3.1575,-3.1931,-3.3001,-3.3466,-3.3827,-3.4108,-3.3703,-3.3575,-3.4122,-3.3884,-3.3583,-3.3395,-3.337,-3.3152,-3.2593,-3.2568,-3.2176,-3.1169,-3.1713,-3.148,-3.026,-3.0084,-2.9319,-2.7753,-2.761,-2.675,-2.5205,-2.6218,-2.6293,-2.5576,-2.6236,-2.5978,-2.4497,-2.4497,-2.4497,-2.4497,-2.4497,-2.4497,-2.4497,-2.4879,-2.5378,-2.5792,-2.6314,-2.6781,0.0,0.0,-2.7309,-2.7309,-2.7309,-2.7309,-2.7309,-2.8038,-2.8618,0.0,0.0,0.0,0.0,0.0,0.0,-2.9994,0.0,-3.1381,-3.1381,-3.224,-3.2669,-3.2669,-3.2669,-3.2669,-3.2669,-3.2669,-3.2669,-3.2669,-3.2669,-3.2669,-3.2669,-3.2669,-3.2669,-3.2669,-3.2669,-3.2659,-3.2623,-3.1743,-3.136,-3.1247,-3.0346,-2.9994,-2.9994,-2.9994,-2.9994,-2.9994,-2.9994,-2.9994,-2.9994,-2.9994,-2.9994,-2.9994,-2.9994,-2.9994,-2.9994,-2.9994,-2.9994,-2.9994,-2.9994,-2.9994,-2.9994,-2.9994,-2.9994,-2.9994,-2.9994,-2.9994,-3.0287,-3.133,-3.1524,-3.1841,-3.2939,-3.3101,-3.3151,-3.3201,-3.275,-3.298,-3.4404,-3.459,-3.4377,-3.3852,-3.3846,-3.3244,-3.1709,-3.1572,-3.1149,-3.017,-3.017,-3.0113,-3.0034,-2.913,-2.8376,-2.7829,-2.6935,-2.6142,-2.5419,-2.5419,-2.5295,-2.5097,-2.575,-2.5614,-2.4497,-2.4497,-2.4497,-2.4497,-2.4497,-2.4497,-2.4497,-2.515,-2.574,-2.5899,-2.6563,-2.7164,0.0,0.0,0.0,-2.7309,-2.7309,0.0,-2.7309,-2.8038,0.0,-2.8618,0.0,-2.9994,-2.9994,-2.9994,0.0,0.0,-3.0853,-3.1381,-3.1381,-3.224,-3.2669,-3.2669,-3.2669,-3.2669,-3.2669,-3.2669,-3.2669,-3.2669,-3.2669,-3.2669,-3.2669,-3.2669,-3.2669,-3.2669,-3.2669,-3.2483,-3.2122,-3.1609,-3.1174,-3.0801,-3.0222,-2.9994,-2.9994,-2.9994,-2.9994,-2.9994,-2.9994,-2.9994,-2.9994,-2.9994,-2.9994,-2.9994,-2.9994,-2.9994,-2.9994,-2.9994,-2.9994,-2.9994,-2.9994,-2.9994,-2.9994,-2.9994,-2.9994,-2.9994,-2.9994,-2.9994,-3.0099,-3.0339,-3.0391,-3.0744,-3.1841,-3.2033,-3.2286,-3.3101,-3.3086,-3.2969,-3.3004,-3.3288,-3.3174,-3.2195,-3.2833,-3.2663,-3.1124,-3.0985,-3.0468,-2.9152,-2.9612,-2.9235,-2.7809,-2.7955,-2.7615,-2.66,-2.6332,-2.6003,-2.5605,-2.5605,-2.5428,-2.509,-2.5268,-2.5053,-2.4497,-2.4497,-2.4497,-2.4497,-2.4497,-2.4549,-2.4755,-2.5378,-2.5982,-2.6144,-2.6801,0.0,-2.7309,-2.7309,0.0,0.0,0.0,0.0,-2.7309,-2.7862,-2.839,0.0,-2.9259,0.0,-2.9973,-2.9994,-2.9994,0.0,-3.0667,-3.1164,-3.136,-3.2043,-3.2463,-3.2669,-3.2669,-3.2669,-3.2669,-3.2669,-3.2669,-3.2669,-3.2669,-3.2669,-3.2669,-3.2669,-3.2566,-3.237,0.0,-3.2112,-3.1712,-3.1257,-3.0915,-3.0636,-3.018,-2.9994,-2.9994,-2.9994,-2.9994,-2.9994,-2.9994,-2.9994,-2.9994,-2.9994,-2.9994,-2.9994,-2.9994,-2.9994,-2.9994,-2.9994,-2.9994,-2.9994,-2.9994,-2.9994,-2.9994,-2.9994,-2.9994,-2.9994,-2.9994,-2.9994,-2.9994,-2.9994,-2.9994,-3.0193,-3.0785,-3.0888,-3.1094,-3.1699,-3.1801,-3.1702,-3.1387,-3.2414,-3.2826,-3.1982,-3.2426,-3.2181,-3.0633,-3.0197,-2.9492,-2.8306,-2.8308,-2.7861,-2.6794,-2.7088,-2.6924,-2.61,-2.61,-2.5965,-2.5693,-2.5693,-2.5557,-2.5361,-2.5361,-2.5225,-2.4497,-2.4497,-2.4497,-2.4497,-2.4497,-2.4611,-2.5003,-2.5523,-2.6034,-2.6438,0.0,-2.7309,-2.7309,-2.7309,-2.7309,-2.7309,0.0,-2.7309,-2.7309,-2.7645,-2.809,-2.8556,-2.9021,-2.9487,-2.9953,-2.9994,-2.9994,-2.9994,-3.0367,-3.0801,-3.1257,-3.1764,-3.2194,-3.2659,-3.2669,-3.2669,-3.2669,-3.2669,-3.2669,-3.2669,-3.2669,-3.2638,-3.2633,-3.2633,-3.2328,-3.1895,-3.1895,-3.1702,-3.1257,-3.0853,-3.0646,-3.0553,-3.0149,-2.9994,-2.9994,-2.9994,-2.9994,-2.9994,-2.9994,-2.9994,-2.9994,-2.9994,-2.9994,-2.9994,-2.9994,-2.9994,-2.9994,-2.9994,-2.9994,-2.9994,-2.9994,-2.9994,-2.9994,-2.9994,-2.9994,-2.9994,-2.9994,-2.9994,-2.9994,-2.9994,-2.9994,-2.9994,-2.9994,-2.9994,-2.9994,-2.9994,-2.9994,-2.9994,-2.9994,-3.175,-3.273,-3.2162,-3.2203,-3.1667,-3.0073,-2.9337,-2.8564,-2.7592,-2.6885,-2.6508,-2.6448,-2.64,-2.6304,-2.6052,-2.6052,-2.5917,-2.5693,-2.5693,-2.5693,-2.5693,-2.5693,-2.5693,-2.4497,-2.4497,-2.4497,-2.4497,-2.4497,-2.4518,-2.46,-2.5295,0.0,0.0,-2.6718,-2.7309,-2.7309,-2.7309,-2.7309,-2.7309,-2.7309,-2.7309,-2.7309,-2.7645,-2.809,0.0,-2.9021,-2.9487,-2.9953,-2.9994,0.0,0.0,-3.0067,-3.0315,-3.0781,-3.1588,-3.2194,-3.2659,-3.2669,-3.2669,-3.2669,-3.2669,-3.2669,-3.2669,-3.2669,-3.2473,-3.2101,-3.2101,-3.1919,-3.1495,-3.1495,0.0,-3.0801,-3.0719,-3.046,-3.0108,-3.0025,-2.9994,-2.9994,-2.9994,-2.9994,-2.9994,-2.9994,-2.9994,-2.9994,-2.9994,-2.9994,-2.9994,-2.9994,-2.9994,-2.9994,-2.9994,-2.9994,-2.9994,-2.9994,-2.9994,-2.9994,-2.9994,-2.9994,-2.9994,-2.9994,-2.9994,-2.9994,-2.9994,-2.9994,-2.9994,-2.9994,-2.9994,-2.9994,-2.9994,-2.9994,-2.9994,-2.9994,-3.1094,-3.1502,-3.0534,-3.1211,-3.1016,-2.9279,-2.8972,-2.844,-2.724,-2.6863,-2.6516,-2.6159,-2.5965,-2.583,-2.5781,-2.5781,-2.5732,-2.5693,-2.5693,-2.5693,-2.5693,-2.5693,-2.5693,-2.4497,-2.4497,-2.4497,-2.4497,-2.4497,-2.4559,-2.4797,0.0,0.0,0.0,-2.6635,-2.7019,-2.7258,-2.7309,0.0,-2.7309,-2.7309,-2.7309,-2.7309,-2.7486,0.0,-2.8535,-2.8804,-2.9228,0.0,-2.9994,-2.9994,-2.9994,-2.9994,-3.0191,-3.0657,-3.1329,-3.1795,-3.2023,-3.2023,-3.2023,-3.2023,-3.2023,-3.2023,-3.2023,-3.2023,-3.1909,-3.1702,-3.1702,-3.1454,-3.1019,-3.1019,-3.076,-3.0325,-3.0325,-3.0191,-2.9994,-2.9994,-2.9994,-2.9994,-2.9994,-2.9994,-2.9994,-2.9994,-2.9994,-2.9994,-2.9994,-2.9994,-2.9994,-2.9994,-2.9994,-2.9994,-2.9994,-2.9994,-2.9994,-2.9994,-2.9994,-2.9994,-2.9994,-2.9994,-2.9994,-2.9994,-2.9994,-2.9994,-2.9994,-2.9994,-2.9994,-2.9994,-2.9994,-2.9994,-2.9994,-2.9994,-2.9994,-2.9994,-3.0443,-3.0588,-3.0047,-3.0443,-3.0338,-2.9372,-2.893,-2.841,-2.7662,-2.6962,-2.6468,-2.6261,-2.5898,-2.5693,-2.5693,-2.5693,-2.5693,-2.5693,-2.5693,-2.5693,-2.5693,-2.5693,-2.5693,-2.4497,-2.4497,-2.4497,-2.4497,-2.4497,-2.459,-2.4962,-2.5117,0.0,0.0,-2.6397,-2.6604,-2.7071,-2.7154,-2.7195,0.0,-2.7309,-2.7309,-2.7309,-2.7309,-2.7593,0.0,0.0,0.0,-2.9911,-2.9994,0.0,-2.9994,-2.9994,-3.0191,-3.0657,-3.1029,-3.1278,-3.1381,-3.1381,-3.1381,-3.1381,-3.1381,-3.1381,-3.1381,-3.1381,-3.1329,-3.1226,-3.1226,-3.0977,-3.0532,-3.0532,-3.0336,-2.9994,-2.9994,-2.9994,-2.9994,-2.9994,-2.9994,-2.9994,-2.9994,-2.9994,-2.9994,-2.9994,-2.9994,-2.9994,-2.9994,-2.9994,-2.9994,-2.9994,-2.9994,-2.9994,-2.9994,-2.9994,-2.9994,-2.9994,-2.9994,-2.9994,-2.9994,-2.9994,-2.9994,-2.9994,-2.9994,-2.9994,-2.9942,-2.9942,-2.9942,-2.9827,-2.9889,-2.9889,-2.9837,-2.9837,-2.9837,-2.9837,-2.9837,-2.9837,-2.9837,-2.9889,-2.9774,-2.9501,-2.8925,-2.8381,-2.8021,-2.7174,-2.6582,-2.6396,-2.6055,-2.5781,-2.5693,-2.5693,-2.5693,-2.5693,-2.5693,-2.5693,-2.5693,-2.5693,-2.5693,-2.4497,-2.4497,-2.4497,-2.4497,-2.4497,-2.4507,-2.4549,0.0,0.0,-2.5292,-2.5668,-2.6127,-2.6594,-2.6677,-2.6812,-2.7237,0.0,-2.7309,-2.7309,-2.7309,-2.7593,0.0,0.0,0.0,-2.9911,-2.9994,-2.9994,-2.9994,-2.9994,-3.0191,-3.0657,-3.0729,-3.0946,-3.136,-3.1381,-3.1381,-3.1381,-3.1381,-3.1381,-3.1381,-3.1381,-3.1153,-3.075,-3.075,-3.0501,-3.0056,-3.0056,-3.0036,0.0,-2.9994,-2.9994,-2.9994,-2.9994,-2.9994,-2.9994,-2.9994,-2.9994,-2.9994,-2.9994,-2.9994,-2.9994,-2.9994,-2.9994,-2.9994,-2.9994,-2.9994,-2.9994,-2.9994,-2.9994,-2.9994,-2.9994,-2.9994,-2.9994,-2.9994,-2.9994,-2.9994,-2.9994,-2.9994,-2.9942,-2.9659,-2.9827,-2.9837,-2.929,-2.9448,-2.9554,-2.9237,-2.9185,-2.9185,-2.9185,-2.9185,-2.9185,-2.9185,-2.9448,-2.9501,-2.9185,-2.8847,-2.8394,-2.78,-2.764,-2.7258,-2.6426,-2.6348,-2.6143,-2.5693,-2.5693,-2.5693,-2.5693,-2.5693,-2.5693,-2.5693,-2.5693,-2.5693,-2.4497,-2.4497,-2.4497,-2.4497,-2.4497,-2.4497,-2.4497,0.0,-2.4848,-2.5127,-2.5368,-2.5627,-2.6072,-2.62,-2.6262,-2.6449,-2.6708,0.0,-2.6895,-2.7133,-2.7593,-2.8504,-2.8618,0.0,0.0,0.0,-2.9994,-2.9994,-2.9994,-3.0077,-3.0263,-3.0274,-3.0356,-3.0543,-3.0553,-3.0553,-3.0553,-3.0553,-3.0553,-3.0553,-3.0553,-3.045,-3.0274,-3.0274,-3.017,-2.9994,-2.9994,-2.9994,0.0,-2.9994,-2.9994,-2.9994,-2.9994,-2.9994,-2.9994,-2.9994,-2.9994,-2.9994,-2.9994,-2.9994,-2.9994,-2.9994,-2.9994,-2.9994,-2.9994,-2.9994,-2.9994,-2.9994,-2.9994,-2.9994,-2.9994,-2.9994,-2.9942,-2.9774,-2.9879,-2.9994,-2.9994,-2.9994,-2.9942,-2.9659,-2.9669,-2.9617,-2.9185,-2.9237,-2.9237,-2.9132,-2.9079,-2.9079,-2.9079,-2.9079,-2.9079,-2.9079,-2.9237,-2.9185,-2.8877,-2.8781,-2.8499,-2.811,-2.7803,-2.7562,-2.7229,-2.666,-2.6309,-2.6133,-2.582,-2.5693,-2.5693,-2.5693,-2.5693,-2.5693,-2.5693,-2.5693,-2.4497,-2.4497,-2.4497,-2.4497,-2.4497,-2.4497,0.0,0.0,-2.459,-2.4921,-2.4983,-2.5117,-2.5606,-2.5689,-2.573,-2.5854,0.0,-2.6459,-2.6594,-2.6895,-2.7486,0.0,0.0,-2.898,0.0,-2.9994,-2.9994,-2.9994,-2.9994,-2.9994,-2.9994,-2.9994,-2.9994,-2.9994,-2.9994,-2.9994,-2.9994,-2.9994,-2.9994,-2.9994,-2.9994,-2.9994,-2.9994,-2.9994,-2.9994,-2.9994,-2.9994,-2.9994,0.0,-2.9994,-2.9994,-2.9994,-2.9994,-2.9994,-2.9994,-2.9994,-2.9994,-2.9994,-2.9994,-2.9994,-2.9994,-2.9994,-2.9942,-2.9879,-2.9879,-2.9879,-2.9879,-2.9774,-2.9722,-2.9722,-2.9722,-2.9722,-2.9669,-2.9501,-2.9617,-2.9722,-2.9722,-2.9722,-2.9669,-2.9406,-2.9396,-2.9343,-2.892,-2.892,-2.8973,-2.8867,-2.8867,-2.8867,-2.8867,-2.8867,-2.8867,-2.8867,-2.8867,-2.8824,-2.8727,-2.8631,-2.8514,-2.8291,-2.8018,-2.7793,-2.7718,-2.709,-2.665,-2.6396,-2.6084,-2.582,-2.5693,-2.5693,-2.5693,-2.5693,-2.5693,-2.5693,-2.4497,-2.4497,-2.4497,-2.4497,-2.4497,-2.4497,0.0,-2.4497,-2.4497,-2.4507,-2.4507,-2.4652,-2.5106,-2.5199,-2.5378,-2.5802,-2.5885,0.0,-2.6553,-2.6615,-2.7086,0.0,0.0,-2.898,-2.9911,-2.9994,-2.9994,-2.9994,-2.9994,0.0,-2.9994,-2.9994,-2.9994,-2.9994,-2.9994,-2.9994,-2.9994,-2.9994,-2.9994,-2.9994,-2.9994,-2.9994,-2.9994,-2.9994,-2.9994,-2.9994,-2.9994,-2.9994,0.0,-2.9994,-2.9994,-2.9994,-2.9994,-2.9994,-2.9994,-2.9994,-2.9994,-2.9994,-2.9994,-2.9994,-2.9994,-2.9994,-2.9827,-2.9606,-2.9606,-2.9606,-2.9554,-2.9185,-2.9132,-2.9132,-2.9132,-2.9132,-2.9132,-2.9132,-2.9132,-2.9132,-2.9132,-2.9132,-2.9026,-2.8781,-2.893,-2.892,-2.8398,-2.8514,-2.8621,-2.8344,-2.8291,-2.8291,-2.8291,-2.8291,-2.8291,-2.8291,-2.8291,-2.8398,-2.8684,-2.8461,-2.8291,-2.8291,-2.8291,-2.8096,-2.7738,-2.7708,-2.7307,-2.6406,-2.6387,-2.6172,-2.5693,-2.5693,-2.5693,-2.5693,-2.5693,-2.5693,-2.4497,-2.4497,-2.4497,-2.4497,-2.4497,-2.4497,-2.4497,-2.4497,-2.4497,-2.4497,-2.4497,-2.4549,-2.4693,-2.4714,-2.4766,-2.49,-2.5233,-2.5595,0.0,0.0,0.0,-2.8017,-2.87,-2.9321,0.0,0.0,-2.9994,-2.9994,-2.9994,-2.9994,-2.9994,-2.9994,-2.9994,-2.9994,-2.9994,-2.9994,-2.9994,-2.9994,-2.9994,-2.9994,-2.9994,-2.9994,-2.9994,-2.9994,-2.9994,-2.9994,-2.9994,-2.9994,-2.9994,-2.9994,-2.9994,-2.9994,-2.9994,-2.9994,-2.9994,-2.9994,-2.9994,-2.9994,-2.9994,-2.9994,-2.9994,-2.9774,-2.9669,-2.9501,-2.9089,-2.9089,-2.9237,-2.9132,-2.9079,-2.9079,-2.8877,-2.8983,-2.9026,-2.8877,-2.8983,-2.9079,-2.9079,-2.9079,-2.9026,-2.8727,-2.8781,-2.8727,-2.8344,-2.8344,-2.8408,-2.8291,-2.8291,-2.8291,-2.8291,-2.8291,-2.8291,-2.8291,-2.8291,-2.8344,-2.8408,-2.8354,-2.8291,-2.8291,-2.8291,-2.8232,-2.8096,-2.7875,-2.7591,-2.7266,-2.668,-2.6328,-2.6182,-2.584,-2.5693,-2.5693,-2.5693,-2.5693,0.0,-2.4497,-2.4497,-2.4497,-2.4497,0.0,-2.4497,-2.4497,-2.4497,-2.4497,-2.4497,-2.4497,-2.4497,-2.4497,-2.4497,-2.4497,-2.4745,-2.5137,0.0,0.0,0.0,-2.8028,0.0,0.0,0.0,-2.9994,-2.9994,-2.9994,-2.9994,-2.9994,-2.9994,-2.9994,-2.9994,-2.9994,-2.9994,-2.9994,-2.9994,-2.9994,-2.9994,-2.9994,-2.9994,-2.9994,-2.9994,-2.9994,-2.9994,-2.9994,-2.9994,-2.9994,0.0,-2.9994,-2.9994,-2.9994,-2.9994,-2.9994,-2.9994,-2.9994,-2.9994,-2.9994,-2.9994,-2.9994,-2.9942,-2.9669,-2.9448,-2.9195,-2.8664,-2.8664,-2.8814,-2.8814,-2.8814,-2.8771,-2.8621,-2.8664,-2.8771,-2.8568,-2.8664,-2.8814,-2.8814,-2.8814,-2.8771,-2.8568,-2.8568,-2.8514,-2.8344,-2.8291,-2.8291,-2.8291,-2.8291,-2.8291,-2.8291,-2.8291,-2.8291,-2.8291,-2.8291,-2.8291,-2.8291,-2.8291,-2.8291,-2.8291,-2.8291,-2.8291,-2.8291,-2.8047,-2.7822,-2.7718,-2.72,-2.6709,-2.6387,-2.5947,-2.5693,-2.5693,-2.5693,-2.5693,0.0,-2.4497,-2.4497,0.0,0.0,0.0,-2.4497,-2.4497,0.0,-2.4497,-2.4497,-2.4497,-2.4497,-2.4497,-2.4497,-2.4497,-2.4497,-2.4807,0.0,-2.5982,0.0,0.0,-2.899,0.0,-2.9942,-2.9994,-2.9994,-2.9994,-2.9994,-2.9994,-2.9994,-2.9994,-2.9994,-2.9994,-2.9994,-2.9994,-2.9994,-2.9994,-2.9994,-2.9994,-2.9994,-2.9994,-2.9994,-2.9994,-2.9994,0.0,-2.9994,-2.9994,-2.9994,-2.9994,-2.9994,-2.9994,-2.9994,-2.9994,-2.9994,-2.9994,-2.9994,-2.9994,-2.9994,-2.9994,-2.9942,-2.9606,-2.9142,-2.8631,-2.8398,-2.8291,-2.8291,-2.8291,-2.8291,-2.8291,-2.8291,-2.8291,-2.8291,-2.8291,-2.8291,-2.8291,-2.8291,-2.8291,-2.8291,-2.8291,-2.8291,-2.8291,-2.8291,-2.8291,-2.8291,-2.8291,-2.8291,-2.8291,-2.8291,-2.8291,-2.8291,-2.8291,-2.8291,-2.8291,-2.8291,-2.8291,-2.8291,-2.8291,-2.8291,-2.8291,-2.8291,-2.8291,-2.8105,-2.7767,-2.7738,-2.7297,-2.6387,-2.5977,-2.5713,-2.5693,-2.5693,-2.5693,-2.4497,0.0,-2.4497,-2.4497,-2.4497,-2.4497,0.0,-2.4497,-2.4497,-2.4497,-2.4497,-2.4497,-2.4497,-2.4497,-2.4497,-2.4497,-2.4497,-2.4807,-2.5751,-2.6532,0.0,-2.8483,-2.8711,-2.9094,-2.9911,-2.9994,-2.9994,-2.9994,-2.9994,-2.9994,-2.9994,-2.9994,-2.9994,-2.9994,-2.9994,-2.9994,-2.9994,-2.9994,-2.9994,-2.9994,-2.9994,-2.9994,-2.9994,-2.9994,-2.9994,-2.9994,-2.9994,-2.9994,-2.9994,-2.9994,-2.9994,-2.9994,-2.9994,-2.9994,-2.9994,-2.9994,-2.9994,-2.9994,-2.9994,-2.9889,-2.9617,-2.9099,-2.8674,-2.8398,-2.8291,-2.8291,-2.8291,-2.8291,-2.8291,-2.8291,-2.8291,-2.8291,-2.8291,-2.8291,-2.8291,-2.8291,-2.8291,-2.8291,-2.8291,-2.8291,-2.8291,-2.8291,-2.8291,-2.8291,-2.8291,-2.8291,-2.8291,-2.8291,-2.8291,-2.8291,-2.8291,-2.8291,-2.8291,-2.8291,-2.8291,-2.8291,-2.8291,-2.8291,-2.8291,-2.8291,-2.8291,-2.8291,-2.8252,-2.8144,-2.7885,-2.7297,-2.6387,-2.6289,-2.6064,-2.5693,-2.5693,-2.5693,-2.4497,-2.4497,-2.4497,-2.4497,-2.4497,-2.4497,-2.4497,-2.4497,-2.4497,-2.4497,-2.4497,-2.4497,-2.4497,-2.4497,-2.4497,-2.4497,-2.4497,-2.4807,0.0,0.0,-2.7355,-2.8483,-2.8618,-2.898,0.0,-2.9994,-2.9994,-2.9994,-2.9994,-2.9994,-2.9994,-2.9994,-2.9994,-2.9994,-2.9994,-2.9994,-2.9994,-2.9994,-2.9994,-2.9994,-2.9994,-2.9994,-2.9994,-2.9994,-2.9994,-2.9994,-2.9994,-2.9994,-2.9994,-2.9994,-2.9994,-2.9994,-2.9994,-2.9994,-2.9994,-2.9994,-2.9942,-2.9827,-2.9827,-2.9564,-2.9142,-2.8781,-2.8514,-2.8291,-2.8291,-2.8291,-2.8291,-2.8291,-2.8291,-2.8291,-2.8291,-2.8291,-2.8291,-2.8291,-2.8291,-2.8291,-2.8291,-2.8291,-2.8291,-2.8291,-2.8291,-2.8291,-2.8291,-2.8291,-2.8291,-2.8291,-2.8291,-2.8291,-2.8291,-2.8291,-2.8291,-2.8291,-2.8291,-2.8291,-2.8291,-2.8291,-2.8291,-2.8291,-2.8291,-2.8291,-2.8291,-2.8291,-2.8291,-2.8291,-2.7881,-2.7493,-2.6973,-2.6582,-2.6269,-2.6035,-2.5781,-2.5693,-2.4497,-2.4497,-2.4497,-2.4497,-2.4497,-2.4497,-2.4497,0.0,0.0,0.0,0.0,0.0,-2.4497,-2.4497,0.0,0.0,0.0,0.0,-2.5761,-2.6324,-2.7055,-2.8349,-2.8566,0.0,-2.9808,-2.9953,-2.9994,-2.9994,-2.9994,-2.9994,-2.9994,-2.9994,-2.9994,-2.9994,-2.9994,-2.9994,-2.9994,-2.9994,-2.9994,-2.9994,-2.9994,-2.9994,-2.9994,-2.9994,-2.9994,-2.9994,-2.9994,0.0,-2.9994,-2.9994,-2.9994,-2.9994,-2.9994,-2.9994,-2.9994,-2.9994,-2.9827,-2.9606,-2.9501,-2.9142,-2.8674,-2.8674,-2.8514,-2.8291,-2.8291,-2.8291,-2.8291,-2.8291,-2.8291,-2.8291,-2.8291,-2.8291,-2.8291,-2.8291,-2.8291,-2.8291,-2.8291,-2.8291,-2.8291,-2.8291,-2.8291,-2.8291,-2.8291,-2.8291,-2.8291,-2.8291,-2.8291,-2.8291,-2.8291,-2.8291,-2.8291,-2.8291,-2.8291,-2.8291,-2.8291,-2.8291,-2.8291,-2.8291,-2.8291,-2.8291,-2.8291,-2.8291,-2.8291,-2.8291,-2.7949,-2.7777,-2.7718,-2.6943,-2.6553,-2.6475,-2.6035,-2.5791,-2.4497,-2.4497,-2.4497,-2.4497,-2.4497,-2.4497,-2.4497,-2.4497,0.0,0.0,0.0,0.0,0.0,-2.4497,-2.4497,-2.4497,0.0,-2.5295,0.0,0.0,-2.6931,-2.7914,0.0,-2.8825,-2.9363,-2.9766,-2.9994,-2.9994,-2.9994,-2.9994,-2.9994,-2.9994,-2.9994,-2.9994,-2.9994,-2.9994,-2.9994,-2.9994,-2.9994,-2.9994,-2.9994,-2.9994,-2.9994,-2.9994,-2.9994,-2.9994,0.0,-2.9994,-2.9994,-2.9994,-2.9994,-2.9994,-2.9994,-2.9994,-2.9994,-2.9994,-2.9827,-2.9501,-2.9046,-2.8791,-2.8674,-2.8461,-2.8344,-2.8291,-2.8291,-2.8291,-2.8291,-2.8291,-2.8291,-2.8291,-2.8291,-2.8291,-2.8291,-2.8291,-2.8291,-2.8291,-2.8291,-2.8291,-2.8291,-2.8291,-2.8291,-2.8291,-2.8291,-2.8291,-2.8291,-2.8291,-2.8291,-2.8291,-2.8291,-2.8291,-2.8291,-2.8291,-2.8291,-2.8291,-2.8291,-2.8291,-2.8291,-2.8291,-2.8291,-2.8291,-2.8291,-2.8291,-2.8291,-2.8291,-2.8232,-2.8018,-2.7718,-2.7591,-2.7285,-2.6904,-2.6484,-2.6289,-2.4497,-2.4497,-2.4497,-2.4497,-2.4497,-2.4497,-2.4497,-2.4497,-2.4497,0.0,0.0,0.0,0.0,0.0,-2.4497,-2.4497,0.0,-2.5378,-2.5813,-2.6324,-2.691,0.0,0.0,-2.8794,-2.9259,-2.9725,-2.9994,-2.9994,-2.9994,-2.9994,-2.9994,-2.9994,-2.9994,-2.9994,-2.9994,-2.9994,-2.9994,-2.9994,-2.9994,-2.9994,-2.9994,-2.9994,-2.9994,-2.9994,-2.9994,-2.9994,0.0,-2.9994,-2.9994,-2.9994,-2.9994,-2.9994,-2.9994,-2.9931,-2.9722,-2.9416,-2.9205,-2.9036,-2.8621,-2.8461,-2.8461,-2.8344,-2.8291,-2.8291,-2.8291,-2.8291,-2.8291,-2.8291,-2.8291,-2.8291,-2.8291,-2.8291,-2.8291,-2.8291,-2.8291,-2.8291,-2.8291,-2.8291,-2.8291,-2.8291,-2.8291,-2.8291,-2.8291,-2.8291,-2.8291,-2.8291,-2.8291,-2.8291,-2.8291,-2.8291,-2.8291,-2.8291,-2.8291,-2.8291,-2.8291,-2.8291,-2.8291,-2.8291,-2.8291,-2.8291,-2.8291,-2.8291,-2.8291,-2.8291,-2.8291,-2.8193,-2.7998,-2.7826,-2.7568,-2.7363,-2.6924,-2.6728,-2.4454,-2.4454,-2.4497,-2.4497,-2.4497,-2.4497,-2.4497,-2.4497,-2.4497,-2.4497,0.0,0.0,0.0,-2.4497,-2.4538,-2.4642,-2.4962,-2.542,-2.5968,-2.6387,-2.6915,-2.7676,-2.8173,-2.8628,-2.9094,-2.9559,-2.988,-2.9984,-2.9994,-2.9994,-2.9994,-2.9994,-2.9994,-2.9994,-2.9994,-2.9994,-2.9994,-2.9994,-2.9994,-2.9994,-2.9994,-2.9994,-2.9994,-2.9994,-2.9994,-2.9994,-2.9994,-2.9994,-2.9994,-2.9994,-2.9942,-2.9889,-2.9889,-2.9722,-2.9396,-2.8887,-2.8684,-2.8674,-2.8398,-2.8291,-2.8291,-2.8291,-2.8291,-2.8291,-2.8291,-2.8291,-2.8291,-2.8291,-2.8291,-2.8291,-2.8291,-2.8291,-2.8291,-2.8291,-2.8291,-2.8291,-2.8291,-2.8291,-2.8291,-2.8291,-2.8291,-2.8291,-2.8291,-2.8291,-2.8291,-2.8291,-2.8291,-2.8291,-2.8291,-2.8291,-2.8291,-2.8291,-2.8291,-2.8291,-2.8291,-2.8291,-2.8291,-2.8291,-2.8291,-2.8291,-2.8291,-2.8291,-2.8291,-2.8291,-2.8291,-2.8291,-2.8291,-2.7969,-2.7812,-2.7855,-2.7373,-2.7168,-2.4282,-2.4368,-2.4497,-2.4497,-2.4497,-2.4497,-2.4497,-2.4497,-2.4497,-2.4497,0.0,0.0,0.0,-2.4497,-2.4631,-2.5065,-2.5168,-2.5533,-2.6392,0.0,-2.6801,-2.7299,-2.7696,-2.8152,-2.8618,-2.9083,-2.9528,-2.9963,-2.9994,-2.9994,-2.9994,-2.9994,-2.9994,-2.9994,-2.9994,-2.9994,-2.9994,-2.9994,-2.9994,-2.9994,-2.9994,-2.9994,-2.9994,-2.9994,-2.9994,-2.9994,-2.9994,-2.9994,-2.9994,-2.9994,-2.9827,-2.9606,-2.9606,-2.9448,-2.9079,-2.8834,-2.8684,-2.8674,-2.8398,-2.8291,-2.8291,-2.8291,-2.8291,-2.8291,-2.8291,-2.8291,-2.8291,-2.8291,-2.8291,-2.8291,-2.8291,-2.8291,-2.8291,-2.8291,-2.8291,-2.8291,-2.8291,-2.8291,-2.8291,-2.8291,-2.8291,-2.8291,-2.8291,-2.8291,-2.8291,-2.8291,-2.8291,-2.8291,-2.8291,-2.8291,-2.8291,-2.8291,-2.8291,-2.8291,-2.8291,-2.8291,-2.8291,-2.8291,-2.8291,-2.8291,-2.8291,-2.8291,-2.8291,-2.8291,-2.8291,-2.8291,-2.8291,-2.8262,-2.8252,-2.8232,-2.7812,-2.7669,-2.4368,-2.4325,-2.4325,-2.4454,-2.4411,-2.4325,-2.4454,-2.4411,-2.4325,-2.4454,-2.4411,0.0,0.0,0.0,-2.4652,-2.5117,-2.5461,-2.5854,-2.6532,-2.6733,-2.6934,-2.7241,-2.7558,-2.7963,-2.8516,-2.9032,-2.9497,-2.9953,-2.9994,-2.9994,-2.9994,-2.9994,-2.9994,-2.9994,-2.9994,-2.9994,-2.9994,-2.9994,-2.9994,-2.9994,-2.9994,-2.9994,-2.9994,-2.9994,-2.9994,-2.9994,-2.9994,-2.9889,-2.9774,-2.9774,-2.9564,-2.929,-2.9089,-2.893,-2.8834,-2.8568,-2.8451,-2.8461,-2.8344,-2.8291,-2.8291,-2.8291,-2.7789,-2.7295,-2.8067,-2.7799,-2.7349,-2.8077,-2.8291,-2.8291,-2.8291,-2.8291,-2.8291,-2.8291,-2.8291,-2.8291,-2.8291,-2.8291,-2.8291,-2.8291,-2.8291,-2.8291,-2.8291,-2.8291,-2.8291,-2.8291,-2.8291,-2.8291,-2.8291,-2.8291,-2.8291,-2.8291,-2.8291,-2.8291,-2.8291,-2.8291,-2.8291,-2.8291,-2.8291,-2.8291,-2.8291,-2.8291,-2.8291,-2.8291,-2.8291,-2.8291,-2.8291,-2.8291,-2.8291,-2.8291,-2.8125,-2.8057,-2.4378,-2.4325,-2.4325,-2.4454,-2.4325,-2.4239,-2.4454,-2.4325,-2.4249,-2.4368,-2.4292,-2.4206,-2.4206,0.0,0.0,-2.5224,-2.5644,-2.6138,-2.675,-2.6886,-2.6996,-2.7262,-2.7338,-2.766,-2.8299,-2.868,-2.9125,-2.9735,-2.9777,-2.9839,-2.9984,-2.9994,-2.9994,-2.9994,-2.9994,-2.9994,-2.9994,-2.9994,-2.9994,-2.9994,-2.9994,-2.9994,-2.9994,-2.9994,-2.9942,-2.9879,-2.9879,-2.9722,-2.9448,-2.9448,-2.9237,-2.893,-2.8674,-2.8568,-2.8568,-2.8354,-2.8291,-2.8237,-2.7853,-2.7736,-2.7682,-2.7286,-2.6626,-2.6073,-2.6898,-2.6853,-2.669,-2.752,-2.8014,-2.8237,-2.7843,-2.8014,-2.8291,-2.8291,-2.8291,-2.8291,-2.8291,-2.8291,-2.8291,-2.8291,-2.8291,-2.8291,-2.8291,-2.8291,-2.8291,-2.8291,-2.8291,-2.8291,-2.8291,-2.8291,-2.8291,-2.8291,-2.8291,-2.8291,-2.8291,-2.796,-2.7736,-2.7736,-2.7394,-2.7511,-2.8291,-2.8291,-2.8291,-2.8291,-2.8291,-2.8291,-2.8291,-2.8291,-2.8291,-2.8291,-2.8291,-2.8291,-2.4249,-2.4325,-2.4497,-2.4497,-2.4325,-2.4239,-2.4454,-2.4325,-2.4206,-2.4206,-2.4206,-2.4206,-2.4206,-2.4368,0.0,-2.5466,-2.576,-2.6252,-2.7175,-2.7081,-2.6996,-2.7262,-2.7081,-2.716,-2.7834,-2.7924,-2.8307,-2.9228,-2.9301,-2.9508,-2.9963,-2.9994,-2.9994,-2.9994,-2.9994,-2.9994,-2.9994,-2.9994,-2.9994,-2.9994,-2.9994,-2.9994,-2.9994,-2.9994,-2.9827,-2.9606,-2.9606,-2.9396,-2.9079,-2.9079,-2.893,-2.8684,-2.8408,-2.8291,-2.8291,-2.8291,-2.8291,-2.8121,-2.6907,-2.6472,-2.63,-2.5067,-2.4663,-2.4671,-2.4727,-2.5507,-2.6472,-2.6527,-2.7359,-2.8014,-2.6799,-2.7413,-2.8291,-2.8291,-2.8291,-2.8291,-2.8291,-2.8291,-2.8291,-2.8291,-2.8291,-2.8291,-2.8291,-2.8291,-2.8291,-2.8291,-2.8291,-2.8291,-2.8291,-2.8291,-2.8291,-2.8291,-2.8291,-2.8291,-2.8291,-2.7187,-2.6472,-2.6472,-2.5342,-2.5781,-2.8184,-2.8291,-2.8291,-2.8291,-2.8291,-2.8291,-2.8291,-2.8291,-2.8291,-2.8291,-2.8291,-2.8291,-2.4368,-2.4325,-2.4335,-2.4454,-2.4325,-2.4239,-2.4454,-2.4325,-2.4163,0.0,-2.3927,-2.3927,-2.3927,-2.411,0.0,-2.5661,-2.584,-2.6252,-2.7175,-2.6928,-2.6784,-2.7262,-2.688,-2.6957,-2.7834,-2.7924,-2.8173,-2.8773,-2.9125,-2.9363,-2.9497,-2.9818,-2.9994,-2.9994,-2.9827,-2.9722,-2.9722,-2.9501,-2.9343,-2.9343,-2.9343,-2.9564,-2.9994,-2.9994,-2.9827,-2.9606,-2.9606,-2.929,-2.8781,-2.8611,-2.8504,-2.8398,-2.8344,-2.8291,-2.8184,-2.7359,-2.7015,-2.6853,-2.568,-2.5223,-2.5177,-2.4837,-2.4181,-2.3631,-2.445,-2.4948,-2.5397,-2.6245,-2.7359,-2.8014,-2.6799,-2.6744,-2.7015,-2.7015,-2.7682,-2.8291,-2.8291,-2.8291,-2.8291,-2.8291,-2.8291,-2.8291,-2.8291,-2.8291,-2.8291,-2.8291,-2.8291,-2.8291,-2.8291,-2.8291,-2.796,-2.7133,-2.7015,-2.6681,-2.5836,-2.5452,-2.5223,-2.5223,-2.4893,-2.5003,-2.5726,-2.6572,-2.7015,-2.7015,-2.7853,-2.8291,-2.8291,-2.8291,-2.7853,-2.7015,-2.7015,-2.6572,-2.4454,-2.4411,-2.4325,-2.4454,-2.4411,-2.4325,-2.4454,-2.4325,-2.411,-2.3841,-2.3797,-2.3797,-2.3797,-2.4024,-2.4492,-2.547,-2.5795,-2.6206,-2.7043,-2.6784,-2.6651,-2.7081,-2.6736,-2.6742,-2.7451,-2.7617,-2.7852,-2.8307,-2.8597,-2.8835,-2.9021,-2.9466,-2.9715,-2.9715,-2.9629,-2.9606,-2.9606,-2.929,-2.9079,-2.9079,-2.9079,-2.929,-2.9617,-2.9617,-2.9511,-2.9248,-2.9132,-2.8877,-2.8514,-2.8354,-2.8291,-2.8291,-2.8291,-2.8014,-2.752,-2.6744,-2.6191,-2.5626,-2.4458,-2.4014,-2.3958,-2.3463,-2.2862,-2.2425,-2.3079,-2.3631,-2.4292,-2.5461,-2.6626,-2.7295,-2.6127,-2.6127,-2.6527,-2.6527,-2.7079,-2.7736,-2.8184,-2.8291,-2.8291,-2.8291,-2.8291,-2.8291,-2.8291,-2.8291,-2.8291,-2.8291,-2.8291,-2.813,-2.7628,-2.7574,-2.7124,-2.5908,-2.579,-2.5507,-2.4774,-2.4283,-2.4014,-2.4014,-2.3575,-2.3303,-2.3303,-2.4901,-2.579,-2.579,-2.6509,-2.6898,-2.6898,-2.6898,-2.6509,-2.579,-2.579,-2.5397,-2.4497,-2.4497,-2.4497,-2.4497,-2.4497,-2.4497,-2.4454,-2.4325,-2.411,-2.3841,-2.3754,-2.3754,-2.3797,-2.398,-2.4395,-2.5068,-2.5593,-2.6104,-2.6707,-2.662,-2.6592,-2.6853,-2.6651,-2.6602,-2.6853,-2.7129,-2.7427,-2.7782,-2.7855,-2.8061,-2.8435,-2.894,-2.9188,-2.9188,-2.9362,-2.9493,-2.9493,-2.9164,-2.9026,-2.9026,-2.9026,-2.9026,-2.9026,-2.9079,-2.893,-2.8684,-2.8408,-2.8291,-2.8291,-2.8291,-2.8291,-2.8291,-2.8184,-2.7466,-2.6472,-2.6254,-2.5516,-2.4394,-2.3247,-2.2813,-2.2644,-2.1539,-2.1211,-2.1211,-2.1211,-2.2036,-2.3199,-2.4236,-2.5516,-2.6191,-2.4901,-2.5461,-2.63,-2.6191,-2.6364,-2.6799,-2.7906,-2.8237,-2.8291,-2.8291,-2.8291,-2.8291,-2.8291,-2.8291,-2.8291,-2.8291,-2.8184,-2.7736,-2.6636,-2.6409,-2.5908,-2.4671,-2.4561,-2.4505,-2.4394,-2.3416,-2.2813,-2.2813,-2.1824,-2.1211,-2.1211,-2.3351,-2.4561,-2.4561,-2.4671,-2.4727,-2.4727,-2.4727,-2.4671,-2.4561,-2.4561,-2.4505,-2.4497,-2.4497,-2.4497,-2.4497,-2.4497,-2.4411,-2.4013,-2.4067,-2.411,-2.3841,-2.3493,-2.3353,-2.3711,-2.3841,-2.4109,-2.4852,-2.5478,-2.5935,-2.6034,-2.6275,-2.6496,-2.6602,-2.6544,-2.6602,-2.6853,-2.7129,-2.7256,-2.7129,-2.7447,-2.7633,-2.7499,-2.8115,-2.844,-2.844,-2.8645,-2.8733,-2.8733,-2.8549,-2.8451,-2.8451,-2.8451,-2.8451,-2.8504,-2.892,-2.893,-2.8684,-2.8408,-2.8291,-2.8291,-2.8291,-2.8291,-2.8184,-2.7241,-2.6744,-2.6309,-2.442,-2.3584,-2.3199,-2.1987,-2.1596,-2.1539,-2.1268,-2.1211,-2.1211,-2.1211,-2.2036,-2.303,-2.3303,-2.4863,-2.6027,-2.3911,-2.4236,-2.4846,-2.3975,-2.5139,-2.6581,-2.6853,-2.7628,-2.8291,-2.8291,-2.8291,-2.8291,-2.8291,-2.8291,-2.8291,-2.8291,-2.752,-2.6799,-2.6527,-2.568,-2.4616,-2.3472,-2.3359,-2.2974,-2.2036,-2.1702,-2.1596,-2.1596,-2.1318,-2.1211,-2.1211,-2.2587,-2.3359,-2.3359,-2.4228,-2.4727,-2.4727,-2.4727,-2.4228,-2.3359,-2.3359,-2.2862,-2.4497,-2.4497,-2.4497,-2.4497,-2.4282,-2.4024,-2.411,-2.3797,-2.359,-2.3754,-2.3624,-2.3493,-2.3754,-2.3797,-2.3991,-2.4621,-2.5202,-2.5595,-2.5631,-2.6024,-2.6304,-2.6304,-2.6304,-2.64,-2.6699,-2.6938,-2.7034,-2.69,-2.7105,-2.714,-2.6897,-2.7409,-2.7741,-2.7741,-2.7874,-2.8051,-2.8323,-2.8091,-2.8096,-2.8291,-2.8291,-2.8291,-2.8291,-2.8611,-2.8664,-2.8514,-2.8344,-2.8291,-2.8291,-2.8291,-2.8291,-2.8237,-2.7628,-2.7025,-2.63,-2.4467,-2.3472,-2.2813,-2.1596,-2.1211,-2.1211,-2.1211,-2.1211,-2.1211,-2.1211,-2.1653,-2.2263,-2.2813,-2.3863,-2.4531,-2.3311,-2.3416,-2.3575,-2.2425,-2.3919,-2.579,-2.6364,-2.7466,-2.8291,-2.8291,-2.8291,-2.813,-2.752,-2.6952,-2.6563,-2.6563,-2.6063,-2.5461,-2.4918,-2.43,-2.3472,-2.2263,-2.215,-2.1873,-2.1261,-2.1211,-2.1211,-2.1211,-2.1211,-2.1211,-2.1211,-2.1816,-2.215,-2.215,-2.2692,-2.3023,-2.3023,-2.3023,-2.2692,-2.215,-2.215,-2.1816,-2.4497,-2.4497,-2.4497,-2.4497,-2.4067,-2.3807,-2.4325,-2.3667,-2.3144,-2.3667,-2.3754,-2.3754,-2.3797,-2.3797,-2.3918,-2.4333,-2.4776,-2.5107,-2.5189,-2.5664,-2.5982,-2.5933,-2.6051,-2.6197,-2.64,-2.6651,-2.6794,-2.6757,-2.6747,-2.6651,-2.6362,-2.6751,-2.7,-2.7,-2.7212,-2.7459,-2.7877,-2.7734,-2.7894,-2.8184,-2.8262,-2.8291,-2.8291,-2.8291,-2.8291,-2.8291,-2.8067,-2.796,-2.796,-2.7736,-2.7789,-2.796,-2.7511,-2.6907,-2.6018,-2.4625,-2.3519,-2.2539,-2.1546,-2.1211,-2.1211,-2.1211,-2.1211,-2.1211,-2.1211,-2.1211,-2.1432,-2.2425,-2.2813,-2.2974,-2.2757,-2.2813,-2.27,-2.1489,-2.2862,-2.4671,-2.5689,-2.6853,-2.7672,-2.7672,-2.7672,-2.7349,-2.6354,-2.5342,-2.4727,-2.4727,-2.4505,-2.4069,-2.3143,-2.2813,-2.232,-2.1325,-2.1211,-2.1211,-2.1211,-2.1211,-2.1211,-2.1211,-2.1211,-2.1211,-2.1211,-2.1211,-2.1211,-2.1211,-2.1211,-2.1211,-2.1211,-2.1211,-2.1211,-2.1211,-2.1211,-2.1153,-2.4497,-2.4497,-2.4497,-2.4497,-2.4411,-2.4325,-2.4249,-2.3937,-2.3711,-2.3797,-2.3667,-2.359,-2.3754,-2.3797,-2.3817,-2.3878,-2.4313,-2.4436,-2.4091,-2.4937,-2.5498,-2.5251,-2.5767,-2.6091,-2.6149,-2.64,-2.6448,-2.6197,-2.6197,-2.611,-2.583,-2.6063,-2.6238,-2.6238,-2.6665,-2.6923,-2.6973,-2.744,-2.7748,-2.7806,-2.8115,-2.8291,-2.8291,-2.8291,-2.8291,-2.8237,-2.7187,-2.6744,-2.6636,-2.5617,-2.579,-2.6527,-2.4475,-2.4189,-2.4671,-2.2474,-2.1596,-2.1432,-2.1268,-2.1211,-2.1211,-2.1211,-2.1211,-2.1211,-2.1211,-2.1211,-2.1211,-2.1375,-2.2207,-2.2757,-2.1702,-2.2207,-2.27,-2.1489,-2.2263,-2.3255,-2.3424,-2.4347,-2.5168,-2.5168,-2.5168,-2.5113,-2.4948,-2.4837,-2.4727,-2.4727,-2.3847,-2.3199,-2.303,-2.2101,-2.1375,-2.1211,-2.1211,-2.1211,-2.1211,-2.1211,-2.1211,-2.1211,-2.1211,-2.1211,-2.1211,-2.1211,-2.1211,-2.1211,-2.1211,-2.1211,-2.1211,-2.1211,-2.1211,-2.1211,-2.1211,-2.1024,-2.4497,-2.4239,-2.4024,-2.4411,-2.4239,-2.4024,-2.4282,-2.3884,-2.3537,-2.3937,-2.3937,-2.3937,-2.4024,-2.3884,-2.3797,-2.3797,-2.3993,-2.4023,-2.3834,-2.4408,-2.4935,-2.5086,-2.5377,-2.5689,-2.6071,-2.6352,-2.64,-2.61,-2.6245,-2.6159,-2.5742,-2.583,-2.5868,-2.5868,-2.6055,-2.633,-2.6566,-2.6859,-2.7239,-2.7718,-2.8096,-2.8291,-2.8291,-2.8291,-2.7906,-2.7241,-2.6744,-2.6127,-2.5452,-2.4948,-2.5003,-2.5397,-2.4347,-2.4283,-2.4505,-2.2805,-2.2207,-2.2093,-2.1432,-2.1211,-2.1211,-2.1211,-2.1335,-2.1452,-2.1269,-2.1335,-2.1445,-2.1262,-2.1596,-2.1873,-2.1318,-2.1596,-2.1873,-2.1325,-2.1596,-2.1979,-2.1979,-2.3407,-2.4727,-2.4727,-2.4172,-2.3743,-2.3743,-2.3191,-2.2749,-2.2749,-2.2312,-2.1979,-2.1979,-2.1546,-2.1211,-2.1211,-2.1211,-2.1211,-2.1211,-2.1211,-2.1211,-2.1211,-2.1211,-2.1211,-2.1211,-2.1211,-2.1211,-2.1211,-2.1211,-2.1211,-2.1211,-2.1211,-2.1211,-2.1211,-2.1024,-2.0838,-2.4239,-2.3894,-2.3634,-2.411,-2.398,-2.3894,-2.4368,-2.3927,-2.3537,-2.4153,-2.4249,-2.4206,-2.4249,-2.4067,-2.3884,-2.3797,-2.3771,-2.3712,-2.3623,-2.3994,-2.4375,-2.4707,-2.4979,-2.529,-2.5806,-2.6137,-2.6207,-2.6004,-2.6159,-2.612,-2.5742,-2.5693,-2.5693,-2.5693,-2.5693,-2.5889,-2.6221,-2.6338,-2.6816,-2.7718,-2.7988,-2.8193,-2.8291,-2.8291,-2.7628,-2.6472,-2.6191,-2.5351,-2.4228,-2.3958,-2.4014,-2.4228,-2.3902,-2.4014,-2.4125,-2.2974,-2.2539,-2.2425,-2.1482,-2.1211,-2.1211,-2.1211,-2.1379,-2.154,-2.1379,-2.1445,-2.154,-2.1379,-2.1276,-2.1211,-2.1211,-2.1211,-2.1211,-2.1211,-2.1211,-2.1211,-2.1211,-2.2587,-2.3791,-2.3791,-2.3135,-2.2539,-2.2539,-2.1816,-2.1211,-2.1211,-2.1211,-2.1211,-2.1211,-2.1211,-2.1211,-2.1211,-2.1211,-2.1211,-2.1211,-2.1211,-2.1211,-2.1211,-2.1211,-2.1211,-2.1211,-2.1211,-2.1211,-2.1211,-2.1211,-2.1211,-2.1211,-2.1089,-2.1089,-2.1089,-2.073,-2.0551,-2.3547,-2.3547,-2.3503,-2.3547,-2.398,-2.4454,-2.4497,-2.4325,-2.4206,-2.4454,-2.4325,-2.4249,-2.4454,-2.4335,-2.411,-2.3841,-2.3644,-2.3446,-2.3174,-2.3545,-2.3828,-2.3857,-2.4617,-2.5125,-2.5145,-2.5488,-2.5742,-2.5732,-2.5732,-2.5732,-2.5693,-2.5693,-2.5693,-2.5693,-2.5693,-2.5703,-2.5723,-2.6182,-2.6816,-2.7718,-2.7738,-2.791,-2.8291,-2.8291,-2.7628,-2.6418,-2.5287,-2.4125,-2.2974,-2.1873,-2.2036,-2.2974,-2.1816,-2.2093,-2.2926,-2.1767,-2.1261,-2.1268,-2.1211,-2.1211,-2.1211,-2.1211,-2.1218,-2.1291,-2.1584,-2.1467,-2.1298,-2.1591,-2.1452,-2.1211,-2.1211,-2.1211,-2.1211,-2.1211,-2.1211,-2.1211,-2.1211,-2.1318,-2.1375,-2.1375,-2.1318,-2.1261,-2.1261,-2.1268,-2.1211,-2.1211,-2.1211,-2.1211,-2.1211,-2.1211,-2.1211,-2.1211,-2.1211,-2.1211,-2.1211,-2.1211,-2.1211,-2.1211,-2.1211,-2.1211,-2.1211,-2.1211,-2.1211,-2.1211,-2.1211,-2.1211,-2.1211,-2.0902,-2.0716,-2.0723,-2.0443,-2.0155,-2.3503,-2.3135,-2.2906,-2.3363,-2.3677,-2.398,-2.4411,-2.4454,-2.4411,-2.4497,-2.4454,-2.4411,-2.4497,-2.4335,-2.411,-2.3841,-2.3624,-2.3416,-2.3144,-2.3227,-2.3477,-2.375,-2.4062,-2.4355,-2.4629,-2.5191,-2.5503,-2.5303,-2.5711,-2.5868,-2.5684,-2.5693,-2.5693,-2.5693,-2.5693,-2.5693,-2.5693,-2.6172,-2.6543,-2.6855,-2.7454,-2.7796,-2.79,-2.8164,-2.7232,-2.5342,-2.4893,-2.4069,-2.2926,-2.171,-2.1432,-2.1816,-2.1375,-2.1489,-2.1816,-2.1375,-2.1211,-2.1211,-2.1211,-2.1211,-2.1211,-2.1211,-2.135,-2.1503,-2.1415,-2.1598,-2.1774,-2.1467,-2.1452,-2.1474,-2.1262,-2.1211,-2.1211,-2.1211,-2.1211,-2.1211,-2.1211,-2.1211,-2.1211,-2.1211,-2.1211,-2.1211,-2.1211,-2.1211,-2.1211,-2.1211,-2.1211,-2.1211,-2.1211,-2.1211,-2.1211,-2.1211,-2.1211,-2.1211,-2.1211,-2.1211,-2.1211,-2.1211,-2.1211,-2.1211,-2.1211,-2.1211,-2.1211,-2.1211,-2.0967,-2.0902,-2.0902,-2.078,-2.0601,-2.0443,-2.0097,-1.9924,-2.3178,-2.2765,-2.2536,-2.2994,-2.3135,-2.3353,-2.4282,-2.4325,-2.4239,-2.4454,-2.4497,-2.4497,-2.4497,-2.4368,-2.4196,-2.3841,-2.3667,-2.3493,-2.3135,-2.3091,-2.3198,-2.3535,-2.3701,-2.3896,-2.418,-2.4739,-2.511,-2.5106,-2.5523,-2.5759,-2.5684,-2.5693,-2.5693,-2.5693,-2.5693,-2.5693,-2.5693,-2.6025,-2.624,-2.6396,-2.6963,-2.7444,-2.7676,-2.7569,-2.666,-2.5287,-2.4458,-2.3463,-2.2312,-2.1539,-2.1211,-2.1211,-2.1211,-2.1211,-2.1211,-2.1211,-2.1211,-2.1211,-2.1211,-2.1211,-2.1211,-2.1211,-2.1357,-2.1511,-2.1408,-2.1679,-2.195,-2.1628,-2.1613,-2.165,-2.143,-2.1291,-2.1211,-2.1211,-2.1211,-2.1211,-2.1211,-2.1211,-2.1211,-2.1211,-2.1211,-2.1211,-2.1211,-2.1211,-2.1211,-2.1211,-2.1211,-2.1211,-2.1211,-2.1211,-2.1211,-2.1211,-2.1211,-2.1211,-2.1211,-2.1211,-2.1197,-2.1191,-2.1314,-2.1358,-2.1351,-2.1474,-2.1474,-2.1351,-2.1162,-2.0872,-2.0591,-2.0428,-2.0328,-2.0097,-1.9815,-1.9649,0.0,0.0,0.0,-2.2438,-2.2438,-2.2799,-2.4143,-2.398,-2.3721,-2.4325,-2.4454,-2.4497,-2.4454,-2.4497,-2.4325,-2.3884,-2.3797,-2.3667,-2.3188,-2.3091,-2.3101,-2.3091,-2.3516,-2.3769,-2.3769,-2.415,-2.457,-2.5047,-2.5106,-2.5254,-2.5645,-2.5684,-2.5693,-2.5693,-2.5693,-2.5693,-2.5693,-2.5693,-2.5947,-2.6367,-2.6387,-2.6826,-2.7575,-2.6399,-2.6079,-2.6236,-2.3958,-2.2305,-2.1211,-2.1211,-2.1211,-2.1211,-2.1211,-2.1211,-2.1211,-2.1211,-2.1211,-2.1211,-2.1211,-2.1211,-2.1211,-2.1211,-2.1211,-2.1269,-2.1591,-2.1686,-2.1759,-2.2081,-2.195,-2.1708,-2.1701,-2.1452,-2.1211,-2.1211,-2.1211,-2.1211,-2.1211,-2.1211,-2.1211,-2.1211,-2.1211,-2.1211,-2.1211,-2.1211,-2.1211,-2.1211,-2.1211,-2.1211,-2.1211,-2.1211,-2.1211,-2.1211,-2.1211,-2.1211,-2.1225,-2.1225,-2.1191,-2.1224,-2.1539,-2.1663,-2.1721,-2.1989,-2.1989,-2.1668,-2.1668,-2.1226,-2.034,-1.998,-1.9822,-1.9758,-1.954,-1.9424,-2.3396,0.0,0.0,0.0,0.0,0.0,-2.3677,-2.4024,-2.397,-2.3159,-2.3777,-2.4368,-2.3851,-2.4067,-2.4249,-2.411,-2.4067,-2.3937,-2.346,-2.3373,-2.3319,-2.3135,-2.3198,-2.3276,-2.3276,-2.3711,-2.4014,0.0,-2.4717,-2.5174,-2.5244,-2.5557,-2.5693,-2.5693,-2.5693,-2.5693,-2.5693,-2.5693,-2.5752,-2.5918,-2.624,-2.6102,-2.5601,-2.558,-2.4845,-2.3577,-2.2925,-2.2081,-2.1211,-2.1211,-2.1211,-2.1211,-2.1211,-2.1211,-2.1211,-2.1211,-2.1211,-2.1211,-2.1211,-2.1211,-2.1211,-2.1211,-2.1211,-2.1225,-2.1313,-2.1511,-2.1715,-2.1803,-2.1935,-2.1993,-2.1759,-2.1452,-2.1211,-2.1211,-2.1211,-2.1211,-2.1211,-2.1211,-2.1211,-2.1211,-2.1211,-2.1211,-2.1211,-2.1211,-2.1211,-2.1211,-2.1211,-2.1211,-2.1211,-2.1211,-2.1211,-2.1211,-2.1211,-2.1191,-2.119,-2.1212,-2.1224,-2.1226,-2.1314,-2.1343,-2.1368,-2.1435,-2.1435,-2.1368,-2.1074,-2.0851,-2.0588,-2.0287,-1.9917,-1.954,-1.9424,-1.9424,0.0,0.0,0.0,0.0,0.0,0.0,-2.3797,-2.398,-2.3927,-2.3387,-2.3917,-2.4368,-2.398,-2.4153,-2.4282,-2.4206,-2.4206,-2.4024,-2.359,-2.3503,-2.3406,-2.3135,-2.3091,-2.3091,-2.3091,-2.3369,-2.3594,-2.3779,-2.4258,-2.4734,-2.5096,-2.5488,-2.5693,-2.5693,-2.5693,-2.5693,-2.5693,-2.5274,-2.502,-2.502,-2.4861,-2.4556,-2.4059,-2.3817,-2.3227,-2.229,-2.1899,-2.1481,-2.102,-2.1152,-2.1211,-2.1211,-2.1211,-2.1211,-2.1211,-2.1211,-2.1211,-2.1211,-2.1211,-2.1211,-2.1211,-2.1211,-2.1211,-2.1211,-2.1211,-2.1437,-2.1693,-2.1693,-2.1935,-2.2103,-2.1781,-2.1554,-2.1379,-2.124,-2.1211,-2.1211,-2.1211,-2.1211,-2.1211,-2.1211,-2.1211,-2.1211,-2.1211,-2.1211,-2.1211,-2.1211,-2.1211,-2.1211,-2.1211,-2.1089,-2.0967,-2.0967,-2.091,-2.0866,-2.0953,-2.0975,-2.1047,-2.1173,-2.1315,-2.1378,-2.1388,-2.1511,-2.1511,-2.1388,-2.1211,-2.0965,-2.072,-2.0422,-2.0005,-1.9546,-1.9426,-1.9424,0.0,0.0,0.0,0.0,0.0,0.0,-2.4029,-2.3899,-2.3631,-2.3925,-2.417,-2.4253,-2.4114,-2.4241,-2.4282,-2.4163,-2.4163,-2.4024,-2.359,-2.3503,-2.3406,-2.3135,-2.3091,-2.3091,-2.3091,-2.3091,-2.3257,-2.3691,-2.376,-2.416,-2.5067,-2.5449,-2.5635,-2.5693,-2.5693,-2.5635,-2.5528,-2.4599,-2.4038,-2.389,-2.2935,-2.2604,-2.2817,-2.1807,-2.1491,-2.1725,-2.092,-2.0633,-2.0691,-2.102,-2.1181,-2.1211,-2.1211,-2.1211,-2.1211,-2.1211,-2.1211,-2.1211,-2.1211,-2.1211,-2.1211,-2.1211,-2.1211,-2.1211,-2.1211,-2.1415,-2.1657,-2.173,-2.1957,-2.2125,-2.1869,-2.1752,-2.162,-2.1335,-2.124,-2.1211,-2.1211,-2.1211,-2.1211,-2.1211,-2.1211,-2.1211,-2.1211,-2.1211,-2.1211,-2.1211,-2.1153,-2.1146,-2.1146,-2.0845,-2.0658,-2.0658,-2.0471,-2.0445,-2.0694,-2.075,-2.0835,-2.1108,-2.1389,-2.1507,-2.1538,-2.1859,-2.1859,-2.1544,-2.1544,-2.1296,-2.0722,-2.0394,-2.01,-1.984,-1.9553,-1.9412,0.0,0.0,0.0,0.0,0.0,0.0,-2.307,-2.3392,-2.3217,-2.1165,-2.1991,-2.2798,-2.1714,-2.2553,-2.345,-2.359,-2.3937,-2.4024,-2.359,-2.3503,-2.3406,-2.3135,-2.3091,-2.3091,-2.3091,-2.3091,-2.313,-2.3218,-2.3594,-2.416,-2.5067,-2.5146,-2.5361,-2.5674,-2.5693,-2.5274,-2.4402,-2.4187,-2.3692,-2.2793,-2.2584,-2.2072,-2.1339,-2.1091,-2.0719,-2.0224,-2.003,-2.0098,-2.03,-2.0684,-2.0976,-2.1211,-2.1211,-2.1211,-2.1211,-2.1211,-2.1211,-2.1211,-2.1211,-2.1211,-2.1211,-2.1211,-2.1211,-2.1211,-2.1211,-2.1254,-2.1415,-2.1942,-2.2132,-2.222,-2.2396,-2.2067,-2.1679,-2.1613,-2.1401,-2.1211,-2.1211,-2.1211,-2.1211,-2.1211,-2.1211,-2.1211,-2.1211,-2.1211,-2.1211,-2.1211,-2.0967,-2.078,-2.078,-2.0558,-2.0385,-2.0385,-2.0545,-2.0649,-2.0715,-2.0902,-2.1012,-2.1128,-2.1148,-2.1175,-2.1229,-2.1235,-2.1229,-2.1172,-2.1172,-2.1145,-2.1022,-2.0494,-2.014,-2.014,-1.9853,-1.972,0.0,0.0,0.0,-2.4497,0.0,0.0,0.0,-2.3481,-2.3233,-2.1652,-2.2083,-2.2466,-2.176,-2.227,-2.2794,-2.279,-2.3188,-2.3416,-2.3198,-2.346,-2.3493,-2.3144,-2.3091,-2.3091,-2.3091,-2.3091,-2.2916,-2.2457,-2.2801,-2.3025,-2.3018,-2.3852,-2.4421,-2.4639,-2.4799,-2.4648,-2.4088,-2.3035,-2.2232,-2.1684,-2.1132,-2.0637,-2.0078,-2.0078,-1.9926,-1.958,-1.9749,-1.9857,-2.0025,-2.0347,-2.0676,-2.0984,-2.1145,-2.1211,-2.1211,-2.1211,-2.1211,-2.1211,-2.1211,-2.1211,-2.1211,-2.1211,-2.1211,-2.1211,-2.1211,-2.1211,-2.1313,-2.1803,-2.2059,-2.222,-2.2367,-2.2176,-2.1898,-2.1737,-2.1445,-2.1211,-2.1211,-2.1211,-2.1211,-2.1211,-2.1089,-2.096,-2.096,-2.096,-2.091,-2.0795,-2.0615,-2.0493,-2.0493,-2.0213,-2.004,-2.004,-2.0141,-2.0324,-2.0449,-2.0747,-2.0982,-2.1089,-2.1109,-2.1109,-2.1109,-2.1109,-2.1109,-2.1109,-2.1109,-2.1109,-2.1109,-2.0815,-2.0595,-2.0448,-2.0154,-2.0013,0.0,0.0,0.0,0.0,0.0,-2.4122,0.0,0.0,0.0,-2.2443,-2.2311,-2.2134,-2.1822,-2.1972,0.0,-2.1551,0.0,0.0,0.0,-2.3217,0.0,-2.3232,-2.3135,-2.3091,-2.3091,-2.3091,-2.2784,-2.2015,-2.2078,-2.188,-2.1215,-2.2369,-2.3126,-2.3281,-2.355,-2.361,-2.3493,-2.1785,-2.0783,-2.0585,-1.9732,-1.9279,-1.9279,-1.9279,-1.9279,-1.9346,-1.961,-1.972,-1.9749,-2.0018,-2.0296,-2.0574,-2.0962,-2.1152,-2.1211,-2.1211,-2.1211,-2.1211,-2.1211,-2.1211,-2.1211,-2.1211,-2.1211,-2.1211,-2.1211,-2.1211,-2.1276,-2.1606,-2.1884,-2.2118,-2.2235,-2.2228,-2.2118,-2.1788,-2.1416,-2.1161,-2.1046,-2.1031,-2.1031,-2.1031,-2.0788,-2.0658,-2.0716,-2.0658,-2.0551,-2.0328,-2.027,-2.0213,-2.0213,-1.9931,-1.97,-1.97,-1.985,-1.9973,-2.0153,-2.0555,-2.0862,-2.1096,-2.1109,-2.1109,-2.1109,-2.1109,-2.1109,-2.1109,-2.1109,-2.1109,-2.1109,-2.1109,-2.0989,-2.0755,-2.0454,-2.0321,0.0,0.0,0.0,0.0,-2.3592,0.0,0.0,0.0,-2.174,-2.0486,0.0,-2.0583,-1.9283,0.0,0.0,0.0,0.0,0.0,-2.1209,-2.2621,-2.3711,-2.3493,-2.3232,-2.3091,-2.3091,-2.3091,-2.3047,-2.296,-2.223,-2.187,-2.2126,-2.1534,-2.1518,-2.2146,-2.2207,-2.1902,-2.1285,-2.1038,-2.0431,-1.948,-1.9376,-1.9279,-1.9279,-1.9279,-1.9279,-1.9279,-1.9316,-1.9382,-1.936,-1.9735,-1.9889,-1.9984,-2.0537,-2.0955,-2.1211,-2.1211,-2.1211,-2.1211,-2.1211,-2.1211,-2.1211,-2.1211,-2.1211,-2.1211,-2.1211,-2.1211,-2.1276,-2.1606,-2.1723,-2.1876,-2.2432,-2.2381,-2.2109,-2.1752,-2.1434,-2.1067,-2.0506,-2.0392,-2.0392,-2.0392,-2.0385,-2.0443,-2.0658,-2.0493,-2.0328,-2.027,-2.004,-1.9873,-1.9873,-1.9649,-1.9424,-1.9424,-1.9853,-2.0194,-2.0227,-2.0742,-2.1076,-2.1109,-2.1109,-2.1109,-2.1109,-2.1109,-2.1109,-2.1109,-2.1109,-2.1109,-2.1109,-2.1109,-2.1089,-2.1049,-2.0762,-2.0621,0.0,0.0,0.0,0.0,0.0,0.0,-2.251,0.0,-2.1501,0.0,0.0,0.0,0.0,0.0,0.0,0.0,-1.9436,-2.0218,0.0,0.0,-2.1823,-2.2755,0.0,0.0,-2.3091,-2.3091,-2.2862,-2.2325,-2.1917,-2.1266,-2.0326,-2.0686,-2.0755,-2.0495,-2.0867,-2.0915,-2.0626,-2.0184,-1.9732,-1.9279,-1.9279,-1.9279,-1.9279,-1.9279,-1.9279,-1.9279,-1.9279,-1.9279,-1.9286,-1.9478,-1.9647,-1.9845,-2.0062,-2.0479,-2.0947,-2.1137,-2.1211,-2.1211,-2.1211,-2.1211,-2.1211,-2.1211,-2.1211,-2.1211,-2.1211,-2.1211,-2.124,-2.1379,-2.1547,-2.1803,-2.225,-2.2144,-2.1862,-2.1728,-2.1306,-2.0817,-2.0398,-2.027,-2.027,-2.027,-2.0155,-2.004,-2.0155,-2.0097,-1.9989,-1.9822,-1.9649,-1.9591,-1.9591,-1.9482,-1.9424,-1.9424,-1.9887,-2.0173,-2.0173,-2.0768,-2.1109,-2.1109,-2.1109,-2.1109,-2.1109,-2.1109,-2.1109,-2.1109,-2.1109,-2.1109,-2.1109,-2.1109,-2.1109,-2.1109,-2.0982,-2.0929,-2.3406,0.0,0.0,0.0,0.0,0.0,0.0,0.0,0.0,0.0,0.0,0.0,0.0,0.0,0.0,0.0,0.0,-1.8886,0.0,-1.9948,0.0,0.0,0.0,0.0,0.0,-2.296,-2.2731,-2.1784,-2.1695,-2.0962,-1.9285,-1.9899,-2.0044,-1.9399,-1.9656,-1.9867,-1.9969,-1.9508,-1.9279,-1.9279,-1.9279,-1.9279,-1.9279,-1.9279,-1.9279,-1.9279,-1.9279,-1.9279,-1.9279,-1.9279,-1.9463,-1.9691,-1.9779,-2.0047,-2.0508,-2.0925,-2.113,-2.1211,-2.1211,-2.1211,-2.1211,-2.1211,-2.1211,-2.1211,-2.1211,-2.1211,-2.1211,-2.1211,-2.1379,-2.1635,-2.1838,-2.1797,-2.1668,-2.1488,-2.1079,-2.059,-2.0233,-2.0109,-2.0046,-2.0046,-1.9873,-1.97,-1.97,-1.97,-1.9649,-1.9424,-1.9424,-1.9424,-1.9424,-1.9424,-1.9424,-1.9424,-1.9887,-2.0173,-2.0173,-2.0768,-2.1109,-2.1109,-2.1109,-2.1109,-2.1109,-2.1109,-2.1109,-2.1109,-2.1109,-2.1109,-2.1109,-2.1109,-2.1109,-2.1109,-2.1109,-2.1109,0.0,0.0,0.0,-2.3135,0.0,0.0,0.0,0.0,-2.0625,0.0,0.0,0.0,0.0,0.0,0.0,0.0,0.0,0.0,0.0,0.0,0.0,0.0,0.0,0.0,0.0,-2.2555,-2.2731,-2.1784,-2.1695,-2.1239,-2.0187,-1.9347,-1.9009,-1.9304,-1.8667,-1.8517,-1.884,-1.9162,-1.9279,-1.9279,-1.9279,-1.9279,-1.9279,-1.9279,-1.9279,-1.9279,-1.9279,-1.9279,-1.9279,-1.9279,-1.9286,-1.9323,-1.9691,-1.983,-1.9925,-2.0501,-2.094,-2.1211,-2.1211,-2.1211,-2.1211,-2.1211,-2.1211,-2.1211,-2.1211,-2.1211,-2.1211,-2.1211,-2.1218,-2.1241,-2.1248,-2.1439,-2.1555,-2.0893,-2.0705,-2.0556,-1.9965,-1.9625,-1.9424,-1.9424,-1.9424,-1.9424,-1.9424,-1.9424,-1.9424,-1.9424,-1.9424,-1.9424,-1.9424,-1.9424,-1.9424,-1.9424,-1.9887,-2.0173,-2.0173,-2.0768,-2.1109,-2.1109,-2.1109,-2.1109,-2.1109,-2.1109,-2.1109,-2.1109,-2.1109,-2.1109,-2.1109,-2.1109,-2.1109,-2.1109,-2.1109,-2.1109,-2.3091,-2.3091,-2.3091,-2.3091,0.0,0.0,0.0,0.0,0.0,0.0,0.0,0.0,0.0,0.0,0.0,0.0,0.0,0.0,0.0,0.0,0.0,0.0,0.0,0.0,0.0,-2.1373,-2.132,-2.165,-2.1105,-2.0286,-1.933,-1.8972,-1.8574,-1.7997,-1.7945,-1.8138,-1.8467,-1.8789,-1.906,-1.9279,-1.9279,-1.9279,-1.9279,-1.9279,-1.9279,-1.9279,-1.9279,-1.9279,-1.9279,-1.9279,-1.9279,-1.9286,-1.9396,-1.9625,-1.9889,-2.0486,-2.0794,-2.0918,-2.1137,-2.1211,-2.1211,-2.1211,-2.1211,-2.1211,-2.1211,-2.1211,-2.1146,-2.0902,-2.0845,-2.0859,-2.0941,-2.0963,-2.0953,-2.0772,-2.053,-2.0268,-1.986,-1.9573,-1.9424,-1.9424,-1.9424,-1.9424,-1.9424,-1.9424,-1.9424,-1.9424,-1.9424,-1.9424,-1.9424,-1.9424,-1.9424,-1.9424,-1.9887,-2.0173,-2.0173,-2.0768,-2.1109,-2.1109,-2.1109,-2.1109,-2.1109,-2.1109,-2.1109,-2.1109,-2.1109,-2.1109,-2.1109,-2.1109,-2.1109,-2.1109,-2.1109,-2.1109,-2.3091,-2.3091,-2.3091,-2.3091,-2.2779,0.0,-2.251,0.0,-2.1807,0.0,0.0,0.0,0.0,0.0,0.0,0.0,0.0,0.0,0.0,-1.9697,0.0,0.0,0.0,0.0,0.0,-2.0917,-2.0737,-2.0656,-2.0692,-2.015,-1.888,-1.8788,-1.8519,-1.7831,-1.783,-1.7969,-1.8299,-1.8628,-1.895,-1.9279,-1.9279,-1.9279,-1.9279,-1.9279,-1.9279,-1.9279,-1.9279,-1.9279,-1.9279,-1.9279,-1.9279,-1.9279,-1.9279,-1.9403,-1.972,-2.0311,-2.0698,-2.0925,-2.1137,-2.1211,-2.1211,-2.1211,-2.1211,-2.1211,-2.1211,-2.1211,-2.1146,-2.078,-2.0716,-2.0651,-2.0515,-2.0506,-2.0521,-2.051,-2.0275,-2.0054,-1.9973,-1.9646,-1.9424,-1.9424,-1.9424,-1.9424,-1.9424,-1.9424,-1.9424,-1.9424,-1.9424,-1.9424,-1.9424,-1.9424,-1.9424,-1.9424,-1.9887,-2.0314,-2.0528,-2.0889,-2.1109,-2.1109,-2.1109,-2.1109,-2.1109,-2.1109,-2.1109,-2.1109,-2.1109,-2.1109,-2.1109,-2.1109,-2.1109,-2.1109,-2.1109,-2.1109]},{"header":{"parameterUnit":"m.s-1","parameterCategory":1,"la1":30.6,"la2":29.2853,"lo1":-89.7004,"lo2":-87.6739,"dy":0.0162,"dx":0.0183,"nx":112,"ny":82,"refTime":"2023-08-30T18:00:00:Z","depth":0,"parameterNumber":3,"parameterNumberName":"V-component_of_WINDS"},"data":[0.0,0.0,0.0,0.0,0.0,0.0,0.0,0.0,0.0,0.0,0.0,0.0,0.0,0.0,0.0,0.0,0.0,0.0,0.0,0.0,0.0,0.0,0.0,0.0,0.0,0.0,0.0,0.0,0.0,0.0,0.0,0.0,0.0,0.0,0.0,0.0,0.0,0.0,0.0,0.0,0.0,0.0,0.0,0.0,0.0,0.0,0.0,0.0,0.0,0.0,0.0,0.0,0.0,0.0,0.0,0.0,0.0,0.0,0.0,0.0,0.0,0.0,0.0,0.0,0.0,0.0,0.0,0.0,0.0,0.0,0.0,0.0,0.0,0.0,0.0,0.0,0.0,0.0,0.0,0.0,0.0,0.0,0.0,0.0,0.0,0.0,0.0,0.0,0.0,0.0,2.0757,2.1176,2.0829,2.0602,2.0602,2.0576,2.0601,2.0663,0.0,0.0,0.0,0.0,0.0,0.0,0.0,0.0,0.0,0.0,0.0,0.0,0.0,0.0,0.0,0.0,0.0,0.0,0.0,0.0,0.0,0.0,0.0,0.0,0.0,0.0,0.0,0.0,0.0,0.0,0.0,0.0,0.0,0.0,0.0,0.0,0.0,0.0,0.0,0.0,0.0,0.0,0.0,0.0,0.0,0.0,0.0,0.0,0.0,0.0,0.0,0.0,0.0,0.0,0.0,0.0,0.0,0.0,0.0,0.0,0.0,0.0,0.0,0.0,0.0,0.0,0.0,0.0,0.0,0.0,0.0,0.0,0.0,0.0,0.0,0.0,0.0,0.0,0.0,0.0,0.0,0.0,0.0,0.0,0.0,0.0,0.0,0.0,0.0,0.0,0.0,0.0,0.0,0.0,0.0,0.0,0.0,0.0,0.0,0.0,0.0,0.0,0.0,0.0,2.1621,2.1694,2.1631,2.16,2.16,2.1386,2.1434,2.1832,0.0,0.0,0.0,0.0,0.0,0.0,0.0,0.0,0.0,0.0,0.0,0.0,0.0,0.0,0.0,0.0,0.0,0.0,0.0,0.0,0.0,0.0,0.0,0.0,0.0,0.0,0.0,0.0,0.0,0.0,0.0,0.0,0.0,0.0,0.0,0.0,0.0,0.0,0.0,0.0,0.0,0.0,0.0,0.0,0.0,0.0,0.0,0.0,0.0,0.0,0.0,0.0,0.0,0.0,0.0,0.0,0.0,0.0,0.0,0.0,0.0,0.0,0.0,0.0,0.0,0.0,0.0,0.0,0.0,0.0,0.0,0.0,0.0,0.0,0.0,0.0,0.0,0.0,0.0,0.0,0.0,0.0,0.0,0.0,0.0,0.0,0.0,0.0,0.0,0.0,0.0,0.0,0.0,0.0,0.0,0.0,0.0,0.0,0.0,0.0,0.0,0.0,0.0,2.1937,2.1959,2.2402,2.2073,2.1845,2.1959,2.1837,2.1918,2.2241,2.1526,0.0,0.0,0.0,0.0,0.0,0.0,0.0,0.0,0.0,0.0,0.0,0.0,0.0,0.0,0.0,0.0,0.0,0.0,0.0,0.0,0.0,0.0,0.0,0.0,0.0,0.0,0.0,0.0,0.0,0.0,0.0,0.0,0.0,0.0,0.0,0.0,0.0,0.0,0.0,0.0,0.0,0.0,0.0,0.0,0.0,0.0,0.0,0.0,0.0,0.0,0.0,0.0,0.0,0.0,0.0,0.0,0.0,0.0,0.0,0.0,0.0,0.0,0.0,0.0,0.0,0.0,0.0,0.0,0.0,0.0,0.0,0.0,0.0,0.0,0.0,0.0,0.0,0.0,0.0,0.0,0.0,0.0,0.0,0.0,0.0,0.0,0.0,0.0,0.0,0.0,0.0,0.0,0.0,0.0,0.0,0.0,0.0,0.0,0.0,0.0,0.0,0.0,2.2756,2.2531,2.3054,2.2505,2.2111,2.2187,2.2317,2.2429,2.2478,2.2494,0.0,0.0,0.0,0.0,0.0,0.0,0.0,0.0,0.0,0.0,0.0,0.0,0.0,0.0,0.0,0.0,0.0,0.0,0.0,0.0,0.0,0.0,0.0,0.0,0.0,0.0,0.0,0.0,0.0,0.0,0.0,0.0,0.0,0.0,0.0,0.0,0.0,0.0,0.0,0.0,0.0,0.0,0.0,0.0,0.0,0.0,0.0,0.0,0.0,0.0,0.0,0.0,0.0,0.0,0.0,0.0,0.0,0.0,0.0,0.0,0.0,0.0,0.0,0.0,0.0,0.0,0.0,0.0,0.0,0.0,0.0,0.0,0.0,0.0,0.0,0.0,0.0,0.0,0.0,0.0,0.0,0.0,0.0,0.0,0.0,0.0,0.0,0.0,0.0,0.0,0.0,0.0,0.0,0.0,0.0,0.0,0.0,0.0,0.0,0.0,0.0,0.0,2.4084,2.3818,2.3489,2.3128,2.2777,2.2402,2.2995,2.3206,2.2703,2.3478,0.0,0.0,0.0,0.0,0.0,0.0,0.0,0.0,0.0,0.0,0.0,0.0,0.0,0.0,0.0,0.0,0.0,0.0,0.0,0.0,0.0,0.0,0.0,0.0,0.0,0.0,0.0,0.0,0.0,0.0,0.0,0.0,0.0,0.0,0.0,0.0,0.0,0.0,0.0,0.0,0.0,0.0,0.0,0.0,0.0,0.0,0.0,0.0,0.0,0.0,0.0,0.0,0.0,0.0,0.0,0.0,0.0,0.0,0.0,0.0,0.0,0.0,0.0,0.0,0.0,0.0,0.0,0.0,0.0,0.0,0.0,0.0,0.0,0.0,0.0,0.0,0.0,0.0,0.0,0.0,0.0,0.0,0.0,0.0,0.0,0.0,0.0,0.0,0.0,0.0,0.0,0.0,0.0,0.0,0.0,0.0,0.0,0.0,0.0,0.0,0.0,0.0,2.4826,2.4565,0.0,2.4361,2.4011,2.3852,2.4181,2.4397,2.4335,0.0,0.0,0.0,0.0,0.0,0.0,0.0,0.0,0.0,0.0,0.0,0.0,0.0,0.0,0.0,0.0,0.0,0.0,0.0,0.0,0.0,0.0,0.0,0.0,0.0,0.0,0.0,0.0,0.0,0.0,0.0,0.0,0.0,0.0,0.0,0.0,0.0,0.0,0.0,0.0,0.0,0.0,0.0,0.0,0.0,0.0,0.0,0.0,0.0,0.0,0.0,0.0,0.0,0.0,0.0,0.0,0.0,0.0,0.0,0.0,0.0,0.0,0.0,0.0,0.0,0.0,0.0,0.0,0.0,0.0,0.0,0.0,0.0,0.0,0.0,0.0,0.0,0.0,0.0,0.0,0.0,0.0,0.0,0.0,0.0,0.0,0.0,0.0,0.0,0.0,0.0,0.0,0.0,0.0,0.0,0.0,0.0,0.0,0.0,0.0,0.0,0.0,2.6183,2.5789,2.5545,0.0,2.5357,2.5004,2.4898,2.5158,2.5346,2.53,0.0,0.0,0.0,0.0,0.0,0.0,0.0,0.0,0.0,0.0,0.0,0.0,0.0,0.0,0.0,0.0,0.0,0.0,0.0,0.0,0.0,0.0,0.0,0.0,0.0,0.0,0.0,0.0,0.0,0.0,0.0,0.0,0.0,0.0,0.0,0.0,0.0,0.0,0.0,0.0,0.0,0.0,0.0,0.0,0.0,0.0,0.0,0.0,0.0,0.0,0.0,0.0,0.0,0.0,0.0,0.0,0.0,0.0,0.0,0.0,0.0,0.0,0.0,0.0,0.0,0.0,0.0,0.0,0.0,0.0,0.0,0.0,0.0,0.0,0.0,0.0,0.0,0.0,0.0,0.0,0.0,0.0,0.0,0.0,0.0,0.0,0.0,0.0,0.0,0.0,0.0,0.0,0.0,0.0,0.0,0.0,0.0,0.0,0.0,0.0,0.0,0.0,2.7268,2.7113,2.6841,2.6449,2.6045,2.5697,2.5335,2.5814,2.5884,0.0,0.0,0.0,0.0,0.0,0.0,0.0,0.0,0.0,0.0,0.0,0.0,0.0,0.0,0.0,0.0,0.0,0.0,0.0,0.0,0.0,0.0,0.0,0.0,0.0,0.0,0.0,0.0,0.0,0.0,0.0,0.0,0.0,0.0,0.0,0.0,0.0,0.0,0.0,0.0,0.0,0.0,0.0,0.0,0.0,0.0,0.0,0.0,0.0,0.0,0.0,0.0,0.0,0.0,0.0,0.0,0.0,0.0,0.0,0.0,0.0,0.0,0.0,0.0,0.0,0.0,0.0,0.0,0.0,0.0,0.0,0.0,0.0,0.0,0.0,0.0,0.0,0.0,0.0,0.0,0.0,0.0,0.0,0.0,0.0,0.0,0.0,0.0,0.0,0.0,0.0,0.0,0.0,0.0,0.0,0.0,0.0,0.0,0.0,0.0,0.0,0.0,0.0,2.7436,2.7403,2.7268,2.7053,2.7007,2.6926,2.6748,2.6939,2.704,2.6871,0.0,0.0,0.0,0.0,0.0,0.0,0.0,0.0,0.0,0.0,0.0,0.0,0.0,0.0,0.0,0.0,0.0,0.0,0.0,0.0,0.0,0.0,0.0,0.0,0.0,0.0,0.0,0.0,0.0,0.0,0.0,0.0,0.0,0.0,0.0,0.0,0.0,0.0,0.0,0.0,0.0,0.0,0.0,0.0,0.0,0.0,0.0,0.0,0.0,0.0,0.0,0.0,0.0,0.0,0.0,0.0,0.0,0.0,0.0,0.0,0.0,0.0,0.0,0.0,0.0,0.0,0.0,0.0,0.0,0.0,0.0,0.0,0.0,0.0,0.0,0.0,0.0,0.0,0.0,0.0,0.0,0.0,0.0,0.0,0.0,0.0,0.0,0.0,0.0,0.0,0.0,0.0,0.0,0.0,0.0,0.0,0.0,0.0,0.0,0.0,0.0,0.0,2.749,2.749,2.7469,2.7403,2.7469,2.7469,2.7403,2.7469,2.749,2.749,0.0,0.0,0.0,0.0,0.0,0.0,0.0,0.0,0.0,0.0,0.0,0.0,0.0,0.0,0.0,0.0,0.0,0.0,0.0,0.0,0.0,0.0,0.0,0.0,0.0,0.0,0.0,0.0,0.0,0.0,0.0,0.0,0.0,0.0,0.0,0.0,0.0,0.0,0.0,0.0,0.0,0.0,0.0,0.0,0.0,0.0,0.0,0.0,0.0,0.0,0.0,0.0,0.0,0.0,0.0,0.0,0.0,0.0,0.0,0.0,0.0,0.0,0.0,0.0,0.0,0.0,0.0,0.0,0.0,0.0,0.0,0.0,0.0,0.0,0.0,0.0,0.0,0.0,0.0,0.0,0.0,0.0,0.0,0.0,0.0,0.0,0.0,0.0,0.0,0.0,0.0,0.0,0.0,0.0,0.0,0.0,0.0,0.0,0.0,0.0,0.0,0.0,2.749,2.749,2.749,2.749,2.749,2.749,2.749,2.749,2.749,2.749,0.0,0.0,0.0,0.0,0.0,0.0,0.0,0.0,0.0,0.0,0.0,0.0,0.0,0.0,0.0,0.0,0.0,0.0,0.0,0.0,0.0,0.0,0.0,0.0,0.0,0.0,0.0,0.0,0.0,0.0,0.0,0.0,0.0,0.0,0.0,0.0,0.0,0.0,0.0,0.0,0.0,0.0,0.0,0.0,0.0,0.0,0.0,0.0,0.0,0.0,0.0,0.0,0.0,0.0,0.0,0.0,0.0,0.0,0.0,0.0,3.1092,0.0,0.0,0.0,0.0,0.0,0.0,0.0,0.0,0.0,0.0,0.0,0.0,0.0,0.0,0.0,0.0,0.0,0.0,0.0,0.0,0.0,0.0,0.0,0.0,0.0,0.0,0.0,0.0,0.0,0.0,0.0,0.0,0.0,0.0,0.0,0.0,0.0,0.0,0.0,0.0,0.0,2.749,2.749,2.749,2.749,2.749,2.749,2.749,2.749,2.749,2.749,2.749,0.0,0.0,0.0,0.0,0.0,0.0,0.0,0.0,0.0,0.0,0.0,0.0,0.0,0.0,0.0,0.0,0.0,0.0,0.0,0.0,0.0,0.0,0.0,0.0,0.0,0.0,0.0,0.0,0.0,0.0,0.0,0.0,0.0,0.0,0.0,0.0,0.0,0.0,0.0,0.0,0.0,0.0,0.0,0.0,0.0,0.0,0.0,0.0,0.0,0.0,0.0,0.0,0.0,0.0,0.0,0.0,0.0,0.0,0.0,0.0,3.1511,0.0,0.0,0.0,0.0,0.0,0.0,0.0,0.0,0.0,0.0,0.0,0.0,0.0,0.0,0.0,0.0,0.0,0.0,0.0,0.0,0.0,0.0,0.0,0.0,0.0,0.0,0.0,0.0,0.0,0.0,0.0,0.0,0.0,0.0,0.0,0.0,0.0,0.0,0.0,0.0,2.749,2.749,2.749,2.749,2.749,2.749,2.749,2.749,2.749,2.749,2.749,0.0,0.0,0.0,0.0,0.0,0.0,0.0,0.0,0.0,0.0,0.0,0.0,0.0,0.0,0.0,0.0,0.0,0.0,0.0,0.0,0.0,0.0,0.0,0.0,0.0,0.0,0.0,0.0,0.0,0.0,0.0,0.0,0.0,0.0,0.0,0.0,0.0,0.0,0.0,0.0,0.0,0.0,0.0,0.0,0.0,0.0,0.0,0.0,0.0,0.0,0.0,0.0,0.0,3.1854,3.1854,3.1854,3.1854,3.1854,3.1854,3.1854,3.172,3.1511,3.1511,0.0,0.0,0.0,0.0,0.0,0.0,0.0,0.0,0.0,0.0,0.0,0.0,0.0,0.0,0.0,0.0,0.0,0.0,0.0,0.0,0.0,0.0,0.0,0.0,3.0269,3.0524,2.9981,0.0,0.0,0.0,0.0,0.0,0.0,0.0,0.0,0.0,0.0,0.0,2.749,2.749,2.749,2.749,2.749,2.749,2.749,2.749,2.749,2.749,2.7623,2.7656,0.0,0.0,0.0,0.0,0.0,0.0,0.0,0.0,0.0,0.0,0.0,0.0,0.0,0.0,0.0,0.0,0.0,0.0,0.0,0.0,0.0,0.0,0.0,0.0,0.0,0.0,0.0,0.0,0.0,0.0,0.0,0.0,3.1912,3.1597,0.0,0.0,0.0,0.0,0.0,0.0,0.0,0.0,0.0,0.0,0.0,0.0,0.0,3.2662,3.323,3.3245,3.3245,3.3245,3.3245,3.3245,3.3245,3.3245,3.3245,3.3245,3.3245,0.0,3.1511,3.1511,0.0,0.0,0.0,0.0,0.0,0.0,0.0,0.0,0.0,0.0,0.0,0.0,0.0,0.0,0.0,0.0,0.0,0.0,0.0,0.0,0.0,0.0,3.1467,3.1278,3.1307,3.1351,0.0,3.0329,2.9473,2.9393,2.9362,0.0,0.0,0.0,0.0,0.0,0.0,0.0,2.749,2.749,2.749,2.749,2.749,2.749,2.749,2.749,2.749,2.749,2.8039,2.8384,2.8384,2.8384,0.0,0.0,0.0,0.0,0.0,0.0,0.0,0.0,0.0,0.0,0.0,0.0,0.0,0.0,0.0,0.0,0.0,0.0,0.0,0.0,0.0,0.0,0.0,0.0,0.0,0.0,0.0,0.0,0.0,3.1855,3.1668,3.1511,3.1568,3.1597,0.0,0.0,0.0,0.0,0.0,0.0,0.0,0.0,0.0,3.3051,3.3066,3.32,3.3499,3.3858,3.4038,3.4084,3.4442,3.4622,3.4622,3.4622,3.4412,3.4038,3.4038,3.3499,3.2632,3.2632,3.2632,3.2602,0.0,0.0,0.0,0.0,3.1511,3.1511,3.1511,3.1511,3.1511,3.1511,0.0,0.0,0.0,0.0,0.0,0.0,0.0,3.1511,0.0,0.0,3.1511,3.1511,3.1511,3.1511,3.1511,3.1029,3.0524,0.0,3.0042,2.9858,2.9174,0.0,0.0,0.0,0.0,2.8602,2.8602,2.8602,2.8487,2.8091,2.8072,2.8072,2.8072,2.8072,2.8222,2.8615,2.8889,2.9048,2.9048,2.9048,2.9048,0.0,0.0,0.0,0.0,0.0,0.0,0.0,0.0,0.0,0.0,0.0,0.0,0.0,0.0,0.0,0.0,0.0,0.0,0.0,0.0,0.0,0.0,0.0,0.0,0.0,0.0,0.0,0.0,3.1966,3.171,3.171,3.171,3.1814,0.0,0.0,0.0,0.0,0.0,0.0,3.3225,3.3893,3.4349,3.4516,3.4714,3.4881,3.5034,3.5536,3.57,3.554,3.6036,3.618,3.5998,3.5998,3.5714,3.522,3.522,3.4951,3.4442,3.3769,3.3499,3.344,3.2961,3.2766,3.2706,3.2183,3.2004,3.2004,3.2004,3.2004,3.2004,3.2004,3.2004,3.2004,3.2004,0.0,0.0,0.0,0.0,3.2004,3.2004,3.2004,3.2004,3.2004,3.2004,3.2004,3.2004,3.2004,3.1752,0.0,3.0777,3.0598,3.0102,0.0,0.0,0.0,0.0,3.0013,3.0013,3.0013,2.9806,2.9306,2.9104,2.9008,2.9008,2.8839,2.8967,2.9473,2.9659,2.9766,2.9766,2.9766,2.9766,2.9766,0.0,0.0,0.0,0.0,0.0,0.0,0.0,0.0,0.0,0.0,0.0,0.0,0.0,0.0,0.0,0.0,0.0,0.0,0.0,0.0,0.0,0.0,0.0,0.0,0.0,0.0,0.0,0.0,0.0,3.2342,3.2342,0.0,0.0,0.0,0.0,3.5142,3.5236,3.5236,3.5236,3.5944,3.6624,3.7288,3.7983,3.8631,3.9187,3.9234,3.8921,3.8308,3.8338,3.7974,3.7315,3.7315,3.73,3.7255,3.7255,3.724,3.7015,3.4517,3.3499,3.3499,3.3455,3.344,3.344,3.341,3.3395,3.3395,3.3395,3.3395,3.3395,3.3395,3.3395,3.3395,3.3395,3.3395,0.0,0.0,3.3395,3.3395,3.3395,3.3395,3.3395,3.3395,3.3395,3.3395,3.3395,3.3395,3.299,0.0,3.1438,3.1456,3.1414,0.0,3.1409,3.1401,3.1387,3.1387,3.1387,3.1387,3.1401,3.1368,3.0787,3.0407,3.0407,2.981,2.9473,2.9504,3.0103,3.045,3.045,3.045,3.045,3.045,2.9827,0.0,0.0,0.0,0.0,0.0,0.0,0.0,0.0,0.0,0.0,0.0,0.0,0.0,0.0,0.0,0.0,0.0,0.0,0.0,0.0,0.0,0.0,0.0,0.0,0.0,0.0,0.0,0.0,3.4337,3.4337,0.0,3.4698,3.4908,3.5304,3.6058,3.6505,3.6949,3.7438,3.8074,3.855,3.8773,3.9057,3.9517,4.0198,4.0658,4.0988,4.1215,4.1637,4.1706,4.1451,4.0966,4.0515,4.008,3.9596,3.9161,3.868,3.7732,3.6826,3.5968,3.5579,3.516,3.4741,3.4292,3.3858,3.3499,3.3499,3.3499,3.3499,3.3499,3.3499,3.3499,3.3499,3.3499,3.3499,3.3499,3.3499,3.3499,3.3499,3.3499,3.3499,3.3499,3.3499,3.3499,3.3499,3.3499,3.3365,3.2886,3.2796,3.2781,3.2776,3.2775,3.2802,3.2805,3.2803,3.2803,3.2803,3.2803,3.263,3.2202,3.1921,3.1778,3.1778,3.1576,3.143,3.1421,3.1648,3.159,3.1176,3.1161,3.1161,3.1161,3.0896,3.0807,0.0,0.0,0.0,0.0,0.0,0.0,0.0,0.0,0.0,0.0,0.0,0.0,0.0,0.0,0.0,0.0,0.0,0.0,0.0,0.0,0.0,0.0,0.0,0.0,0.0,0.0,3.5671,3.5671,3.5671,3.5863,3.637,3.66,3.7125,3.8076,3.8563,3.903,3.9514,4.0416,4.0884,4.0884,4.1382,4.1849,4.2364,4.28,4.3137,4.342,4.3866,4.3938,4.3667,4.3192,4.2732,4.2273,4.1798,4.1339,4.0911,4.0911,4.0232,3.9035,3.7936,3.7233,3.679,3.6348,3.5905,3.5477,3.5274,3.5023,3.4848,3.5118,3.518,3.5243,3.5461,3.5384,3.518,3.518,3.5007,3.4816,3.4816,3.4816,3.4816,3.4816,3.4651,3.4502,3.4502,3.4322,3.4173,3.4173,3.3799,3.3559,3.3784,3.3829,3.3903,3.4143,3.4173,3.4173,3.4173,3.4173,3.4001,3.3559,3.3307,3.3174,3.3174,3.2983,3.2845,3.2841,3.2647,3.2288,3.1854,3.163,3.1511,3.1511,3.1511,3.1511,3.1511,0.0,0.0,0.0,0.0,0.0,0.0,0.0,0.0,0.0,0.0,0.0,0.0,0.0,0.0,0.0,0.0,0.0,0.0,0.0,0.0,0.0,0.0,0.0,3.7367,3.6666,3.6301,3.6301,3.6318,3.6886,3.8325,3.9018,3.9934,4.1342,4.1446,4.1491,4.1508,4.287,4.3664,4.3664,4.5052,4.5798,4.5814,4.5814,4.5516,4.4918,4.4918,4.4506,4.3815,4.3799,4.3783,4.3783,4.3767,4.3751,4.3751,4.3751,4.3339,4.2497,4.0404,3.9565,3.9533,3.9533,3.9517,3.9408,3.8772,3.8065,3.756,3.8297,3.8527,3.8642,3.9298,3.9061,3.8527,3.8494,3.7998,3.7439,3.7404,3.7404,3.7404,3.7404,3.6941,3.6507,3.6507,3.6013,3.5564,3.5564,3.4517,3.3814,3.4444,3.4533,3.4741,3.54,3.5504,0.0,3.5504,3.5504,3.5504,3.5504,3.4906,3.4533,3.4533,3.3918,3.3544,3.3529,3.2931,3.2557,3.2512,3.1884,3.1525,3.1511,3.1511,3.1511,3.1511,0.0,0.0,0.0,0.0,0.0,0.0,0.0,0.0,0.0,0.0,0.0,0.0,0.0,0.0,0.0,0.0,0.0,0.0,0.0,0.0,0.0,0.0,3.9166,3.8768,3.8553,3.8457,3.8457,3.8918,3.9396,3.9809,4.0431,4.121,4.2109,4.2688,4.3247,4.3761,4.4688,4.5202,4.5202,4.5582,4.6046,4.6576,4.6593,4.6762,4.7128,4.7128,4.7013,4.6798,4.6274,4.6028,4.5996,4.5472,4.5242,4.5242,4.5242,4.5111,4.4721,4.2556,4.1116,4.023,4.023,3.9929,3.947,3.9298,3.9093,3.8966,3.9172,3.9235,3.9267,3.9439,3.9377,3.9109,3.8642,3.8363,3.8065,3.7541,3.7404,3.7404,3.7404,3.7285,3.715,3.715,3.7015,3.6881,3.6881,3.6582,3.6088,3.5355,3.522,3.5295,3.5474,3.5504,0.0,3.5504,3.5504,3.5504,3.5504,3.534,3.522,3.522,3.5055,3.4741,3.4279,3.4038,3.3724,3.3245,3.2572,3.1989,3.1511,3.1511,3.1511,0.0,0.0,0.0,0.0,0.0,0.0,0.0,0.0,0.0,0.0,0.0,0.0,0.0,0.0,0.0,0.0,0.0,0.0,0.0,0.0,0.0,0.0,3.9352,3.9299,3.9299,3.9299,3.9415,3.973,4.0144,4.0641,4.121,4.1922,4.2651,4.338,4.4108,4.4721,4.5135,4.5847,4.6245,4.6245,4.656,4.6924,4.7355,4.7669,4.8034,4.8465,4.8465,4.8465,4.8448,4.7703,4.7355,4.7338,4.6908,4.6725,4.6725,4.6725,4.6527,0.0,0.0,0.0,0.0,0.0,4.2108,4.1261,4.1261,4.0864,4.0388,4.0704,4.0798,4.0845,4.1123,4.0814,4.0261,3.9872,3.9342,3.8781,3.8347,3.8257,3.8257,3.8257,3.8033,3.7823,3.7823,3.7599,3.7404,3.7404,3.7404,0.0,3.6432,3.6312,3.6312,3.6312,3.6312,3.6312,3.6312,3.6073,3.5923,3.5923,3.5669,3.5504,3.5504,3.5504,0.0,0.0,0.0,3.4219,3.3529,3.3125,0.0,0.0,0.0,3.178,3.1511,3.1511,0.0,0.0,3.1511,3.1511,0.0,0.0,0.0,0.0,0.0,0.0,0.0,0.0,0.0,0.0,0.0,0.0,0.0,0.0,0.0,0.0,3.9299,3.9332,3.9415,3.9431,3.9663,4.0326,4.0542,4.116,4.2473,4.3284,4.4042,4.4754,4.55,4.5914,4.5914,0.0,0.0,0.0,0.0,4.8166,4.8249,4.8912,4.9226,4.9226,4.9226,4.9226,4.921,4.8547,4.8199,4.8117,4.8117,4.8084,4.8001,4.8001,4.7603,4.6941,4.6113,4.5798,4.5798,4.5798,4.5024,4.3944,4.3944,0.0,0.0,4.2749,4.2889,4.2965,4.3548,4.279,4.1722,4.1656,4.0737,3.9753,3.9646,3.9589,3.9517,3.9517,3.9017,3.8497,3.8497,3.8048,3.7644,3.7644,3.7644,3.7644,3.7644,3.7509,3.7404,3.7404,3.7404,3.7404,3.7404,3.6926,3.6596,3.6596,0.0,0.0,3.5624,3.5609,3.5579,3.5504,3.4936,3.4292,3.3634,3.3604,3.3305,3.2647,3.2617,3.2303,3.1735,3.1645,3.1615,3.1615,3.154,3.1511,0.0,0.0,0.0,0.0,0.0,0.0,0.0,0.0,0.0,0.0,0.0,0.0,0.0,0.0,0.0,3.9299,3.9299,3.9514,4.0111,4.0194,4.0243,4.0393,4.1392,4.2423,4.33,4.4059,4.4787,4.5516,4.6262,4.6676,4.6676,4.7388,4.8067,4.8663,4.8812,4.9177,4.979,4.9939,5.0005,5.0005,0.0,0.0,4.9988,4.9856,4.9458,4.8895,4.8895,4.8547,4.8001,4.8001,4.7918,4.7653,4.6311,4.5798,4.5798,4.5798,4.5636,4.5379,4.5379,4.5217,4.4991,4.5133,4.4768,4.4321,4.4442,4.3878,0.0,4.2554,4.219,4.1852,4.126,4.0703,4.0285,4.0285,3.9738,3.923,3.923,3.911,3.9,3.9,3.9,3.9,3.9,3.8138,3.7404,3.7404,3.7404,3.7404,3.7404,3.73,3.724,3.724,3.712,3.6851,3.6342,3.6297,3.6073,3.5534,3.5385,3.4996,3.4339,3.4324,3.3978,3.332,3.3305,3.3245,3.311,3.2557,3.2303,3.2273,3.175,3.1511,0.0,0.0,0.0,0.0,0.0,0.0,0.0,0.0,0.0,0.0,0.0,3.9405,0.0,0.0,3.9299,3.9299,3.9613,3.9978,4.0359,4.0994,4.1442,4.1442,4.2419,4.3333,4.4092,4.5152,4.5947,4.6311,4.7023,4.7454,4.7454,4.815,4.873,4.9094,4.9475,4.9839,5.022,5.0568,5.075,5.075,5.075,5.075,5.0734,5.0369,5.0005,4.9657,4.9657,4.9243,4.8531,4.815,4.8001,4.7934,4.7189,4.6891,4.6891,4.6891,4.6659,4.6344,4.6344,4.6096,4.5798,4.5798,4.5533,4.5235,4.5235,4.477,4.4131,4.3798,4.3154,4.2541,4.2164,4.1512,4.0907,4.0581,4.0216,3.9859,3.9481,3.9388,3.9388,3.9388,3.9388,3.9388,3.9388,3.882,3.8407,3.8407,3.8407,3.8407,3.8407,3.8123,3.7898,3.7898,3.7599,3.7285,3.6971,3.6656,3.6357,3.6013,3.5684,3.5355,3.4996,3.4996,3.4681,3.3993,3.3978,3.3829,3.3499,3.3155,3.3006,3.2991,3.2677,3.2123,0.0,0.0,0.0,0.0,0.0,0.0,0.0,0.0,4.019,3.9458,3.9299,3.9299,3.9299,3.9299,3.9348,3.9497,4.0011,4.0509,4.0763,4.1789,4.2589,4.2899,4.3433,4.4108,4.4837,4.6113,4.6957,4.7106,4.7669,4.8067,4.8216,4.8779,4.9243,4.9525,5.0104,5.0485,5.0634,5.1197,5.1531,5.1531,5.1531,5.1531,5.1498,5.0899,5.0551,5.0419,5.027,4.979,4.9061,4.8465,4.8133,4.8001,4.8001,4.8001,4.8001,4.8001,4.762,4.7106,4.7106,4.6725,4.6228,4.6228,4.6129,4.6013,4.6013,4.555,4.5,4.5,4.4155,4.3211,4.3211,4.2664,4.2002,4.1482,4.1243,4.0936,4.0198,3.9913,3.9775,3.964,3.9481,3.9388,3.9388,3.9388,3.9388,3.9388,3.9388,3.9388,3.9388,3.8931,3.8586,3.8586,3.8123,3.7749,3.7614,3.703,3.6671,3.6671,3.6058,3.5699,3.5699,3.5579,3.525,3.4713,3.4698,3.4412,3.3888,3.3754,3.3679,3.3679,3.3559,3.2931,3.9703,3.9599,3.9694,4.0444,4.0127,3.9618,0.0,0.0,3.9575,3.9342,3.9299,3.9299,3.9299,3.9299,3.9514,4.0177,4.0359,4.0829,4.2104,4.239,4.2999,4.4291,4.4522,4.4854,4.5599,4.6411,4.7173,4.7835,4.7951,4.8299,4.8945,4.9061,4.969,5.1017,5.1149,5.1498,5.2125,5.226,5.2293,5.2293,5.2293,5.2293,5.2293,5.2175,5.1777,5.1149,5.0485,4.979,4.9094,4.9011,4.8597,4.8001,4.8001,4.8001,4.8001,4.8001,4.7951,4.7885,4.7885,4.7819,4.7752,4.7752,4.7305,4.6775,4.6775,4.628,4.5687,4.5687,4.5559,4.543,4.543,4.495,4.4397,4.4332,4.3816,4.315,4.2417,4.1774,4.1146,4.0497,3.9859,3.9388,3.9388,3.9388,3.9388,3.9388,3.9388,3.9388,3.9388,3.9313,3.9305,3.9305,3.9209,3.8945,3.8332,3.7689,3.73,3.73,3.6731,3.6372,3.6372,3.5818,3.5474,3.5385,3.5385,3.5355,3.528,3.4666,3.4399,3.4384,3.3769,3.3425,3.9484,3.9432,0.0,0.0,4.0259,3.9999,3.9945,3.9972,3.9883,3.9398,3.9299,3.9299,3.9299,3.9647,4.0044,0.0,4.1077,4.1839,4.2406,4.287,4.3545,4.4572,4.5069,4.5616,4.6361,4.7106,4.7669,4.7984,4.8001,4.8315,4.9061,4.9525,5.022,5.1282,5.173,5.2111,5.2409,5.2409,5.2409,5.2409,5.2409,5.2409,5.2409,5.2409,5.2243,5.1912,5.1148,5.0667,5.0303,4.9458,4.8928,4.8597,4.8166,4.8001,4.8001,4.8001,4.8001,4.8001,4.8001,4.8001,4.8001,4.8001,4.7785,4.7537,4.7537,4.7322,4.7073,4.7073,4.6775,4.6444,4.6444,4.5923,4.5291,4.487,4.4557,4.4145,4.3421,4.3016,4.2591,4.182,4.1418,4.1052,4.0621,4.0247,3.9993,3.9993,3.9664,3.9388,3.9388,3.9388,3.9388,3.9388,3.9388,3.9305,3.902,3.8377,3.7973,3.7973,3.7375,3.703,3.703,3.6417,3.6255,3.6599,3.5879,3.5846,3.6616,3.5655,3.5344,3.5581,3.5026,3.4936,3.9547,0.0,0.0,4.0227,4.026,4.0111,4.0111,4.0111,4.0011,3.968,3.9597,3.9663,3.9862,4.0326,4.0729,4.0945,4.1839,4.2555,4.2754,4.3433,4.4191,4.4903,4.5649,4.6394,4.7123,4.7686,4.8001,4.8001,4.8199,4.863,4.9375,5.0104,5.0833,5.1597,5.2127,5.2409,5.2409,5.2409,5.2409,5.2409,5.2409,5.2409,5.2409,5.2409,5.2409,5.2393,5.1846,5.1498,5.1216,4.9922,4.9293,4.9028,4.8299,4.8001,4.8001,4.8001,4.8001,4.8001,4.8001,4.8001,4.8001,4.8001,4.8001,4.8001,4.8001,4.8001,4.8001,4.8001,4.762,4.7206,4.7206,4.6808,4.6267,4.58,4.5669,4.5472,4.4747,4.4429,4.3989,4.2996,4.2628,4.226,4.152,4.0995,4.0666,4.0666,4.0262,3.9828,3.9433,3.9388,3.9388,3.9388,3.9388,3.9388,3.9388,3.896,3.8676,3.8676,3.8048,3.7689,3.7689,3.7263,3.7266,3.774,3.7054,3.7048,3.7757,3.694,3.6584,3.6662,3.6196,3.6243,4.0177,0.0,3.9481,4.0227,3.9862,3.9332,3.9332,3.9332,3.9531,4.0227,4.0376,4.0591,4.1226,4.1331,4.1595,4.2307,4.2456,4.2738,4.3466,4.4208,4.4937,4.5665,4.6411,4.7156,0.0,4.7984,4.8001,4.8001,4.8663,4.9392,5.0137,5.085,5.1614,5.2359,5.2409,5.2409,5.2409,5.2409,5.2409,5.2409,5.2409,5.2409,5.2409,5.2409,5.2409,5.2409,5.2393,5.1978,5.1249,5.0485,4.9756,4.9028,4.8299,4.8001,4.8001,4.8001,4.8001,4.8001,4.8001,4.8001,4.8001,4.8001,4.8001,4.8001,4.8001,4.8001,4.8001,4.8001,4.7984,4.7968,4.7968,4.7951,4.7934,4.7902,4.7902,4.7703,4.6943,4.6258,4.5314,4.3841,4.3,4.226,4.152,4.1369,4.1354,4.1354,4.1324,4.0861,3.9589,3.9388,3.9388,3.9388,3.9388,3.9388,3.9388,3.9394,3.9394,3.9394,3.8736,3.8362,3.8362,3.8418,3.8513,3.8662,3.9329,3.932,3.8665,3.8635,3.8181,3.737,3.6906,3.6981,3.9597,0.0,3.9365,3.9613,3.9481,3.9299,3.9299,3.968,4.0111,4.0359,4.0746,4.1127,4.1375,4.1806,4.2208,4.2456,4.2903,4.3317,4.3565,4.4241,4.4953,4.5698,4.6444,0.0,0.0,0.0,0.0,4.8001,4.868,4.9425,5.0171,5.0883,5.1647,5.2393,5.2409,5.2409,5.2409,5.2409,5.2409,5.2409,5.2409,5.2409,5.2409,5.2409,5.2409,5.2409,5.2409,5.2277,5.1945,5.0717,5.0071,4.9723,4.8481,4.8001,4.8001,4.8001,4.8001,4.8001,4.8001,4.8001,4.8001,4.8001,4.8001,4.8001,4.8001,4.8001,4.8001,4.8001,4.8001,4.8001,4.8001,4.8001,4.8001,4.8001,4.8001,4.7934,4.7686,4.744,4.6945,4.5908,4.5533,4.5112,4.4387,4.3427,4.2492,4.1558,4.101,4.0561,4.0127,3.9694,3.9388,3.9388,3.9388,3.9388,3.9388,3.9388,3.9625,4.0091,3.947,3.9496,4.0414,3.9612,3.9652,4.0682,4.0111,4.0121,4.0826,4.0102,3.9495,3.8987,3.8555,3.8357,3.9299,3.9299,3.9299,3.9299,3.9299,3.9299,3.9299,3.9879,4.0475,4.0696,4.1309,4.186,4.2125,4.2555,4.2886,4.2886,4.3284,4.3598,4.3598,4.4456,4.5251,4.5732,4.6676,4.7487,0.0,0.0,0.0,4.8001,4.8945,4.9707,5.0187,5.1148,5.1928,5.2409,5.2409,5.2409,5.2409,5.2409,5.2409,5.2409,5.2409,5.2409,5.2409,5.2409,5.2409,5.2409,5.2409,5.2409,5.231,5.0817,5.022,5.0071,4.858,4.8001,4.8001,4.8001,4.8001,4.8001,4.8001,4.8001,4.8001,4.8001,4.8001,4.8001,4.8001,4.8001,4.8001,4.8001,4.8001,4.8001,4.8001,4.8001,4.8001,4.8001,4.8001,4.8001,4.8001,4.8001,4.7737,4.6965,4.6811,4.6569,4.5841,4.4919,4.3985,4.3072,4.2371,4.1648,4.0845,4.0382,4.0023,3.9798,3.9768,3.9772,3.9803,3.9773,4.0091,4.0805,4.0409,4.0566,4.1459,4.0935,4.1103,4.2129,4.1615,4.1687,4.2366,4.1654,4.1074,4.0535,4.0111,3.9907,3.9299,3.9299,3.9299,3.9299,3.9299,3.9299,3.9299,3.9912,4.0613,4.1276,4.2009,4.2754,0.0,0.0,4.3598,4.3598,4.3598,4.3598,4.3598,4.487,4.5798,0.0,0.0,0.0,0.0,0.0,0.0,4.8001,0.0,5.022,5.022,5.1595,5.2409,5.2409,5.2409,5.2409,5.2409,5.2409,5.2409,5.2409,5.2409,5.2409,5.2409,5.2409,5.2409,5.2409,5.2409,5.2393,5.2208,5.08,5.0187,5.0005,4.8564,4.8001,4.8001,4.8001,4.8001,4.8001,4.8001,4.8001,4.8001,4.8001,4.8001,4.8001,4.8001,4.8001,4.8001,4.8001,4.8001,4.8001,4.8001,4.8001,4.8001,4.8001,4.8001,4.8001,4.8001,4.8001,4.777,4.6999,4.6846,4.6655,4.5861,4.5769,4.5733,4.5697,4.5179,4.3966,4.1829,4.1498,4.1243,4.0613,4.0516,4.0507,4.0586,4.0593,4.087,4.1525,4.1525,4.1542,4.1624,4.2285,4.2771,4.3059,4.3739,4.3831,4.3261,4.3261,4.2835,4.1976,4.151,4.1594,3.9299,3.9299,3.9299,3.9299,3.9299,3.9299,3.9299,4.0249,4.1193,4.1347,4.2406,4.3367,0.0,0.0,0.0,4.3598,4.3598,0.0,4.3598,4.487,0.0,4.5798,0.0,4.8001,4.8001,4.8001,0.0,0.0,4.9375,5.022,5.022,5.1595,5.2409,5.2409,5.2409,5.2409,5.2409,5.2409,5.2409,5.2409,5.2409,5.2409,5.2409,5.2409,5.2409,5.2409,5.2409,5.2111,5.1531,5.0585,4.9889,4.9293,4.8365,4.8001,4.8001,4.8001,4.8001,4.8001,4.8001,4.8001,4.8001,4.8001,4.8001,4.8001,4.8001,4.8001,4.8001,4.8001,4.8001,4.8001,4.8001,4.8001,4.8001,4.8001,4.8001,4.8001,4.8001,4.8001,4.7935,4.7737,4.7704,4.7454,4.6655,4.6499,4.6324,4.5769,4.5539,4.5068,4.3997,4.2896,4.2365,4.2821,4.2309,4.1996,4.2061,4.2066,4.2129,4.2317,4.1901,4.2141,4.3235,4.3047,4.3243,4.3943,4.415,4.4254,4.4237,4.4237,4.3821,4.3023,4.2896,4.2638,3.9299,3.9299,3.9299,3.9299,3.9299,3.9381,3.9713,4.0613,4.148,4.1839,4.2787,0.0,4.3598,4.3598,0.0,0.0,0.0,0.0,4.3598,4.4589,4.5433,0.0,4.6825,0.0,4.7968,4.8001,4.8001,0.0,4.9077,4.9872,5.0187,5.128,5.2078,5.2409,5.2409,5.2409,5.2409,5.2409,5.2409,5.2409,5.2409,5.2409,5.2409,5.2409,5.2243,5.1928,0.0,5.1514,5.075,5.0021,4.9475,4.9028,4.8299,4.8001,4.8001,4.8001,4.8001,4.8001,4.8001,4.8001,4.8001,4.8001,4.8001,4.8001,4.8001,4.8001,4.8001,4.8001,4.8001,4.8001,4.8001,4.8001,4.8001,4.8001,4.8001,4.8001,4.8001,4.8001,4.8001,4.8001,4.8001,4.7853,4.7404,4.7337,4.7202,4.6775,4.6705,4.656,4.6207,4.4819,4.3959,4.412,4.3721,4.349,4.3547,4.3327,4.3315,4.3588,4.3074,4.3108,4.3939,4.3667,4.3722,4.431,4.431,4.4412,4.4615,4.4615,4.4378,4.3927,4.3927,4.369,3.9299,3.9299,3.9299,3.9299,3.9299,3.9481,4.0111,4.0845,4.1562,4.2208,0.0,4.3598,4.3598,4.3598,4.3598,4.3598,0.0,4.3598,4.3598,4.4241,4.4953,4.5698,4.6444,4.7189,4.7934,4.8001,4.8001,4.8001,4.8597,4.9293,5.0021,5.0833,5.1647,5.2393,5.2409,5.2409,5.2409,5.2409,5.2409,5.2409,5.2409,5.2359,5.2224,5.2224,5.1862,5.1166,5.1166,5.0734,5.0021,4.9375,4.9044,4.8895,4.8249,4.8001,4.8001,4.8001,4.8001,4.8001,4.8001,4.8001,4.8001,4.8001,4.8001,4.8001,4.8001,4.8001,4.8001,4.8001,4.8001,4.8001,4.8001,4.8001,4.8001,4.8001,4.8001,4.8001,4.8001,4.8001,4.8001,4.8001,4.8001,4.8001,4.8001,4.8001,4.8001,4.8001,4.8001,4.8001,4.8001,4.674,4.5675,4.5193,4.5043,4.5016,4.5114,4.4641,4.4514,4.4917,4.4524,4.4227,4.4126,4.4155,4.4212,4.4338,4.4338,4.444,4.4615,4.4615,4.4615,4.4615,4.4615,4.4615,3.9299,3.9299,3.9299,3.9299,3.9299,3.9332,3.9464,4.0481,0.0,0.0,4.2655,4.3598,4.3598,4.3598,4.3598,4.3598,4.3598,4.3598,4.3598,4.4241,4.4953,0.0,4.6444,4.7189,4.7934,4.8001,0.0,0.0,4.8117,4.8514,4.926,5.0551,5.1647,5.2393,5.2409,5.2409,5.2409,5.2409,5.2409,5.2409,5.2409,5.2094,5.1498,5.1498,5.1082,5.0402,5.0402,0.0,4.9293,4.916,4.8746,4.8183,4.805,4.8001,4.8001,4.8001,4.8001,4.8001,4.8001,4.8001,4.8001,4.8001,4.8001,4.8001,4.8001,4.8001,4.8001,4.8001,4.8001,4.8001,4.8001,4.8001,4.8001,4.8001,4.8001,4.8001,4.8001,4.8001,4.8001,4.8001,4.8001,4.8001,4.8001,4.8001,4.8001,4.8001,4.8001,4.8001,4.8001,4.7202,4.6813,4.7357,4.682,4.6528,4.6743,4.6704,4.6184,4.5223,4.5152,4.4904,4.4298,4.4412,4.4514,4.4542,4.4542,4.457,4.4615,4.4615,4.4615,4.4615,4.4615,4.4615,3.9299,3.9299,3.9299,3.9299,3.9299,3.9398,3.9779,0.0,0.0,0.0,4.2522,4.3135,4.3515,4.3598,0.0,4.3598,4.3598,4.3598,4.3598,4.388,0.0,4.5665,4.6096,4.6775,0.0,4.8001,4.8001,4.8001,4.8001,4.8315,4.9061,5.0137,5.0883,5.1247,5.1247,5.1247,5.1247,5.1247,5.1247,5.1247,5.1247,5.1065,5.0734,5.0734,5.0336,4.9641,4.9641,4.9226,4.8531,4.8531,4.8315,4.8001,4.8001,4.8001,4.8001,4.8001,4.8001,4.8001,4.8001,4.8001,4.8001,4.8001,4.8001,4.8001,4.8001,4.8001,4.8001,4.8001,4.8001,4.8001,4.8001,4.8001,4.8001,4.8001,4.8001,4.8001,4.8001,4.8001,4.8001,4.8001,4.8001,4.8001,4.8001,4.8001,4.8001,4.8001,4.8001,4.8001,4.8001,4.7671,4.7555,4.7968,4.7671,4.7506,4.7697,4.7441,4.7049,4.6495,4.5888,4.5385,4.5031,4.4745,4.4615,4.4615,4.4615,4.4615,4.4615,4.4615,4.4615,4.4615,4.4615,4.4615,3.9299,3.9299,3.9299,3.9299,3.9299,3.9448,4.0044,4.0293,0.0,0.0,4.2142,4.2473,4.3218,4.335,4.3416,0.0,4.3598,4.3598,4.3598,4.3598,4.4158,0.0,0.0,0.0,4.7868,4.8001,0.0,4.8001,4.8001,4.8315,4.9061,4.9657,5.0055,5.022,5.022,5.022,5.022,5.022,5.022,5.022,5.022,5.0137,4.9972,4.9972,4.9574,4.8862,4.8862,4.8547,4.8001,4.8001,4.8001,4.8001,4.8001,4.8001,4.8001,4.8001,4.8001,4.8001,4.8001,4.8001,4.8001,4.8001,4.8001,4.8001,4.8001,4.8001,4.8001,4.8001,4.8001,4.8001,4.8001,4.8001,4.8001,4.8001,4.8001,4.8001,4.8001,4.8001,4.8001,4.8033,4.8033,4.8033,4.8082,4.8066,4.8066,4.8099,4.8099,4.8099,4.8099,4.8099,4.8099,4.8099,4.8066,4.8115,4.826,4.7901,4.7704,4.7689,4.6714,4.6041,4.572,4.5128,4.4767,4.4615,4.4615,4.4615,4.4615,4.4615,4.4615,4.4615,4.4615,4.4615,3.9299,3.9299,3.9299,3.9299,3.9299,3.9315,3.9381,0.0,0.0,4.0575,4.1077,4.1711,4.2456,4.2589,4.2804,4.3482,0.0,4.3598,4.3598,4.3598,4.4158,0.0,0.0,0.0,4.7868,4.8001,4.8001,4.8001,4.8001,4.8315,4.9061,4.9177,4.9525,5.0187,5.022,5.022,5.022,5.022,5.022,5.022,5.022,4.9856,4.921,4.921,4.8812,4.81,4.81,4.8067,0.0,4.8001,4.8001,4.8001,4.8001,4.8001,4.8001,4.8001,4.8001,4.8001,4.8001,4.8001,4.8001,4.8001,4.8001,4.8001,4.8001,4.8001,4.8001,4.8001,4.8001,4.8001,4.8001,4.8001,4.8001,4.8001,4.8001,4.8001,4.8001,4.8001,4.8033,4.8163,4.8082,4.8099,4.8388,4.8292,4.8227,4.842,4.8452,4.8452,4.8452,4.8452,4.8452,4.8452,4.8292,4.826,4.8452,4.8608,4.8444,4.7909,4.7753,4.7094,4.5771,4.5635,4.528,4.4615,4.4615,4.4615,4.4615,4.4615,4.4615,4.4615,4.4615,4.4615,3.9299,3.9299,3.9299,3.9299,3.9299,3.9299,3.9299,0.0,3.9862,4.031,4.0597,4.1011,4.1723,4.1827,4.1926,4.2224,4.2638,0.0,4.2936,4.3317,4.4158,4.5616,4.5798,0.0,0.0,0.0,4.8001,4.8001,4.8001,4.8133,4.8431,4.8448,4.858,4.8879,4.8895,4.8895,4.8895,4.8895,4.8895,4.8895,4.8895,4.873,4.8448,4.8448,4.8282,4.8001,4.8001,4.8001,0.0,4.8001,4.8001,4.8001,4.8001,4.8001,4.8001,4.8001,4.8001,4.8001,4.8001,4.8001,4.8001,4.8001,4.8001,4.8001,4.8001,4.8001,4.8001,4.8001,4.8001,4.8001,4.8001,4.8001,4.8033,4.8115,4.8049,4.8001,4.8001,4.8001,4.8033,4.8163,4.8179,4.8212,4.8452,4.842,4.842,4.8483,4.8515,4.8515,4.8515,4.8515,4.8515,4.8515,4.842,4.8452,4.8658,4.8738,4.8745,4.8565,4.8156,4.7618,4.7043,4.6177,4.5568,4.5263,4.4835,4.4615,4.4615,4.4615,4.4615,4.4615,4.4615,4.4615,3.9299,3.9299,3.9299,3.9299,3.9299,3.9299,0.0,0.0,3.9448,3.9978,4.0078,4.0293,4.0978,4.111,4.1177,4.1375,0.0,4.2241,4.2456,4.2936,4.388,0.0,0.0,4.6378,0.0,4.8001,4.8001,4.8001,4.8001,4.8001,4.8001,4.8001,4.8001,4.8001,4.8001,4.8001,4.8001,4.8001,4.8001,4.8001,4.8001,4.8001,4.8001,4.8001,4.8001,4.8001,4.8001,4.8001,0.0,4.8001,4.8001,4.8001,4.8001,4.8001,4.8001,4.8001,4.8001,4.8001,4.8001,4.8001,4.8001,4.8001,4.8033,4.8049,4.8049,4.8049,4.8049,4.8115,4.8147,4.8147,4.8147,4.8147,4.8179,4.826,4.8212,4.8147,4.8147,4.8147,4.8179,4.834,4.8324,4.8356,4.861,4.861,4.8578,4.8642,4.8642,4.8642,4.8642,4.8642,4.8642,4.8642,4.8642,4.869,4.8769,4.8849,4.8894,4.9001,4.8528,4.8139,4.7889,4.6921,4.616,4.572,4.5179,4.4835,4.4615,4.4615,4.4615,4.4615,4.4615,4.4615,3.9299,3.9299,3.9299,3.9299,3.9299,3.9299,0.0,3.9299,3.9299,3.9315,3.9315,3.9547,4.0276,4.0426,4.0613,4.1293,4.1425,0.0,4.239,4.2489,4.3346,0.0,0.0,4.6378,4.7868,4.8001,4.8001,4.8001,4.8001,0.0,4.8001,4.8001,4.8001,4.8001,4.8001,4.8001,4.8001,4.8001,4.8001,4.8001,4.8001,4.8001,4.8001,4.8001,4.8001,4.8001,4.8001,4.8001,0.0,4.8001,4.8001,4.8001,4.8001,4.8001,4.8001,4.8001,4.8001,4.8001,4.8001,4.8001,4.8001,4.8001,4.8082,4.8195,4.8195,4.8195,4.8227,4.8452,4.8483,4.8483,4.8483,4.8483,4.8483,4.8483,4.8483,4.8483,4.8483,4.8483,4.8547,4.8738,4.8627,4.861,4.894,4.8894,4.8832,4.897,4.9001,4.9001,4.9001,4.9001,4.9001,4.9001,4.9001,4.894,4.8818,4.8925,4.9001,4.9001,4.9001,4.8663,4.7922,4.7872,4.7179,4.5737,4.5703,4.5331,4.4615,4.4615,4.4615,4.4615,4.4615,4.4615,3.9299,3.9299,3.9299,3.9299,3.9299,3.9299,3.9299,3.9299,3.9299,3.9299,3.9299,3.9381,3.9613,3.9647,3.973,3.9945,4.0382,4.0961,0.0,0.0,0.0,4.4837,4.593,4.6924,0.0,0.0,4.8001,4.8001,4.8001,4.8001,4.8001,4.8001,4.8001,4.8001,4.8001,4.8001,4.8001,4.8001,4.8001,4.8001,4.8001,4.8001,4.8001,4.8001,4.8001,4.8001,4.8001,4.8001,4.8001,4.8001,4.8001,4.8001,4.8001,4.8001,4.8001,4.8001,4.8001,4.8001,4.8001,4.8001,4.8001,4.8115,4.8179,4.826,4.8532,4.8532,4.842,4.8483,4.8515,4.8515,4.8658,4.8595,4.8547,4.8658,4.8595,4.8515,4.8515,4.8515,4.8547,4.8769,4.8738,4.8769,4.897,4.897,4.8956,4.9001,4.9001,4.9001,4.9001,4.9001,4.9001,4.9001,4.9001,4.897,4.8956,4.8987,4.9001,4.9001,4.9001,4.89,4.8663,4.8159,4.7669,4.7225,4.621,4.5602,4.5348,4.4869,4.4615,4.4615,4.4615,4.4615,0.0,3.9299,3.9299,3.9299,3.9299,0.0,3.9299,3.9299,3.9299,3.9299,3.9299,3.9299,3.9299,3.9299,3.9299,3.9299,3.9696,4.0326,0.0,0.0,0.0,4.4854,0.0,0.0,0.0,4.8001,4.8001,4.8001,4.8001,4.8001,4.8001,4.8001,4.8001,4.8001,4.8001,4.8001,4.8001,4.8001,4.8001,4.8001,4.8001,4.8001,4.8001,4.8001,4.8001,4.8001,4.8001,4.8001,0.0,4.8001,4.8001,4.8001,4.8001,4.8001,4.8001,4.8001,4.8001,4.8001,4.8001,4.8001,4.8033,4.8179,4.8292,4.8468,4.8784,4.8784,4.8673,4.8673,4.8673,4.8721,4.8832,4.8784,4.8721,4.8863,4.8784,4.8673,4.8673,4.8673,4.8721,4.8863,4.8863,4.8894,4.897,4.9001,4.9001,4.9001,4.9001,4.9001,4.9001,4.9001,4.9001,4.9001,4.9001,4.9001,4.9001,4.9001,4.9001,4.9001,4.9001,4.9001,4.9001,4.8578,4.8189,4.7889,4.6993,4.6261,4.5703,4.4942,4.4615,4.4615,4.4615,4.4615,0.0,3.9299,3.9299,0.0,0.0,0.0,3.9299,3.9299,0.0,3.9299,3.9299,3.9299,3.9299,3.9299,3.9299,3.9299,3.9299,3.9796,0.0,4.148,0.0,0.0,4.6394,0.0,4.7918,4.8001,4.8001,4.8001,4.8001,4.8001,4.8001,4.8001,4.8001,4.8001,4.8001,4.8001,4.8001,4.8001,4.8001,4.8001,4.8001,4.8001,4.8001,4.8001,4.8001,0.0,4.8001,4.8001,4.8001,4.8001,4.8001,4.8001,4.8001,4.8001,4.8001,4.8001,4.8001,4.8001,4.8001,4.8001,4.8033,4.8195,4.85,4.8849,4.894,4.9001,4.9001,4.9001,4.9001,4.9001,4.9001,4.9001,4.9001,4.9001,4.9001,4.9001,4.9001,4.9001,4.9001,4.9001,4.9001,4.9001,4.9001,4.9001,4.9001,4.9001,4.9001,4.9001,4.9001,4.9001,4.9001,4.9001,4.9001,4.9001,4.9001,4.9001,4.9001,4.9001,4.9001,4.9001,4.9001,4.9001,4.868,4.7973,4.7922,4.7162,4.5703,4.4993,4.4649,4.4615,4.4615,4.4615,3.9299,0.0,3.9299,3.9299,3.9299,3.9299,0.0,3.9299,3.9299,3.9299,3.9299,3.9299,3.9299,3.9299,3.9299,3.9299,3.9299,3.9796,4.121,4.2357,0.0,4.5582,4.5947,4.656,4.7868,4.8001,4.8001,4.8001,4.8001,4.8001,4.8001,4.8001,4.8001,4.8001,4.8001,4.8001,4.8001,4.8001,4.8001,4.8001,4.8001,4.8001,4.8001,4.8001,4.8001,4.8001,4.8001,4.8001,4.8001,4.8001,4.8001,4.8001,4.8001,4.8001,4.8001,4.8001,4.8001,4.8001,4.8001,4.8066,4.8212,4.8549,4.8801,4.894,4.9001,4.9001,4.9001,4.9001,4.9001,4.9001,4.9001,4.9001,4.9001,4.9001,4.9001,4.9001,4.9001,4.9001,4.9001,4.9001,4.9001,4.9001,4.9001,4.9001,4.9001,4.9001,4.9001,4.9001,4.9001,4.9001,4.9001,4.9001,4.9001,4.9001,4.9001,4.9001,4.9001,4.9001,4.9001,4.9001,4.9001,4.9001,4.8934,4.8748,4.8176,4.7162,4.5703,4.5534,4.5145,4.4615,4.4615,4.4615,3.9299,3.9299,3.9299,3.9299,3.9299,3.9299,3.9299,3.9299,3.9299,3.9299,3.9299,3.9299,3.9299,3.9299,3.9299,3.9299,3.9299,3.9796,0.0,0.0,4.3777,4.5582,4.5798,4.6378,0.0,4.8001,4.8001,4.8001,4.8001,4.8001,4.8001,4.8001,4.8001,4.8001,4.8001,4.8001,4.8001,4.8001,4.8001,4.8001,4.8001,4.8001,4.8001,4.8001,4.8001,4.8001,4.8001,4.8001,4.8001,4.8001,4.8001,4.8001,4.8001,4.8001,4.8001,4.8001,4.8033,4.8082,4.8082,4.8244,4.85,4.8738,4.8894,4.9001,4.9001,4.9001,4.9001,4.9001,4.9001,4.9001,4.9001,4.9001,4.9001,4.9001,4.9001,4.9001,4.9001,4.9001,4.9001,4.9001,4.9001,4.9001,4.9001,4.9001,4.9001,4.9001,4.9001,4.9001,4.9001,4.9001,4.9001,4.9001,4.9001,4.9001,4.9001,4.9001,4.9001,4.9001,4.9001,4.9001,4.9001,4.9001,4.9001,4.9001,4.8291,4.75,4.6718,4.6041,4.55,4.5094,4.4767,4.4615,3.9299,3.9299,3.9299,3.9299,3.9299,3.9299,3.9299,0.0,0.0,0.0,0.0,0.0,3.9299,3.9299,0.0,0.0,0.0,0.0,4.1226,4.2026,4.3297,4.5367,4.5715,0.0,4.7703,4.7934,4.8001,4.8001,4.8001,4.8001,4.8001,4.8001,4.8001,4.8001,4.8001,4.8001,4.8001,4.8001,4.8001,4.8001,4.8001,4.8001,4.8001,4.8001,4.8001,4.8001,4.8001,0.0,4.8001,4.8001,4.8001,4.8001,4.8001,4.8001,4.8001,4.8001,4.8082,4.8195,4.826,4.85,4.8801,4.8801,4.8894,4.9001,4.9001,4.9001,4.9001,4.9001,4.9001,4.9001,4.9001,4.9001,4.9001,4.9001,4.9001,4.9001,4.9001,4.9001,4.9001,4.9001,4.9001,4.9001,4.9001,4.9001,4.9001,4.9001,4.9001,4.9001,4.9001,4.9001,4.9001,4.9001,4.9001,4.9001,4.9001,4.9001,4.9001,4.9001,4.9001,4.9001,4.9001,4.9001,4.9001,4.9001,4.8409,4.799,4.7889,4.6667,4.5991,4.5855,4.5094,4.4784,3.9299,3.9299,3.9299,3.9299,3.9299,3.9299,3.9299,3.9299,0.0,0.0,0.0,0.0,0.0,3.9299,3.9299,3.9299,0.0,4.0481,0.0,0.0,4.3098,4.4671,0.0,4.6129,4.699,4.7636,4.8001,4.8001,4.8001,4.8001,4.8001,4.8001,4.8001,4.8001,4.8001,4.8001,4.8001,4.8001,4.8001,4.8001,4.8001,4.8001,4.8001,4.8001,4.8001,4.8001,0.0,4.8001,4.8001,4.8001,4.8001,4.8001,4.8001,4.8001,4.8001,4.8001,4.8082,4.826,4.858,4.8755,4.8801,4.8925,4.897,4.9001,4.9001,4.9001,4.9001,4.9001,4.9001,4.9001,4.9001,4.9001,4.9001,4.9001,4.9001,4.9001,4.9001,4.9001,4.9001,4.9001,4.9001,4.9001,4.9001,4.9001,4.9001,4.9001,4.9001,4.9001,4.9001,4.9001,4.9001,4.9001,4.9001,4.9001,4.9001,4.9001,4.9001,4.9001,4.9001,4.9001,4.9001,4.9001,4.9001,4.9001,4.89,4.8528,4.7889,4.7669,4.7259,4.6599,4.5872,4.5534,3.9299,3.9299,3.9299,3.9299,3.9299,3.9299,3.9299,3.9299,3.9299,0.0,0.0,0.0,0.0,0.0,3.9299,3.9299,0.0,4.0613,4.1309,4.2026,4.3065,0.0,0.0,4.6079,4.6825,4.757,4.8001,4.8001,4.8001,4.8001,4.8001,4.8001,4.8001,4.8001,4.8001,4.8001,4.8001,4.8001,4.8001,4.8001,4.8001,4.8001,4.8001,4.8001,4.8001,4.8001,0.0,4.8001,4.8001,4.8001,4.8001,4.8001,4.8001,4.8017,4.8147,4.8357,4.8485,4.8564,4.8832,4.8925,4.8925,4.897,4.9001,4.9001,4.9001,4.9001,4.9001,4.9001,4.9001,4.9001,4.9001,4.9001,4.9001,4.9001,4.9001,4.9001,4.9001,4.9001,4.9001,4.9001,4.9001,4.9001,4.9001,4.9001,4.9001,4.9001,4.9001,4.9001,4.9001,4.9001,4.9001,4.9001,4.9001,4.9001,4.9001,4.9001,4.9001,4.9001,4.9001,4.9001,4.9001,4.9001,4.9001,4.9001,4.9001,4.8832,4.8494,4.8075,4.775,4.7394,4.6633,4.6295,3.9325,3.9325,3.9299,3.9299,3.9299,3.9299,3.9299,3.9299,3.9299,3.9299,0.0,0.0,0.0,3.9299,3.9365,3.9531,4.0044,4.068,4.1558,4.2125,4.2969,4.4291,4.5086,4.5814,4.656,4.7305,4.7819,4.7984,4.8001,4.8001,4.8001,4.8001,4.8001,4.8001,4.8001,4.8001,4.8001,4.8001,4.8001,4.8001,4.8001,4.8001,4.8001,4.8001,4.8001,4.8001,4.8001,4.8001,4.8001,4.8001,4.8033,4.8066,4.8066,4.8147,4.8324,4.8675,4.8818,4.8801,4.894,4.9001,4.9001,4.9001,4.9001,4.9001,4.9001,4.9001,4.9001,4.9001,4.9001,4.9001,4.9001,4.9001,4.9001,4.9001,4.9001,4.9001,4.9001,4.9001,4.9001,4.9001,4.9001,4.9001,4.9001,4.9001,4.9001,4.9001,4.9001,4.9001,4.9001,4.9001,4.9001,4.9001,4.9001,4.9001,4.9001,4.9001,4.9001,4.9001,4.9001,4.9001,4.9001,4.9001,4.9001,4.9001,4.9001,4.9001,4.9001,4.8443,4.8173,4.8125,4.7411,4.7056,3.9432,3.9379,3.9299,3.9299,3.9299,3.9299,3.9299,3.9299,3.9299,3.9299,0.0,0.0,0.0,3.9299,3.9514,4.021,4.0376,4.0862,4.2237,0.0,4.2787,4.3582,4.4324,4.5052,4.5798,4.6543,4.7255,4.7951,4.8001,4.8001,4.8001,4.8001,4.8001,4.8001,4.8001,4.8001,4.8001,4.8001,4.8001,4.8001,4.8001,4.8001,4.8001,4.8001,4.8001,4.8001,4.8001,4.8001,4.8001,4.8001,4.8082,4.8195,4.8195,4.8292,4.8515,4.8707,4.8818,4.8801,4.894,4.9001,4.9001,4.9001,4.9001,4.9001,4.9001,4.9001,4.9001,4.9001,4.9001,4.9001,4.9001,4.9001,4.9001,4.9001,4.9001,4.9001,4.9001,4.9001,4.9001,4.9001,4.9001,4.9001,4.9001,4.9001,4.9001,4.9001,4.9001,4.9001,4.9001,4.9001,4.9001,4.9001,4.9001,4.9001,4.9001,4.9001,4.9001,4.9001,4.9001,4.9001,4.9001,4.9001,4.9001,4.9001,4.9001,4.9001,4.9001,4.8951,4.8934,4.89,4.8173,4.7804,3.9379,3.9405,3.9405,3.9325,3.9352,3.9405,3.9325,3.9352,3.9405,3.9325,3.9352,0.0,0.0,0.0,3.9547,4.0293,4.0746,4.1375,4.2357,4.2991,4.3418,4.3595,4.4318,4.5078,4.5746,4.646,4.7206,4.7934,4.8001,4.8001,4.8001,4.8001,4.8001,4.8001,4.8001,4.8001,4.8001,4.8001,4.8001,4.8001,4.8001,4.8001,4.8001,4.8001,4.8001,4.8001,4.8001,4.8066,4.8115,4.8115,4.8244,4.8388,4.8532,4.8627,4.8707,4.8863,4.8909,4.8925,4.897,4.9001,4.9001,4.9001,4.9243,4.9496,4.9107,4.926,4.9466,4.9124,4.9001,4.9001,4.9001,4.9001,4.9001,4.9001,4.9001,4.9001,4.9001,4.9001,4.9001,4.9001,4.9001,4.9001,4.9001,4.9001,4.9001,4.9001,4.9001,4.9001,4.9001,4.9001,4.9001,4.9001,4.9001,4.9001,4.9001,4.9001,4.9001,4.9001,4.9001,4.9001,4.9001,4.9001,4.9001,4.9001,4.9001,4.9001,4.9001,4.9001,4.9001,4.9001,4.8714,4.8595,3.9395,3.9405,3.9405,3.9325,3.9405,3.9458,3.9325,3.9405,3.9475,3.9379,3.9448,3.9501,3.9501,0.0,0.0,4.0663,4.1138,4.1728,4.2704,4.3448,4.3839,4.3628,4.4178,4.4806,4.5398,4.5897,4.6609,4.7587,4.7653,4.7752,4.7984,4.8001,4.8001,4.8001,4.8001,4.8001,4.8001,4.8001,4.8001,4.8001,4.8001,4.8001,4.8001,4.8001,4.8033,4.8049,4.8049,4.8147,4.8292,4.8292,4.842,4.8627,4.8801,4.8863,4.8863,4.8987,4.9001,4.9032,4.9229,4.9273,4.9303,4.9479,4.9815,5.0085,4.9669,4.9715,4.9803,4.9394,4.9138,4.9032,4.9212,4.9138,4.9001,4.9001,4.9001,4.9001,4.9001,4.9001,4.9001,4.9001,4.9001,4.9001,4.9001,4.9001,4.9001,4.9001,4.9001,4.9001,4.9001,4.9001,4.9001,4.9001,4.9001,4.9001,4.9001,4.9168,4.9273,4.9273,4.9419,4.9376,4.9001,4.9001,4.9001,4.9001,4.9001,4.9001,4.9001,4.9001,4.9001,4.9001,4.9001,4.9001,3.9475,3.9405,3.9299,3.9299,3.9405,3.9458,3.9325,3.9405,3.9501,3.9501,3.9501,3.9501,3.9501,3.9379,0.0,4.1455,4.1526,4.191,4.3383,4.3763,4.3839,4.3628,4.3763,4.4105,4.4652,4.4688,4.5301,4.6775,4.6891,4.7222,4.7951,4.8001,4.8001,4.8001,4.8001,4.8001,4.8001,4.8001,4.8001,4.8001,4.8001,4.8001,4.8001,4.8001,4.8082,4.8195,4.8195,4.8324,4.8515,4.8515,4.8627,4.8818,4.8956,4.9001,4.9001,4.9001,4.9001,4.9077,4.9686,4.9919,4.9988,5.0552,5.0707,5.0724,5.0697,5.0331,4.9919,4.989,4.9483,4.9138,4.9744,4.9453,4.9001,4.9001,4.9001,4.9001,4.9001,4.9001,4.9001,4.9001,4.9001,4.9001,4.9001,4.9001,4.9001,4.9001,4.9001,4.9001,4.9001,4.9001,4.9001,4.9001,4.9001,4.9001,4.9001,4.9555,4.9919,4.9919,5.0415,5.0192,4.9063,4.9001,4.9001,4.9001,4.9001,4.9001,4.9001,4.9001,4.9001,4.9001,4.9001,4.9001,3.9379,3.9405,3.9422,3.9325,3.9405,3.9458,3.9325,3.9405,3.9528,0.0,3.9625,3.9625,3.9625,3.9537,0.0,4.1266,4.1453,4.191,4.3383,4.3835,4.3923,4.3628,4.3864,4.4206,4.4652,4.4688,4.5086,4.6046,4.6609,4.699,4.7206,4.7719,4.8001,4.8001,4.8082,4.8147,4.8147,4.826,4.8356,4.8356,4.8356,4.8244,4.8001,4.8001,4.8082,4.8195,4.8195,4.8388,4.8738,4.8815,4.8877,4.894,4.897,4.9001,4.9063,4.9483,4.9627,4.9715,5.0265,5.0452,5.0497,5.0643,5.0982,5.126,5.0832,5.0589,5.0387,5.0017,4.9483,4.9138,4.9744,4.9774,4.9627,4.9627,4.9303,4.9001,4.9001,4.9001,4.9001,4.9001,4.9001,4.9001,4.9001,4.9001,4.9001,4.9001,4.9001,4.9001,4.9001,4.9001,4.9168,4.9585,4.9627,4.9786,5.0163,5.0359,5.0452,5.0452,5.0616,5.0562,5.022,4.9844,4.9627,4.9627,4.9229,4.9001,4.9001,4.9001,4.9229,4.9627,4.9627,4.9844,3.9325,3.9352,3.9405,3.9325,3.9352,3.9405,3.9325,3.9405,3.9537,3.9677,3.9703,3.9703,3.9703,3.959,3.9967,4.1361,4.1481,4.1939,4.3488,4.3923,4.4027,4.3763,4.3952,4.4177,4.4361,4.4304,4.4572,4.5301,4.5765,4.6146,4.6444,4.7156,4.7554,4.7554,4.7997,4.8195,4.8195,4.8388,4.8515,4.8515,4.8515,4.8388,4.8212,4.8212,4.8276,4.8436,4.8483,4.8658,4.8894,4.8987,4.9001,4.9001,4.9001,4.9138,4.9394,4.9774,5.0045,5.0293,5.0849,5.1061,5.1087,5.1337,5.1651,5.1884,5.1533,5.126,5.0929,5.0377,4.9815,4.9496,5.0056,5.0056,4.989,4.989,4.9615,4.9273,4.9063,4.9001,4.9001,4.9001,4.9001,4.9001,4.9001,4.9001,4.9001,4.9001,4.9001,4.9094,4.9333,4.9364,4.9568,5.017,5.0209,5.0331,5.0653,5.0911,5.1061,5.1061,5.1286,5.1432,5.1432,5.0634,5.0209,5.0209,4.9855,4.9669,4.9669,4.9669,4.9855,5.0209,5.0209,5.0387,3.9299,3.9299,3.9299,3.9299,3.9299,3.9299,3.9325,3.9405,3.9537,3.9677,3.9729,3.9729,3.9703,3.9616,4.0004,4.1515,4.156,4.1979,4.3581,4.3977,4.4039,4.3927,4.4027,4.4056,4.3927,4.3734,4.3893,4.4569,4.4685,4.5017,4.5727,4.6426,4.6823,4.6823,4.768,4.8127,4.8127,4.8418,4.8547,4.8547,4.8547,4.8547,4.8547,4.8515,4.8627,4.8818,4.8956,4.9001,4.9001,4.9001,4.9001,4.9001,4.9063,4.9424,4.9919,5.0034,5.0349,5.0858,5.1457,5.1694,5.1768,5.2322,5.2498,5.2498,5.2498,5.2072,5.15,5.0955,5.0349,5.0045,5.0634,5.0377,4.9988,5.0045,4.9976,4.9744,4.9199,4.9032,4.9001,4.9001,4.9001,4.9001,4.9001,4.9001,4.9001,4.9001,4.9063,4.9273,4.9832,4.993,5.017,5.0724,5.0778,5.0805,5.0858,5.1381,5.1694,5.1694,5.2204,5.2498,5.2498,5.1388,5.0778,5.0778,5.0724,5.0697,5.0697,5.0697,5.0724,5.0778,5.0778,5.0805,3.9299,3.9299,3.9299,3.9299,3.9299,3.9352,3.9573,3.9563,3.9537,3.9677,3.9884,3.9944,3.9755,3.9677,3.9926,4.0754,4.1172,4.1808,4.3008,4.3729,4.4097,4.4056,4.4068,4.4056,4.3927,4.3734,4.3724,4.4055,4.4571,4.4983,4.5317,4.5879,4.6184,4.6184,4.7089,4.7584,4.7584,4.8467,4.8909,4.8909,4.8909,4.8909,4.8877,4.861,4.8627,4.8818,4.8956,4.9001,4.9001,4.9001,4.9001,4.9063,4.9526,4.9774,5.0005,5.0911,5.1304,5.15,5.2114,5.2298,5.2322,5.2475,5.2498,5.2498,5.2498,5.2072,5.1576,5.1432,5.0696,5.0131,5.1131,5.0955,5.0661,5.1122,5.056,4.9861,4.9715,4.9333,4.9001,4.9001,4.9001,4.9001,4.9001,4.9001,4.9001,4.9001,4.9394,4.9744,4.989,5.0265,5.0751,5.1355,5.1406,5.1601,5.2072,5.2233,5.2298,5.2298,5.2434,5.2498,5.2498,5.1793,5.1406,5.1406,5.0938,5.0697,5.0697,5.0697,5.0938,5.1406,5.1406,5.1651,3.9299,3.9299,3.9299,3.9299,3.9432,3.959,3.9537,3.9703,3.9849,3.9729,3.9807,3.9884,3.9729,3.9703,3.9929,4.0575,4.1227,4.1972,4.2976,4.3742,4.4212,4.4212,4.4212,4.4155,4.3998,4.3852,4.3793,4.3898,4.4231,4.4506,4.4654,4.528,4.5604,4.5604,4.6505,4.715,4.7488,4.8169,4.8663,4.9001,4.9001,4.9001,4.9001,4.8815,4.8784,4.8894,4.897,4.9001,4.9001,4.9001,4.9001,4.9032,4.9333,4.9644,4.9988,5.0867,5.1355,5.1694,5.2298,5.2498,5.2498,5.2498,5.2498,5.2498,5.2498,5.2275,5.1975,5.1694,5.1174,5.0858,5.1449,5.1381,5.1286,5.1884,5.1148,5.0209,4.9976,4.9424,4.9001,4.9001,4.9001,4.9094,4.9394,4.9639,4.9826,4.9826,5.0067,5.0377,5.0669,5.0947,5.1355,5.1975,5.2024,5.2162,5.2457,5.2498,5.2498,5.2498,5.2498,5.2498,5.2498,5.2186,5.2024,5.2024,5.1725,5.1558,5.1558,5.1558,5.1725,5.2024,5.2024,5.2186,3.9299,3.9299,3.9299,3.9299,3.9563,3.972,3.9405,3.9781,4.0087,3.9781,3.9729,3.9729,3.9703,3.9703,3.9904,4.0498,4.1234,4.1992,4.2762,4.3569,4.4108,4.4136,4.4226,4.4253,4.4155,4.4027,4.3939,4.3985,4.3969,4.4027,4.42,4.4742,4.5047,4.5047,4.5853,4.6615,4.7208,4.7676,4.8193,4.8815,4.8951,4.9001,4.9001,4.9001,4.9001,4.9001,4.9107,4.9168,4.9168,4.9273,4.9243,4.9168,4.9376,4.9686,5.0113,5.0769,5.1312,5.1835,5.234,5.2498,5.2498,5.2498,5.2498,5.2498,5.2498,5.2498,5.2387,5.1884,5.1694,5.1601,5.1719,5.1694,5.1743,5.2364,5.1651,5.0724,5.0282,4.9715,4.9286,4.9286,4.9286,4.9466,4.9959,5.0415,5.0697,5.0697,5.0805,5.1034,5.1525,5.1694,5.1951,5.2452,5.2498,5.2498,5.2498,5.2498,5.2498,5.2498,5.2498,5.2498,5.2498,5.2498,5.2498,5.2498,5.2498,5.2498,5.2498,5.2498,5.2498,5.2498,5.2498,5.2521,3.9299,3.9299,3.9299,3.9299,3.9352,3.9405,3.9475,3.9642,3.9755,3.9703,3.9781,3.9849,3.9729,3.9703,3.9737,3.9837,4.0464,4.1073,4.1413,4.2547,4.3395,4.3517,4.3962,4.4293,4.4281,4.4155,4.4126,4.4253,4.4253,4.4327,4.4514,4.4468,4.4433,4.4433,4.5156,4.5593,4.5677,4.717,4.7939,4.8041,4.8697,4.9001,4.9001,4.9001,4.9001,4.9032,4.9555,4.9774,4.9832,5.0276,5.0209,4.989,5.0884,5.0999,5.0724,5.1842,5.2298,5.2387,5.2475,5.2498,5.2498,5.2498,5.2498,5.2498,5.2498,5.2498,5.2498,5.241,5.2,5.1719,5.2233,5.2,5.1743,5.2364,5.1975,5.1475,5.1398,5.0902,5.048,5.048,5.048,5.0507,5.0589,5.0643,5.0697,5.0697,5.1139,5.15,5.1576,5.2066,5.241,5.2498,5.2498,5.2498,5.2498,5.2498,5.2498,5.2498,5.2498,5.2498,5.2498,5.2498,5.2498,5.2498,5.2498,5.2498,5.2498,5.2498,5.2498,5.2498,5.2498,5.2531,3.9299,3.9458,3.959,3.9352,3.9458,3.959,3.9432,3.9651,3.9858,3.9642,3.9642,3.9642,3.959,3.9651,3.9703,3.9703,4.0428,4.109,4.1178,4.2064,4.2865,4.3341,4.3624,4.394,4.4259,4.4184,4.4155,4.431,4.4224,4.4298,4.4587,4.4514,4.4468,4.4468,4.4789,4.5149,4.5554,4.6287,4.706,4.7889,4.8663,4.9001,4.9001,4.9001,4.9199,4.9526,4.9774,5.0056,5.0359,5.0589,5.0562,5.0387,5.0902,5.0911,5.0805,5.1676,5.2,5.2048,5.2387,5.2498,5.2498,5.2498,5.2806,5.3096,5.2643,5.2806,5.3078,5.2625,5.2298,5.2162,5.2434,5.2298,5.2162,5.2452,5.2298,5.2096,5.2096,5.1363,5.0697,5.0697,5.0964,5.1209,5.1209,5.1482,5.1701,5.1701,5.1933,5.2096,5.2096,5.234,5.2498,5.2498,5.2498,5.2498,5.2498,5.2498,5.2498,5.2498,5.2498,5.2498,5.2498,5.2498,5.2498,5.2498,5.2498,5.2498,5.2498,5.2498,5.2498,5.2498,5.2531,5.2563,3.9458,3.9668,3.9824,3.9537,3.9616,3.9668,3.9379,3.9625,3.9858,3.9511,3.9475,3.9501,3.9475,3.9563,3.9651,3.9703,4.0355,4.0865,4.0916,4.1559,4.2219,4.2794,4.3156,4.3584,4.403,4.4152,4.427,4.4367,4.4298,4.4344,4.4587,4.4615,4.4615,4.4615,4.4615,4.484,4.5415,4.5618,4.6447,4.7889,4.8477,4.8832,4.9001,4.9001,4.9333,4.9919,5.0045,5.0432,5.0938,5.1087,5.1061,5.0938,5.1113,5.1061,5.1008,5.1601,5.1835,5.1884,5.2345,5.2498,5.2498,5.2498,5.2915,5.3313,5.2915,5.3078,5.3313,5.2915,5.2661,5.2498,5.2498,5.2498,5.2498,5.2498,5.2498,5.2498,5.2498,5.1793,5.1165,5.1165,5.1508,5.1835,5.1835,5.2186,5.2498,5.2498,5.2498,5.2498,5.2498,5.2498,5.2498,5.2498,5.2498,5.2498,5.2498,5.2498,5.2498,5.2498,5.2498,5.2498,5.2498,5.2498,5.2498,5.2498,5.2498,5.2498,5.2498,5.2526,5.2526,5.2526,5.2627,5.2676,3.9875,3.9875,3.9901,3.9875,3.9616,3.9325,3.9299,3.9405,3.9501,3.9325,3.9405,3.9475,3.9325,3.9422,3.9537,3.9677,3.984,4.0002,4.0138,4.0781,4.1271,4.1322,4.253,4.3409,4.3443,4.4147,4.4587,4.457,4.457,4.457,4.4615,4.4615,4.4615,4.4615,4.4615,4.4632,4.4666,4.5348,4.6447,4.7889,4.7922,4.8342,4.9001,4.9001,4.9333,4.9948,5.0442,5.1008,5.1601,5.2162,5.2072,5.1601,5.2186,5.2048,5.1644,5.2228,5.2457,5.2475,5.2498,5.2498,5.2498,5.2498,5.2516,5.2697,5.3422,5.3132,5.2715,5.344,5.3096,5.2498,5.2498,5.2498,5.2498,5.2498,5.2498,5.2498,5.2498,5.2434,5.241,5.241,5.2434,5.2457,5.2457,5.2475,5.2498,5.2498,5.2498,5.2498,5.2498,5.2498,5.2498,5.2498,5.2498,5.2498,5.2498,5.2498,5.2498,5.2498,5.2498,5.2498,5.2498,5.2498,5.2498,5.2498,5.2498,5.2498,5.2498,5.2559,5.259,5.2608,5.2739,5.285,3.9901,4.007,4.0179,3.9961,3.9798,3.9616,3.9352,3.9325,3.9352,3.9299,3.9325,3.9352,3.9299,3.9422,3.9537,3.9677,3.9807,3.9952,4.0087,4.0333,4.0663,4.1136,4.1677,4.2185,4.2658,4.3304,4.3732,4.3826,4.4198,4.4468,4.4598,4.4615,4.4615,4.4615,4.4615,4.4615,4.4615,4.5331,4.5974,4.6515,4.7432,4.8024,4.8325,4.8781,4.9509,5.0415,5.0616,5.1034,5.1644,5.2251,5.2387,5.2186,5.241,5.2364,5.2186,5.241,5.2498,5.2498,5.2498,5.2498,5.2498,5.2498,5.2842,5.3222,5.3005,5.3458,5.3892,5.3132,5.3096,5.315,5.2625,5.2498,5.2498,5.2498,5.2498,5.2498,5.2498,5.2498,5.2498,5.2498,5.2498,5.2498,5.2498,5.2498,5.2498,5.2498,5.2498,5.2498,5.2498,5.2498,5.2498,5.2498,5.2498,5.2498,5.2498,5.2498,5.2498,5.2498,5.2498,5.2498,5.2498,5.2498,5.2498,5.2498,5.2554,5.2559,5.2559,5.2586,5.2635,5.2739,5.2872,5.2937,4.0045,4.0237,4.0343,4.0129,4.007,3.9944,3.9432,3.9405,3.9458,3.9325,3.9299,3.9299,3.9299,3.9379,3.9484,3.9677,3.9781,3.9884,4.007,4.0096,4.0282,4.0764,4.1052,4.139,4.188,4.2527,4.3057,4.3375,4.3765,4.417,4.4598,4.4615,4.4615,4.4615,4.4615,4.4615,4.4615,4.5077,4.5449,4.572,4.6701,4.7415,4.7936,4.8604,4.9487,5.0442,5.0849,5.1337,5.1933,5.2322,5.2498,5.2498,5.2498,5.2498,5.2498,5.2498,5.2498,5.2498,5.2498,5.2498,5.2498,5.2498,5.286,5.3241,5.2987,5.3657,5.4327,5.353,5.3494,5.3585,5.3041,5.2697,5.2498,5.2498,5.2498,5.2498,5.2498,5.2498,5.2498,5.2498,5.2498,5.2498,5.2498,5.2498,5.2498,5.2498,5.2498,5.2498,5.2498,5.2498,5.2498,5.2498,5.2498,5.2498,5.2498,5.2498,5.263,5.2948,5.292,5.3028,5.3347,5.3318,5.3318,5.3347,5.338,5.3326,5.3121,5.287,5.2783,5.2872,5.2999,5.3082,0.0,0.0,0.0,4.0375,4.0375,4.0195,3.9494,3.9616,3.9772,3.9405,3.9325,3.9299,3.9325,3.9299,3.9405,3.9651,3.9703,3.9781,4.0062,4.0096,4.0113,4.0096,4.073,4.117,4.117,4.183,4.2557,4.3274,4.3375,4.3741,4.453,4.4598,4.4615,4.4615,4.4615,4.4615,4.4615,4.4615,4.4942,4.5669,4.5703,4.6464,4.7881,4.8495,4.9177,4.9999,5.1087,5.1915,5.2498,5.2498,5.2498,5.2498,5.2498,5.2498,5.2498,5.2498,5.2498,5.2498,5.2498,5.2498,5.2498,5.2498,5.2498,5.2643,5.344,5.3675,5.3856,5.4653,5.4327,5.3729,5.3711,5.3096,5.2498,5.2498,5.2498,5.2498,5.2498,5.2498,5.2498,5.2498,5.2498,5.2498,5.2498,5.2498,5.2498,5.2498,5.2498,5.2498,5.2498,5.2498,5.2498,5.2498,5.2498,5.2498,5.2534,5.2534,5.2948,5.3881,5.3818,5.4127,5.4965,5.4943,5.4943,5.5007,5.5007,5.476,5.4221,5.3438,5.3017,5.302,5.3143,5.3185,3.9918,0.0,0.0,0.0,0.0,0.0,3.9798,3.959,3.9599,4.0011,3.967,3.9379,3.9694,3.9563,3.9475,3.9537,3.9563,3.9642,3.9926,3.9977,3.9986,4.007,4.0282,4.0417,4.0417,4.1068,4.1593,0.0,4.2811,4.3494,4.3724,4.4265,4.4615,4.4615,4.4615,4.4615,4.4615,4.4615,4.4716,4.4891,4.5449,4.6136,4.6906,4.7606,4.8762,5.0273,5.0596,5.1395,5.2498,5.2498,5.2498,5.2498,5.2498,5.2498,5.2498,5.2498,5.2498,5.2498,5.2498,5.2498,5.2498,5.2498,5.2498,5.2534,5.2752,5.3241,5.3748,5.3965,5.4291,5.4436,5.3856,5.3096,5.2498,5.2498,5.2498,5.2498,5.2498,5.2498,5.2498,5.2498,5.2498,5.2498,5.2498,5.2498,5.2498,5.2498,5.2498,5.2498,5.2498,5.2498,5.2498,5.2498,5.2498,5.278,5.3453,5.3507,5.3881,5.476,5.481,5.4883,5.5125,5.5119,5.5119,5.5125,5.5259,5.5218,5.5066,5.4261,5.3628,5.3143,5.3185,5.3185,0.0,0.0,0.0,0.0,0.0,0.0,3.9703,3.9616,3.9625,3.9901,3.9609,3.9379,3.9616,3.9511,3.9432,3.9501,3.9501,3.959,3.9849,3.9901,3.9935,4.007,4.0096,4.0096,4.0096,4.0476,4.0865,4.1187,4.2016,4.2733,4.3358,4.4147,4.4615,4.4615,4.4615,4.4615,4.4615,4.4786,4.4906,4.4906,4.5552,4.6182,4.6838,4.7509,4.8559,4.9917,5.0516,5.1225,5.2027,5.2353,5.2498,5.2498,5.2498,5.2498,5.2498,5.2498,5.2498,5.2498,5.2498,5.2498,5.2498,5.2498,5.2498,5.2498,5.2498,5.3059,5.3693,5.3693,5.4291,5.4707,5.3911,5.3349,5.2915,5.257,5.2498,5.2498,5.2498,5.2498,5.2498,5.2498,5.2498,5.2498,5.2498,5.2498,5.2498,5.2498,5.2498,5.2498,5.2498,5.2526,5.2554,5.2554,5.2577,5.2972,5.3882,5.3936,5.4474,5.5701,5.571,5.5874,5.6267,5.6221,5.6221,5.6267,5.6355,5.626,5.5976,5.517,5.4408,5.3702,5.3371,5.3185,0.0,0.0,0.0,0.0,0.0,0.0,3.9404,3.9482,3.9621,3.933,3.9249,3.9289,3.9351,3.9365,3.9432,3.9528,3.9528,3.959,3.9849,3.9901,3.9935,4.007,4.0096,4.0096,4.0096,4.0096,4.0383,4.1035,4.1153,4.1847,4.3308,4.4079,4.4513,4.4615,4.4615,4.4626,4.4665,4.5072,4.5329,4.5407,4.5875,4.6474,4.7174,4.7714,4.8413,4.9228,5.0506,5.1067,5.1212,5.2027,5.2426,5.2498,5.2498,5.2498,5.2498,5.2498,5.2498,5.2498,5.2498,5.2498,5.2498,5.2498,5.2498,5.2498,5.2498,5.3005,5.3603,5.3784,5.4345,5.4762,5.4128,5.3838,5.3512,5.2806,5.257,5.2498,5.2498,5.2498,5.2498,5.2498,5.2498,5.2498,5.2498,5.2498,5.2498,5.2498,5.2521,5.2503,5.2503,5.2581,5.2613,5.2613,5.2812,5.3261,5.4086,5.4232,5.4994,5.6644,5.6643,5.6953,5.7797,5.7697,5.7697,5.7815,5.7815,5.7533,5.6932,5.6033,5.5225,5.4509,5.372,5.3335,0.0,0.0,0.0,0.0,0.0,0.0,3.9068,3.8739,3.8639,3.898,3.8969,3.9092,3.9682,3.9863,3.991,3.9849,3.9642,3.959,3.9849,3.9901,3.9935,4.007,4.0096,4.0096,4.0096,4.0096,4.0163,4.0316,4.0865,4.1847,4.3308,4.3555,4.3927,4.4581,4.4615,4.4786,4.5178,4.525,4.5511,4.5968,4.6049,4.6405,4.6961,4.7094,4.7792,4.8977,4.9267,4.9745,5.0401,5.1194,5.1919,5.2498,5.2498,5.2498,5.2498,5.2498,5.2498,5.2498,5.2498,5.2498,5.2498,5.2498,5.2498,5.2498,5.2498,5.2607,5.3005,5.4309,5.478,5.4997,5.5432,5.4617,5.3657,5.3494,5.2969,5.2498,5.2498,5.2498,5.2498,5.2498,5.2498,5.2498,5.2498,5.2498,5.2498,5.2498,5.2554,5.2586,5.2586,5.2694,5.2761,5.2761,5.3348,5.4145,5.5039,5.572,5.6575,5.7657,5.7712,5.7785,5.7932,5.795,5.7932,5.7973,5.7973,5.79,5.7758,5.6308,5.5522,5.5335,5.4546,5.4179,0.0,0.0,0.0,3.9299,0.0,0.0,0.0,3.8411,3.8287,3.8173,3.8152,3.8426,3.9255,3.9462,3.9681,4.0178,4.0062,3.9952,4.0079,3.9926,3.9884,4.0087,4.0096,4.0096,4.0096,4.0096,4.0196,4.041,4.1134,4.197,4.2951,4.3477,4.3943,4.4336,4.4739,4.5045,4.5303,4.5825,4.622,4.6501,4.6776,4.7039,4.7302,4.7302,4.7663,4.8312,4.8728,4.9148,4.9564,5.0361,5.1176,5.1937,5.2335,5.2498,5.2498,5.2498,5.2498,5.2498,5.2498,5.2498,5.2498,5.2498,5.2498,5.2498,5.2498,5.2498,5.2752,5.3965,5.4599,5.4997,5.5359,5.4888,5.42,5.3802,5.3078,5.2498,5.2498,5.2498,5.2498,5.2498,5.2526,5.2536,5.2536,5.2536,5.2577,5.2622,5.2672,5.2698,5.2698,5.2828,5.2893,5.2893,5.369,5.4539,5.543,5.6236,5.7066,5.7941,5.7997,5.7997,5.7997,5.7997,5.7997,5.7997,5.7997,5.7997,5.7997,5.7189,5.6583,5.618,5.5372,5.4987,0.0,0.0,0.0,0.0,0.0,3.898,0.0,0.0,0.0,3.7168,3.7224,3.767,3.8571,3.8935,0.0,4.0214,0.0,0.0,0.0,3.991,0.0,4.0037,4.007,4.0096,4.0096,4.0096,4.0271,4.0652,4.1306,4.1919,4.2434,4.3315,4.3955,4.4249,4.488,4.5355,4.5614,4.6454,4.6954,4.7062,4.749,4.7717,4.7717,4.7717,4.7717,4.7732,4.8384,4.8656,4.8728,4.9546,5.0234,5.0923,5.1882,5.2353,5.2498,5.2498,5.2498,5.2498,5.2498,5.2498,5.2498,5.2498,5.2498,5.2498,5.2498,5.2498,5.2661,5.3476,5.4164,5.4744,5.5033,5.5015,5.4744,5.4097,5.3342,5.2707,5.2585,5.2549,5.2549,5.2549,5.2604,5.2613,5.259,5.2613,5.2676,5.2783,5.2806,5.2828,5.2828,5.2955,5.3042,5.3042,5.3986,5.4876,5.5559,5.6473,5.7317,5.796,5.7997,5.7997,5.7997,5.7997,5.7997,5.7997,5.7997,5.7997,5.7997,5.7997,5.7666,5.7024,5.6198,5.5831,0.0,0.0,0.0,0.0,3.9166,0.0,0.0,0.0,3.6541,3.6208,0.0,3.7228,3.8049,0.0,0.0,0.0,0.0,0.0,3.9888,3.978,3.9755,3.9884,4.0037,4.0096,4.0096,4.0096,4.0121,4.0171,4.0624,4.124,4.1944,4.2492,4.3395,4.4784,4.4907,4.5534,4.6707,4.684,4.7129,4.7615,4.7657,4.7717,4.7717,4.7717,4.7717,4.7717,4.7808,4.7823,4.7916,4.8692,4.9072,4.9307,5.0832,5.1864,5.2498,5.2498,5.2498,5.2498,5.2498,5.2498,5.2498,5.2498,5.2498,5.2498,5.2498,5.2498,5.2661,5.3476,5.3766,5.4146,5.5522,5.5395,5.4894,5.4869,5.4239,5.3481,5.2903,5.2779,5.2779,5.2779,5.2761,5.2739,5.2613,5.2698,5.2783,5.2806,5.2893,5.2977,5.2977,5.3082,5.3185,5.3185,5.4546,5.5482,5.5574,5.6987,5.7905,5.7997,5.7997,5.7997,5.7997,5.7997,5.7997,5.7997,5.7997,5.7997,5.7997,5.7997,5.7941,5.7831,5.7042,5.6657,0.0,0.0,0.0,0.0,0.0,0.0,3.7742,0.0,3.632,0.0,0.0,0.0,0.0,0.0,0.0,0.0,3.974,3.9896,0.0,0.0,4.0089,4.022,0.0,0.0,4.0096,4.0096,4.0204,4.0483,4.0683,4.1181,4.2022,4.2412,4.3029,4.3952,4.4878,4.563,4.619,4.698,4.749,4.7717,4.7717,4.7717,4.7717,4.7717,4.7717,4.7717,4.7717,4.7717,4.7735,4.8058,4.8475,4.8963,4.9655,5.0687,5.1846,5.2317,5.2498,5.2498,5.2498,5.2498,5.2498,5.2498,5.2498,5.2498,5.2498,5.2498,5.257,5.2915,5.3331,5.3965,5.507,5.5154,5.4972,5.4984,5.4436,5.3704,5.2966,5.2806,5.2806,5.2806,5.285,5.2893,5.285,5.2872,5.2934,5.3017,5.3082,5.3103,5.3103,5.3164,5.3185,5.3185,5.4638,5.5614,5.5614,5.706,5.7997,5.7997,5.7997,5.7997,5.7997,5.7997,5.7997,5.7997,5.7997,5.7997,5.7997,5.7997,5.7997,5.7997,5.7648,5.7501,3.9935,0.0,0.0,0.0,0.0,0.0,0.0,0.0,0.0,0.0,0.0,0.0,0.0,0.0,0.0,0.0,0.0,3.9485,0.0,3.9901,0.0,0.0,0.0,0.0,0.0,4.0171,4.0279,4.0754,4.0802,4.1139,4.1952,4.2312,4.274,4.3315,4.4804,4.5692,4.5925,4.7096,4.7717,4.7717,4.7717,4.7717,4.7717,4.7717,4.7717,4.7717,4.7717,4.7717,4.7717,4.7717,4.8022,4.8583,4.88,4.9619,5.076,5.1792,5.2299,5.2498,5.2498,5.2498,5.2498,5.2498,5.2498,5.2498,5.2498,5.2498,5.2498,5.2498,5.2915,5.3548,5.4393,5.4809,5.5007,5.5078,5.4734,5.4168,5.3405,5.3076,5.2912,5.2912,5.2977,5.3042,5.3042,5.3042,5.3082,5.3185,5.3185,5.3185,5.3185,5.3185,5.3185,5.3185,5.4638,5.5614,5.5614,5.706,5.7997,5.7997,5.7997,5.7997,5.7997,5.7997,5.7997,5.7997,5.7997,5.7997,5.7997,5.7997,5.7997,5.7997,5.7997,5.7997,0.0,0.0,0.0,4.007,0.0,0.0,0.0,0.0,3.5633,0.0,0.0,0.0,0.0,0.0,0.0,0.0,0.0,0.0,0.0,0.0,0.0,0.0,0.0,0.0,0.0,4.0377,4.0279,4.0754,4.0802,4.1019,4.1503,4.1966,4.257,4.3358,4.4653,4.5687,4.6483,4.728,4.7717,4.7717,4.7717,4.7717,4.7717,4.7717,4.7717,4.7717,4.7717,4.7717,4.7717,4.7717,4.7735,4.7826,4.8583,4.8927,4.9162,5.0741,5.1828,5.2498,5.2498,5.2498,5.2498,5.2498,5.2498,5.2498,5.2498,5.2498,5.2498,5.2498,5.2516,5.2739,5.3598,5.4426,5.5073,5.5327,5.5377,5.5162,5.4484,5.3736,5.3185,5.3185,5.3185,5.3185,5.3185,5.3185,5.3185,5.3185,5.3185,5.3185,5.3185,5.3185,5.3185,5.3185,5.4638,5.5614,5.5614,5.706,5.7997,5.7997,5.7997,5.7997,5.7997,5.7997,5.7997,5.7997,5.7997,5.7997,5.7997,5.7997,5.7997,5.7997,5.7997,5.7997,4.0096,4.0096,4.0096,4.0096,0.0,0.0,0.0,0.0,0.0,0.0,0.0,0.0,0.0,0.0,0.0,0.0,0.0,0.0,0.0,0.0,0.0,0.0,0.0,0.0,0.0,4.0949,4.0955,4.0825,4.1088,4.1477,4.1931,4.2115,4.2463,4.305,4.4001,4.4892,4.5707,4.6504,4.7174,4.7717,4.7717,4.7717,4.7717,4.7717,4.7717,4.7717,4.7717,4.7717,4.7717,4.7717,4.7717,4.7735,4.8007,4.842,4.9072,5.0705,5.1466,5.1774,5.2317,5.2498,5.2498,5.2498,5.2498,5.2498,5.2498,5.2498,5.2503,5.2559,5.2581,5.2786,5.3677,5.4611,5.5304,5.5373,5.5463,5.531,5.4564,5.3775,5.3185,5.3185,5.3185,5.3185,5.3185,5.3185,5.3185,5.3185,5.3185,5.3185,5.3185,5.3185,5.3185,5.3185,5.4638,5.5614,5.5614,5.706,5.7997,5.7997,5.7997,5.7997,5.7997,5.7997,5.7997,5.7997,5.7997,5.7997,5.7997,5.7997,5.7997,5.7997,5.7997,5.7997,4.0096,4.0096,4.0096,4.0096,3.9554,0.0,3.8988,0.0,3.777,0.0,0.0,0.0,0.0,0.0,0.0,0.0,0.0,0.0,0.0,3.8868,0.0,0.0,0.0,0.0,0.0,4.1162,4.1253,4.1316,4.1276,4.1543,4.2157,4.2198,4.2338,4.2653,4.3583,4.4476,4.5291,4.6106,4.6902,4.7717,4.7717,4.7717,4.7717,4.7717,4.7717,4.7717,4.7717,4.7717,4.7717,4.7717,4.7717,4.7717,4.7717,4.8025,4.8656,5.0271,5.123,5.1792,5.2317,5.2498,5.2498,5.2498,5.2498,5.2498,5.2498,5.2498,5.2503,5.2586,5.259,5.2763,5.3444,5.4304,5.507,5.5408,5.5328,5.5097,5.4876,5.3977,5.3185,5.3185,5.3185,5.3185,5.3185,5.3185,5.3185,5.3185,5.3185,5.3185,5.3185,5.3185,5.3185,5.3185,5.4638,5.5812,5.64,5.7391,5.7997,5.7997,5.7997,5.7997,5.7997,5.7997,5.7997,5.7997,5.7997,5.7997,5.7997,5.7997,5.7997,5.7997,5.7997,5.7997]}]]